<?xml version="1.0" encoding="UTF-8" standalone="no" ?>
<gpx xmlns="http://www.topografix.com/GPX/1/1" xmlns:xsi="http://www.w3.org/2001/XMLSchema-instance" xsi:schemaLocation="http://www.topografix.com/GPX/1/1 http://www.topografix.com/GPX/1/1/gpx.xsd" version="1.1" creator="VisuGPX - https://www.visugpx.com">
  <metadata>
    <name>ARDIDEN (Depuis Bernazaou)</name>
    <desc><![CDATA[Très belle randonnée par les lacs d\'Ardiden.]]></desc>
  </metadata>
  <trk>
    <name><![CDATA[Pic d'Ardiden]]></name>
    <trkseg>
      <trkpt lat="42.87819" lon="-0.04623">
        <ele>1327</ele>
        <time>2011-04-09T04:35:50Z</time>
      </trkpt>
      <trkpt lat="42.87818" lon="-0.04623">
        <ele>1328</ele>
        <time>2011-04-09T04:36:24Z</time>
      </trkpt>
      <trkpt lat="42.8782" lon="-0.04618">
        <ele>1327</ele>
        <time>2011-04-09T04:36:39Z</time>
      </trkpt>
      <trkpt lat="42.87819" lon="-0.04617">
        <ele>1327</ele>
        <time>2011-04-09T04:36:58Z</time>
      </trkpt>
      <trkpt lat="42.87819" lon="-0.04615">
        <ele>1328</ele>
        <time>2011-04-09T04:37:01Z</time>
      </trkpt>
      <trkpt lat="42.87828" lon="-0.04596">
        <ele>1329</ele>
        <time>2011-04-09T04:37:20Z</time>
      </trkpt>
      <trkpt lat="42.87832" lon="-0.04589">
        <ele>1332</ele>
        <time>2011-04-09T04:37:25Z</time>
      </trkpt>
      <trkpt lat="42.87833" lon="-0.04588">
        <ele>1335</ele>
        <time>2011-04-09T04:37:26Z</time>
      </trkpt>
      <trkpt lat="42.87834" lon="-0.04587">
        <ele>1341</ele>
        <time>2011-04-09T04:37:28Z</time>
      </trkpt>
      <trkpt lat="42.87835" lon="-0.04585">
        <ele>1346</ele>
        <time>2011-04-09T04:37:30Z</time>
      </trkpt>
      <trkpt lat="42.87836" lon="-0.04584">
        <ele>1351</ele>
        <time>2011-04-09T04:37:32Z</time>
      </trkpt>
      <trkpt lat="42.87837" lon="-0.04584">
        <ele>1356</ele>
        <time>2011-04-09T04:37:34Z</time>
      </trkpt>
      <trkpt lat="42.87837" lon="-0.04585">
        <ele>1359</ele>
        <time>2011-04-09T04:37:36Z</time>
      </trkpt>
      <trkpt lat="42.87836" lon="-0.04588">
        <ele>1364</ele>
        <time>2011-04-09T04:37:38Z</time>
      </trkpt>
      <trkpt lat="42.87836" lon="-0.04589">
        <ele>1368</ele>
        <time>2011-04-09T04:37:40Z</time>
      </trkpt>
      <trkpt lat="42.87834" lon="-0.04591">
        <ele>1372</ele>
        <time>2011-04-09T04:37:42Z</time>
      </trkpt>
      <trkpt lat="42.87834" lon="-0.04592">
        <ele>1376</ele>
        <time>2011-04-09T04:37:44Z</time>
      </trkpt>
      <trkpt lat="42.87833" lon="-0.04594">
        <ele>1379</ele>
        <time>2011-04-09T04:37:46Z</time>
      </trkpt>
      <trkpt lat="42.87832" lon="-0.04595">
        <ele>1382</ele>
        <time>2011-04-09T04:37:48Z</time>
      </trkpt>
      <trkpt lat="42.87831" lon="-0.04597">
        <ele>1386</ele>
        <time>2011-04-09T04:37:51Z</time>
      </trkpt>
      <trkpt lat="42.87831" lon="-0.04598">
        <ele>1390</ele>
        <time>2011-04-09T04:37:54Z</time>
      </trkpt>
      <trkpt lat="42.8783" lon="-0.046">
        <ele>1394</ele>
        <time>2011-04-09T04:37:57Z</time>
      </trkpt>
      <trkpt lat="42.87829" lon="-0.04601">
        <ele>1397</ele>
        <time>2011-04-09T04:38:00Z</time>
      </trkpt>
      <trkpt lat="42.87829" lon="-0.04604">
        <ele>1401</ele>
        <time>2011-04-09T04:38:03Z</time>
      </trkpt>
      <trkpt lat="42.87829" lon="-0.04606">
        <ele>1405</ele>
        <time>2011-04-09T04:38:07Z</time>
      </trkpt>
      <trkpt lat="42.87828" lon="-0.04609">
        <ele>1408</ele>
        <time>2011-04-09T04:38:11Z</time>
      </trkpt>
      <trkpt lat="42.87828" lon="-0.0461">
        <ele>1411</ele>
        <time>2011-04-09T04:38:15Z</time>
      </trkpt>
      <trkpt lat="42.87828" lon="-0.04612">
        <ele>1415</ele>
        <time>2011-04-09T04:38:21Z</time>
      </trkpt>
      <trkpt lat="42.87826" lon="-0.04614">
        <ele>1418</ele>
        <time>2011-04-09T04:38:26Z</time>
      </trkpt>
      <trkpt lat="42.87826" lon="-0.04618">
        <ele>1421</ele>
        <time>2011-04-09T04:38:32Z</time>
      </trkpt>
      <trkpt lat="42.87824" lon="-0.04623">
        <ele>1424</ele>
        <time>2011-04-09T04:38:38Z</time>
      </trkpt>
      <trkpt lat="42.87824" lon="-0.04625">
        <ele>1426</ele>
        <time>2011-04-09T04:38:41Z</time>
      </trkpt>
      <trkpt lat="42.87822" lon="-0.0463">
        <ele>1429</ele>
        <time>2011-04-09T04:38:48Z</time>
      </trkpt>
      <trkpt lat="42.87819" lon="-0.04638">
        <ele>1432</ele>
        <time>2011-04-09T04:38:59Z</time>
      </trkpt>
      <trkpt lat="42.87818" lon="-0.04645">
        <ele>1434</ele>
        <time>2011-04-09T04:39:08Z</time>
      </trkpt>
      <trkpt lat="42.87825" lon="-0.04643">
        <ele>1437</ele>
        <time>2011-04-09T04:39:23Z</time>
      </trkpt>
      <trkpt lat="42.87835" lon="-0.04639">
        <ele>1440</ele>
        <time>2011-04-09T04:39:38Z</time>
      </trkpt>
      <trkpt lat="42.87843" lon="-0.04638">
        <ele>1442</ele>
        <time>2011-04-09T04:39:50Z</time>
      </trkpt>
      <trkpt lat="42.87839" lon="-0.04647">
        <ele>1444</ele>
        <time>2011-04-09T04:40:05Z</time>
      </trkpt>
      <trkpt lat="42.87832" lon="-0.04659">
        <ele>1446</ele>
        <time>2011-04-09T04:40:21Z</time>
      </trkpt>
      <trkpt lat="42.87825" lon="-0.0467">
        <ele>1449</ele>
        <time>2011-04-09T04:40:35Z</time>
      </trkpt>
      <trkpt lat="42.87822" lon="-0.04681">
        <ele>1451</ele>
        <time>2011-04-09T04:40:48Z</time>
      </trkpt>
      <trkpt lat="42.87819" lon="-0.04703">
        <ele>1454</ele>
        <time>2011-04-09T04:41:10Z</time>
      </trkpt>
      <trkpt lat="42.87821" lon="-0.04708">
        <ele>1453</ele>
        <time>2011-04-09T04:41:25Z</time>
      </trkpt>
      <trkpt lat="42.87821" lon="-0.04712">
        <ele>1454</ele>
        <time>2011-04-09T04:41:30Z</time>
      </trkpt>
      <trkpt lat="42.87808" lon="-0.04718">
        <ele>1457</ele>
        <time>2011-04-09T04:41:49Z</time>
      </trkpt>
      <trkpt lat="42.87802" lon="-0.04727">
        <ele>1460</ele>
        <time>2011-04-09T04:42:06Z</time>
      </trkpt>
      <trkpt lat="42.87795" lon="-0.04736">
        <ele>1463</ele>
        <time>2011-04-09T04:42:24Z</time>
      </trkpt>
      <trkpt lat="42.87781" lon="-0.04737">
        <ele>1466</ele>
        <time>2011-04-09T04:42:43Z</time>
      </trkpt>
      <trkpt lat="42.87767" lon="-0.04753">
        <ele>1468</ele>
        <time>2011-04-09T04:43:08Z</time>
      </trkpt>
      <trkpt lat="42.87755" lon="-0.04773">
        <ele>1471</ele>
        <time>2011-04-09T04:43:33Z</time>
      </trkpt>
      <trkpt lat="42.87748" lon="-0.04788">
        <ele>1474</ele>
        <time>2011-04-09T04:43:52Z</time>
      </trkpt>
      <trkpt lat="42.87738" lon="-0.04804">
        <ele>1476</ele>
        <time>2011-04-09T04:44:14Z</time>
      </trkpt>
      <trkpt lat="42.87731" lon="-0.04822">
        <ele>1480</ele>
        <time>2011-04-09T04:44:36Z</time>
      </trkpt>
      <trkpt lat="42.87728" lon="-0.04838">
        <ele>1483</ele>
        <time>2011-04-09T04:44:59Z</time>
      </trkpt>
      <trkpt lat="42.87721" lon="-0.04848">
        <ele>1487</ele>
        <time>2011-04-09T04:45:16Z</time>
      </trkpt>
      <trkpt lat="42.87717" lon="-0.04855">
        <ele>1489</ele>
        <time>2011-04-09T04:45:33Z</time>
      </trkpt>
      <trkpt lat="42.87714" lon="-0.04863">
        <ele>1491</ele>
        <time>2011-04-09T04:45:46Z</time>
      </trkpt>
      <trkpt lat="42.87711" lon="-0.04873">
        <ele>1494</ele>
        <time>2011-04-09T04:46:00Z</time>
      </trkpt>
      <trkpt lat="42.87707" lon="-0.04882">
        <ele>1495</ele>
        <time>2011-04-09T04:46:14Z</time>
      </trkpt>
      <trkpt lat="42.87705" lon="-0.04889">
        <ele>1496</ele>
        <time>2011-04-09T04:46:20Z</time>
      </trkpt>
      <trkpt lat="42.87699" lon="-0.04906">
        <ele>1498</ele>
        <time>2011-04-09T04:46:37Z</time>
      </trkpt>
      <trkpt lat="42.87695" lon="-0.04921">
        <ele>1500</ele>
        <time>2011-04-09T04:46:52Z</time>
      </trkpt>
      <trkpt lat="42.8769" lon="-0.04934">
        <ele>1503</ele>
        <time>2011-04-09T04:47:09Z</time>
      </trkpt>
      <trkpt lat="42.87683" lon="-0.04949">
        <ele>1505</ele>
        <time>2011-04-09T04:47:28Z</time>
      </trkpt>
      <trkpt lat="42.87679" lon="-0.04961">
        <ele>1508</ele>
        <time>2011-04-09T04:47:45Z</time>
      </trkpt>
      <trkpt lat="42.87676" lon="-0.04975">
        <ele>1510</ele>
        <time>2011-04-09T04:48:01Z</time>
      </trkpt>
      <trkpt lat="42.87674" lon="-0.04989">
        <ele>1513</ele>
        <time>2011-04-09T04:48:20Z</time>
      </trkpt>
      <trkpt lat="42.8767" lon="-0.05004">
        <ele>1516</ele>
        <time>2011-04-09T04:48:39Z</time>
      </trkpt>
      <trkpt lat="42.87665" lon="-0.05015">
        <ele>1518</ele>
        <time>2011-04-09T04:48:58Z</time>
      </trkpt>
      <trkpt lat="42.87658" lon="-0.05031">
        <ele>1520</ele>
        <time>2011-04-09T04:49:18Z</time>
      </trkpt>
      <trkpt lat="42.87646" lon="-0.05049">
        <ele>1522</ele>
        <time>2011-04-09T04:49:41Z</time>
      </trkpt>
      <trkpt lat="42.87633" lon="-0.05064">
        <ele>1524</ele>
        <time>2011-04-09T04:50:00Z</time>
      </trkpt>
      <trkpt lat="42.87623" lon="-0.05074">
        <ele>1527</ele>
        <time>2011-04-09T04:50:17Z</time>
      </trkpt>
      <trkpt lat="42.87621" lon="-0.0508">
        <ele>1529</ele>
        <time>2011-04-09T04:50:25Z</time>
      </trkpt>
      <trkpt lat="42.87622" lon="-0.05082">
        <ele>1531</ele>
        <time>2011-04-09T04:50:39Z</time>
      </trkpt>
      <trkpt lat="42.87621" lon="-0.05084">
        <ele>1531</ele>
        <time>2011-04-09T04:50:41Z</time>
      </trkpt>
      <trkpt lat="42.87623" lon="-0.05098">
        <ele>1534</ele>
        <time>2011-04-09T04:51:00Z</time>
      </trkpt>
      <trkpt lat="42.87623" lon="-0.0511">
        <ele>1538</ele>
        <time>2011-04-09T04:51:17Z</time>
      </trkpt>
      <trkpt lat="42.87625" lon="-0.05113">
        <ele>1538</ele>
        <time>2011-04-09T04:51:25Z</time>
      </trkpt>
      <trkpt lat="42.87619" lon="-0.05119">
        <ele>1540</ele>
        <time>2011-04-09T04:51:43Z</time>
      </trkpt>
      <trkpt lat="42.87621" lon="-0.05125">
        <ele>1541</ele>
        <time>2011-04-09T04:52:00Z</time>
      </trkpt>
      <trkpt lat="42.87625" lon="-0.05132">
        <ele>1544</ele>
        <time>2011-04-09T04:52:14Z</time>
      </trkpt>
      <trkpt lat="42.87621" lon="-0.05147">
        <ele>1546</ele>
        <time>2011-04-09T04:52:29Z</time>
      </trkpt>
      <trkpt lat="42.87608" lon="-0.05164">
        <ele>1547</ele>
        <time>2011-04-09T04:52:48Z</time>
      </trkpt>
      <trkpt lat="42.87597" lon="-0.05178">
        <ele>1549</ele>
        <time>2011-04-09T04:53:05Z</time>
      </trkpt>
      <trkpt lat="42.87581" lon="-0.05197">
        <ele>1551</ele>
        <time>2011-04-09T04:53:30Z</time>
      </trkpt>
      <trkpt lat="42.87568" lon="-0.05212">
        <ele>1553</ele>
        <time>2011-04-09T04:53:49Z</time>
      </trkpt>
      <trkpt lat="42.87562" lon="-0.05229">
        <ele>1555</ele>
        <time>2011-04-09T04:54:08Z</time>
      </trkpt>
      <trkpt lat="42.87555" lon="-0.05242">
        <ele>1557</ele>
        <time>2011-04-09T04:54:24Z</time>
      </trkpt>
      <trkpt lat="42.87547" lon="-0.05256">
        <ele>1559</ele>
        <time>2011-04-09T04:54:42Z</time>
      </trkpt>
      <trkpt lat="42.8754" lon="-0.05274">
        <ele>1561</ele>
        <time>2011-04-09T04:55:02Z</time>
      </trkpt>
      <trkpt lat="42.87537" lon="-0.05285">
        <ele>1564</ele>
        <time>2011-04-09T04:55:18Z</time>
      </trkpt>
      <trkpt lat="42.87533" lon="-0.05294">
        <ele>1567</ele>
        <time>2011-04-09T04:55:32Z</time>
      </trkpt>
      <trkpt lat="42.87531" lon="-0.05301">
        <ele>1569</ele>
        <time>2011-04-09T04:55:47Z</time>
      </trkpt>
      <trkpt lat="42.87528" lon="-0.0531">
        <ele>1573</ele>
        <time>2011-04-09T04:56:04Z</time>
      </trkpt>
      <trkpt lat="42.87524" lon="-0.05321">
        <ele>1576</ele>
        <time>2011-04-09T04:56:23Z</time>
      </trkpt>
      <trkpt lat="42.8752" lon="-0.05326">
        <ele>1579</ele>
        <time>2011-04-09T04:56:39Z</time>
      </trkpt>
      <trkpt lat="42.87516" lon="-0.05337">
        <ele>1581</ele>
        <time>2011-04-09T04:56:58Z</time>
      </trkpt>
      <trkpt lat="42.87512" lon="-0.05344">
        <ele>1584</ele>
        <time>2011-04-09T04:57:13Z</time>
      </trkpt>
      <trkpt lat="42.87507" lon="-0.05351">
        <ele>1587</ele>
        <time>2011-04-09T04:57:30Z</time>
      </trkpt>
      <trkpt lat="42.87507" lon="-0.05361">
        <ele>1589</ele>
        <time>2011-04-09T04:57:45Z</time>
      </trkpt>
      <trkpt lat="42.87503" lon="-0.05365">
        <ele>1591</ele>
        <time>2011-04-09T04:57:59Z</time>
      </trkpt>
      <trkpt lat="42.87503" lon="-0.05371">
        <ele>1593</ele>
        <time>2011-04-09T04:58:14Z</time>
      </trkpt>
      <trkpt lat="42.87502" lon="-0.05378">
        <ele>1596</ele>
        <time>2011-04-09T04:58:30Z</time>
      </trkpt>
      <trkpt lat="42.87499" lon="-0.05385">
        <ele>1599</ele>
        <time>2011-04-09T04:58:46Z</time>
      </trkpt>
      <trkpt lat="42.87496" lon="-0.05388">
        <ele>1601</ele>
        <time>2011-04-09T04:59:00Z</time>
      </trkpt>
      <trkpt lat="42.87493" lon="-0.05393">
        <ele>1604</ele>
        <time>2011-04-09T04:59:13Z</time>
      </trkpt>
      <trkpt lat="42.8749" lon="-0.05401">
        <ele>1606</ele>
        <time>2011-04-09T04:59:28Z</time>
      </trkpt>
      <trkpt lat="42.87485" lon="-0.05405">
        <ele>1609</ele>
        <time>2011-04-09T04:59:42Z</time>
      </trkpt>
      <trkpt lat="42.8748" lon="-0.05413">
        <ele>1611</ele>
        <time>2011-04-09T04:59:57Z</time>
      </trkpt>
      <trkpt lat="42.8748" lon="-0.05419">
        <ele>1613</ele>
        <time>2011-04-09T05:00:13Z</time>
      </trkpt>
      <trkpt lat="42.87476" lon="-0.05427">
        <ele>1616</ele>
        <time>2011-04-09T05:00:29Z</time>
      </trkpt>
      <trkpt lat="42.8747" lon="-0.05428">
        <ele>1618</ele>
        <time>2011-04-09T05:00:44Z</time>
      </trkpt>
      <trkpt lat="42.87464" lon="-0.05435">
        <ele>1620</ele>
        <time>2011-04-09T05:01:01Z</time>
      </trkpt>
      <trkpt lat="42.87461" lon="-0.05441">
        <ele>1623</ele>
        <time>2011-04-09T05:01:15Z</time>
      </trkpt>
      <trkpt lat="42.87457" lon="-0.05447">
        <ele>1625</ele>
        <time>2011-04-09T05:01:28Z</time>
      </trkpt>
      <trkpt lat="42.87459" lon="-0.0545">
        <ele>1626</ele>
        <time>2011-04-09T05:01:43Z</time>
      </trkpt>
      <trkpt lat="42.87466" lon="-0.05454">
        <ele>1630</ele>
        <time>2011-04-09T05:01:58Z</time>
      </trkpt>
      <trkpt lat="42.87471" lon="-0.05458">
        <ele>1632</ele>
        <time>2011-04-09T05:02:17Z</time>
      </trkpt>
      <trkpt lat="42.8748" lon="-0.05462">
        <ele>1635</ele>
        <time>2011-04-09T05:02:34Z</time>
      </trkpt>
      <trkpt lat="42.87486" lon="-0.05466">
        <ele>1638</ele>
        <time>2011-04-09T05:02:50Z</time>
      </trkpt>
      <trkpt lat="42.87493" lon="-0.05469">
        <ele>1641</ele>
        <time>2011-04-09T05:03:05Z</time>
      </trkpt>
      <trkpt lat="42.87498" lon="-0.05473">
        <ele>1643</ele>
        <time>2011-04-09T05:03:21Z</time>
      </trkpt>
      <trkpt lat="42.87493" lon="-0.05484">
        <ele>1646</ele>
        <time>2011-04-09T05:03:41Z</time>
      </trkpt>
      <trkpt lat="42.87491" lon="-0.0549">
        <ele>1649</ele>
        <time>2011-04-09T05:03:54Z</time>
      </trkpt>
      <trkpt lat="42.87487" lon="-0.05501">
        <ele>1652</ele>
        <time>2011-04-09T05:04:13Z</time>
      </trkpt>
      <trkpt lat="42.87494" lon="-0.05503">
        <ele>1655</ele>
        <time>2011-04-09T05:04:31Z</time>
      </trkpt>
      <trkpt lat="42.87503" lon="-0.05505">
        <ele>1658</ele>
        <time>2011-04-09T05:04:50Z</time>
      </trkpt>
      <trkpt lat="42.87501" lon="-0.05515">
        <ele>1661</ele>
        <time>2011-04-09T05:05:10Z</time>
      </trkpt>
      <trkpt lat="42.87499" lon="-0.05527">
        <ele>1664</ele>
        <time>2011-04-09T05:05:31Z</time>
      </trkpt>
      <trkpt lat="42.87499" lon="-0.05531">
        <ele>1666</ele>
        <time>2011-04-09T05:05:41Z</time>
      </trkpt>
      <trkpt lat="42.87497" lon="-0.05533">
        <ele>1667</ele>
        <time>2011-04-09T05:05:56Z</time>
      </trkpt>
      <trkpt lat="42.87496" lon="-0.05541">
        <ele>1668</ele>
        <time>2011-04-09T05:06:16Z</time>
      </trkpt>
      <trkpt lat="42.87493" lon="-0.05549">
        <ele>1672</ele>
        <time>2011-04-09T05:06:29Z</time>
      </trkpt>
      <trkpt lat="42.87486" lon="-0.0556">
        <ele>1675</ele>
        <time>2011-04-09T05:06:50Z</time>
      </trkpt>
      <trkpt lat="42.87483" lon="-0.0557">
        <ele>1679</ele>
        <time>2011-04-09T05:07:09Z</time>
      </trkpt>
      <trkpt lat="42.8748" lon="-0.05577">
        <ele>1681</ele>
        <time>2011-04-09T05:07:27Z</time>
      </trkpt>
      <trkpt lat="42.87476" lon="-0.05583">
        <ele>1683</ele>
        <time>2011-04-09T05:07:40Z</time>
      </trkpt>
      <trkpt lat="42.87474" lon="-0.05588">
        <ele>1685</ele>
        <time>2011-04-09T05:07:52Z</time>
      </trkpt>
      <trkpt lat="42.87474" lon="-0.05592">
        <ele>1688</ele>
        <time>2011-04-09T05:08:08Z</time>
      </trkpt>
      <trkpt lat="42.87467" lon="-0.05599">
        <ele>1691</ele>
        <time>2011-04-09T05:08:23Z</time>
      </trkpt>
      <trkpt lat="42.87468" lon="-0.05598">
        <ele>1691</ele>
        <time>2011-04-09T05:08:50Z</time>
      </trkpt>
      <trkpt lat="42.87461" lon="-0.05608">
        <ele>1693</ele>
        <time>2011-04-09T05:09:05Z</time>
      </trkpt>
      <trkpt lat="42.87453" lon="-0.05619">
        <ele>1695</ele>
        <time>2011-04-09T05:09:21Z</time>
      </trkpt>
      <trkpt lat="42.8745" lon="-0.05632">
        <ele>1699</ele>
        <time>2011-04-09T05:09:37Z</time>
      </trkpt>
      <trkpt lat="42.8745" lon="-0.05633">
        <ele>1699</ele>
        <time>2011-04-09T05:09:38Z</time>
      </trkpt>
      <trkpt lat="42.87446" lon="-0.05642">
        <ele>1699</ele>
        <time>2011-04-09T05:09:53Z</time>
      </trkpt>
      <trkpt lat="42.87439" lon="-0.0565">
        <ele>1702</ele>
        <time>2011-04-09T05:10:09Z</time>
      </trkpt>
      <trkpt lat="42.87431" lon="-0.05656">
        <ele>1705</ele>
        <time>2011-04-09T05:10:28Z</time>
      </trkpt>
      <trkpt lat="42.87422" lon="-0.05656">
        <ele>1708</ele>
        <time>2011-04-09T05:10:46Z</time>
      </trkpt>
      <trkpt lat="42.87415" lon="-0.0566">
        <ele>1711</ele>
        <time>2011-04-09T05:11:05Z</time>
      </trkpt>
      <trkpt lat="42.87404" lon="-0.05665">
        <ele>1714</ele>
        <time>2011-04-09T05:11:26Z</time>
      </trkpt>
      <trkpt lat="42.87403" lon="-0.05664">
        <ele>1714</ele>
        <time>2011-04-09T05:11:27Z</time>
      </trkpt>
      <trkpt lat="42.87383" lon="-0.05676">
        <ele>1715</ele>
        <time>2011-04-09T05:11:49Z</time>
      </trkpt>
      <trkpt lat="42.87366" lon="-0.05687">
        <ele>1717</ele>
        <time>2011-04-09T05:12:11Z</time>
      </trkpt>
      <trkpt lat="42.87352" lon="-0.05698">
        <ele>1719</ele>
        <time>2011-04-09T05:12:32Z</time>
      </trkpt>
      <trkpt lat="42.87335" lon="-0.05709">
        <ele>1723</ele>
        <time>2011-04-09T05:12:56Z</time>
      </trkpt>
      <trkpt lat="42.87322" lon="-0.05716">
        <ele>1726</ele>
        <time>2011-04-09T05:13:19Z</time>
      </trkpt>
      <trkpt lat="42.8731" lon="-0.05725">
        <ele>1729</ele>
        <time>2011-04-09T05:13:40Z</time>
      </trkpt>
      <trkpt lat="42.87296" lon="-0.05725">
        <ele>1732</ele>
        <time>2011-04-09T05:14:01Z</time>
      </trkpt>
      <trkpt lat="42.8729" lon="-0.05729">
        <ele>1733</ele>
        <time>2011-04-09T05:14:14Z</time>
      </trkpt>
      <trkpt lat="42.87274" lon="-0.05729">
        <ele>1735</ele>
        <time>2011-04-09T05:14:32Z</time>
      </trkpt>
      <trkpt lat="42.87258" lon="-0.05724">
        <ele>1738</ele>
        <time>2011-04-09T05:14:52Z</time>
      </trkpt>
      <trkpt lat="42.87241" lon="-0.05728">
        <ele>1741</ele>
        <time>2011-04-09T05:15:13Z</time>
      </trkpt>
      <trkpt lat="42.87228" lon="-0.05741">
        <ele>1743</ele>
        <time>2011-04-09T05:15:35Z</time>
      </trkpt>
      <trkpt lat="42.87215" lon="-0.05754">
        <ele>1746</ele>
        <time>2011-04-09T05:15:58Z</time>
      </trkpt>
      <trkpt lat="42.87203" lon="-0.05758">
        <ele>1749</ele>
        <time>2011-04-09T05:16:19Z</time>
      </trkpt>
      <trkpt lat="42.87195" lon="-0.05762">
        <ele>1753</ele>
        <time>2011-04-09T05:16:33Z</time>
      </trkpt>
      <trkpt lat="42.87185" lon="-0.05761">
        <ele>1753</ele>
        <time>2011-04-09T05:16:47Z</time>
      </trkpt>
      <trkpt lat="42.87172" lon="-0.0576">
        <ele>1756</ele>
        <time>2011-04-09T05:17:06Z</time>
      </trkpt>
      <trkpt lat="42.8716" lon="-0.05758">
        <ele>1759</ele>
        <time>2011-04-09T05:17:27Z</time>
      </trkpt>
      <trkpt lat="42.87159" lon="-0.05762">
        <ele>1762</ele>
        <time>2011-04-09T05:17:44Z</time>
      </trkpt>
      <trkpt lat="42.8716" lon="-0.05771">
        <ele>1765</ele>
        <time>2011-04-09T05:17:59Z</time>
      </trkpt>
      <trkpt lat="42.87155" lon="-0.05773">
        <ele>1767</ele>
        <time>2011-04-09T05:18:15Z</time>
      </trkpt>
      <trkpt lat="42.87148" lon="-0.05771">
        <ele>1768</ele>
        <time>2011-04-09T05:18:30Z</time>
      </trkpt>
      <trkpt lat="42.87146" lon="-0.05772">
        <ele>1769</ele>
        <time>2011-04-09T05:18:32Z</time>
      </trkpt>
      <trkpt lat="42.87148" lon="-0.05776">
        <ele>1770</ele>
        <time>2011-04-09T05:18:43Z</time>
      </trkpt>
      <trkpt lat="42.87151" lon="-0.05783">
        <ele>1773</ele>
        <time>2011-04-09T05:18:55Z</time>
      </trkpt>
      <trkpt lat="42.87148" lon="-0.05785">
        <ele>1774</ele>
        <time>2011-04-09T05:19:07Z</time>
      </trkpt>
      <trkpt lat="42.87143" lon="-0.05787">
        <ele>1776</ele>
        <time>2011-04-09T05:19:19Z</time>
      </trkpt>
      <trkpt lat="42.87136" lon="-0.05788">
        <ele>1778</ele>
        <time>2011-04-09T05:19:32Z</time>
      </trkpt>
      <trkpt lat="42.87133" lon="-0.05787">
        <ele>1779</ele>
        <time>2011-04-09T05:19:39Z</time>
      </trkpt>
      <trkpt lat="42.87129" lon="-0.05792">
        <ele>1781</ele>
        <time>2011-04-09T05:19:52Z</time>
      </trkpt>
      <trkpt lat="42.8713" lon="-0.058">
        <ele>1784</ele>
        <time>2011-04-09T05:20:08Z</time>
      </trkpt>
      <trkpt lat="42.87134" lon="-0.05807">
        <ele>1786</ele>
        <time>2011-04-09T05:20:25Z</time>
      </trkpt>
      <trkpt lat="42.87126" lon="-0.05808">
        <ele>1788</ele>
        <time>2011-04-09T05:20:41Z</time>
      </trkpt>
      <trkpt lat="42.87117" lon="-0.05806">
        <ele>1790</ele>
        <time>2011-04-09T05:20:54Z</time>
      </trkpt>
      <trkpt lat="42.87109" lon="-0.05806">
        <ele>1792</ele>
        <time>2011-04-09T05:21:10Z</time>
      </trkpt>
      <trkpt lat="42.87106" lon="-0.05807">
        <ele>1793</ele>
        <time>2011-04-09T05:21:25Z</time>
      </trkpt>
      <trkpt lat="42.871" lon="-0.05807">
        <ele>1796</ele>
        <time>2011-04-09T05:21:38Z</time>
      </trkpt>
      <trkpt lat="42.87092" lon="-0.05809">
        <ele>1797</ele>
        <time>2011-04-09T05:21:52Z</time>
      </trkpt>
      <trkpt lat="42.87088" lon="-0.05812">
        <ele>1799</ele>
        <time>2011-04-09T05:22:04Z</time>
      </trkpt>
      <trkpt lat="42.87078" lon="-0.05813">
        <ele>1801</ele>
        <time>2011-04-09T05:22:19Z</time>
      </trkpt>
      <trkpt lat="42.87071" lon="-0.05819">
        <ele>1803</ele>
        <time>2011-04-09T05:22:33Z</time>
      </trkpt>
      <trkpt lat="42.87065" lon="-0.05828">
        <ele>1805</ele>
        <time>2011-04-09T05:22:49Z</time>
      </trkpt>
      <trkpt lat="42.8706" lon="-0.05834">
        <ele>1807</ele>
        <time>2011-04-09T05:23:04Z</time>
      </trkpt>
      <trkpt lat="42.87055" lon="-0.05837">
        <ele>1810</ele>
        <time>2011-04-09T05:23:21Z</time>
      </trkpt>
      <trkpt lat="42.87052" lon="-0.05841">
        <ele>1812</ele>
        <time>2011-04-09T05:23:34Z</time>
      </trkpt>
      <trkpt lat="42.87049" lon="-0.05843">
        <ele>1814</ele>
        <time>2011-04-09T05:23:46Z</time>
      </trkpt>
      <trkpt lat="42.87041" lon="-0.05843">
        <ele>1816</ele>
        <time>2011-04-09T05:24:00Z</time>
      </trkpt>
      <trkpt lat="42.87038" lon="-0.05845">
        <ele>1817</ele>
        <time>2011-04-09T05:24:12Z</time>
      </trkpt>
      <trkpt lat="42.87034" lon="-0.05849">
        <ele>1818</ele>
        <time>2011-04-09T05:24:26Z</time>
      </trkpt>
      <trkpt lat="42.87026" lon="-0.0585">
        <ele>1821</ele>
        <time>2011-04-09T05:24:39Z</time>
      </trkpt>
      <trkpt lat="42.87015" lon="-0.0585">
        <ele>1821</ele>
        <time>2011-04-09T05:24:54Z</time>
      </trkpt>
      <trkpt lat="42.87009" lon="-0.05869">
        <ele>1822</ele>
        <time>2011-04-09T05:25:11Z</time>
      </trkpt>
      <trkpt lat="42.87" lon="-0.05876">
        <ele>1824</ele>
        <time>2011-04-09T05:25:27Z</time>
      </trkpt>
      <trkpt lat="42.86998" lon="-0.05877">
        <ele>1821</ele>
        <time>2011-04-09T05:25:41Z</time>
      </trkpt>
      <trkpt lat="42.86999" lon="-0.05877">
        <ele>1824</ele>
        <time>2011-04-09T05:26:13Z</time>
      </trkpt>
      <trkpt lat="42.86998" lon="-0.05876">
        <ele>1823</ele>
        <time>2011-04-09T05:28:37Z</time>
      </trkpt>
      <trkpt lat="42.86998" lon="-0.05876">
        <ele>1824</ele>
        <time>2011-04-09T05:28:51Z</time>
      </trkpt>
      <trkpt lat="42.86998" lon="-0.05875">
        <ele>1826</ele>
        <time>2011-04-09T05:32:01Z</time>
      </trkpt>
      <trkpt lat="42.86998" lon="-0.05875">
        <ele>1824</ele>
        <time>2011-04-09T05:32:05Z</time>
      </trkpt>
      <trkpt lat="42.86997" lon="-0.05876">
        <ele>1822</ele>
        <time>2011-04-09T05:32:42Z</time>
      </trkpt>
      <trkpt lat="42.86997" lon="-0.05876">
        <ele>1825</ele>
        <time>2011-04-09T05:32:44Z</time>
      </trkpt>
      <trkpt lat="42.86997" lon="-0.05876">
        <ele>1825</ele>
        <time>2011-04-09T05:32:45Z</time>
      </trkpt>
      <trkpt lat="42.86997" lon="-0.05876">
        <ele>1823</ele>
        <time>2011-04-09T05:32:47Z</time>
      </trkpt>
      <trkpt lat="42.86996" lon="-0.05875">
        <ele>1825</ele>
        <time>2011-04-09T05:33:50Z</time>
      </trkpt>
      <trkpt lat="42.86995" lon="-0.05873">
        <ele>1824</ele>
        <time>2011-04-09T05:34:59Z</time>
      </trkpt>
      <trkpt lat="42.86996" lon="-0.05873">
        <ele>1826</ele>
        <time>2011-04-09T05:35:01Z</time>
      </trkpt>
      <trkpt lat="42.86995" lon="-0.05871">
        <ele>1827</ele>
        <time>2011-04-09T05:35:14Z</time>
      </trkpt>
      <trkpt lat="42.86995" lon="-0.05872">
        <ele>1828</ele>
        <time>2011-04-09T05:35:55Z</time>
      </trkpt>
      <trkpt lat="42.86995" lon="-0.05874">
        <ele>1828</ele>
        <time>2011-04-09T05:36:10Z</time>
      </trkpt>
      <trkpt lat="42.86994" lon="-0.05876">
        <ele>1828</ele>
        <time>2011-04-09T05:36:25Z</time>
      </trkpt>
      <trkpt lat="42.86994" lon="-0.05875">
        <ele>1827</ele>
        <time>2011-04-09T05:36:46Z</time>
      </trkpt>
      <trkpt lat="42.86995" lon="-0.05875">
        <ele>1828</ele>
        <time>2011-04-09T05:36:55Z</time>
      </trkpt>
      <trkpt lat="42.86987" lon="-0.05885">
        <ele>1829</ele>
        <time>2011-04-09T05:37:19Z</time>
      </trkpt>
      <trkpt lat="42.86973" lon="-0.0589">
        <ele>1829</ele>
        <time>2011-04-09T05:37:41Z</time>
      </trkpt>
      <trkpt lat="42.86962" lon="-0.05894">
        <ele>1832</ele>
        <time>2011-04-09T05:37:57Z</time>
      </trkpt>
      <trkpt lat="42.8695" lon="-0.05893">
        <ele>1835</ele>
        <time>2011-04-09T05:38:15Z</time>
      </trkpt>
      <trkpt lat="42.86942" lon="-0.05892">
        <ele>1838</ele>
        <time>2011-04-09T05:38:29Z</time>
      </trkpt>
      <trkpt lat="42.86929" lon="-0.05887">
        <ele>1841</ele>
        <time>2011-04-09T05:38:53Z</time>
      </trkpt>
      <trkpt lat="42.86917" lon="-0.05884">
        <ele>1844</ele>
        <time>2011-04-09T05:39:12Z</time>
      </trkpt>
      <trkpt lat="42.86911" lon="-0.05881">
        <ele>1844</ele>
        <time>2011-04-09T05:39:34Z</time>
      </trkpt>
      <trkpt lat="42.86903" lon="-0.0588">
        <ele>1847</ele>
        <time>2011-04-09T05:40:36Z</time>
      </trkpt>
      <trkpt lat="42.86886" lon="-0.05869">
        <ele>1849</ele>
        <time>2011-04-09T05:40:56Z</time>
      </trkpt>
      <trkpt lat="42.86866" lon="-0.05854">
        <ele>1850</ele>
        <time>2011-04-09T05:41:20Z</time>
      </trkpt>
      <trkpt lat="42.86854" lon="-0.05835">
        <ele>1848</ele>
        <time>2011-04-09T05:41:34Z</time>
      </trkpt>
      <trkpt lat="42.86852" lon="-0.05826">
        <ele>1849</ele>
        <time>2011-04-09T05:41:50Z</time>
      </trkpt>
      <trkpt lat="42.86852" lon="-0.05826">
        <ele>1850</ele>
        <time>2011-04-09T05:42:27Z</time>
      </trkpt>
      <trkpt lat="42.86841" lon="-0.05822">
        <ele>1853</ele>
        <time>2011-04-09T05:42:39Z</time>
      </trkpt>
      <trkpt lat="42.86839" lon="-0.05821">
        <ele>1853</ele>
        <time>2011-04-09T05:42:41Z</time>
      </trkpt>
      <trkpt lat="42.86825" lon="-0.05818">
        <ele>1855</ele>
        <time>2011-04-09T05:42:54Z</time>
      </trkpt>
      <trkpt lat="42.86814" lon="-0.05809">
        <ele>1858</ele>
        <time>2011-04-09T05:43:09Z</time>
      </trkpt>
      <trkpt lat="42.86791" lon="-0.05797">
        <ele>1860</ele>
        <time>2011-04-09T05:43:32Z</time>
      </trkpt>
      <trkpt lat="42.86772" lon="-0.05788">
        <ele>1861</ele>
        <time>2011-04-09T05:43:52Z</time>
      </trkpt>
      <trkpt lat="42.86774" lon="-0.05766">
        <ele>1863</ele>
        <time>2011-04-09T05:44:10Z</time>
      </trkpt>
      <trkpt lat="42.86773" lon="-0.05755">
        <ele>1866</ele>
        <time>2011-04-09T05:44:23Z</time>
      </trkpt>
      <trkpt lat="42.86767" lon="-0.05756">
        <ele>1869</ele>
        <time>2011-04-09T05:44:34Z</time>
      </trkpt>
      <trkpt lat="42.8676" lon="-0.05755">
        <ele>1869</ele>
        <time>2011-04-09T05:44:51Z</time>
      </trkpt>
      <trkpt lat="42.86754" lon="-0.05756">
        <ele>1871</ele>
        <time>2011-04-09T05:45:11Z</time>
      </trkpt>
      <trkpt lat="42.86746" lon="-0.05753">
        <ele>1874</ele>
        <time>2011-04-09T05:45:25Z</time>
      </trkpt>
      <trkpt lat="42.86739" lon="-0.05735">
        <ele>1878</ele>
        <time>2011-04-09T05:45:44Z</time>
      </trkpt>
      <trkpt lat="42.86738" lon="-0.05716">
        <ele>1880</ele>
        <time>2011-04-09T05:46:07Z</time>
      </trkpt>
      <trkpt lat="42.86728" lon="-0.05726">
        <ele>1882</ele>
        <time>2011-04-09T05:46:28Z</time>
      </trkpt>
      <trkpt lat="42.86726" lon="-0.05718">
        <ele>1884</ele>
        <time>2011-04-09T05:46:44Z</time>
      </trkpt>
      <trkpt lat="42.86727" lon="-0.05703">
        <ele>1887</ele>
        <time>2011-04-09T05:47:03Z</time>
      </trkpt>
      <trkpt lat="42.86724" lon="-0.05698">
        <ele>1890</ele>
        <time>2011-04-09T05:47:16Z</time>
      </trkpt>
      <trkpt lat="42.86721" lon="-0.05691">
        <ele>1892</ele>
        <time>2011-04-09T05:47:31Z</time>
      </trkpt>
      <trkpt lat="42.8672" lon="-0.05686">
        <ele>1893</ele>
        <time>2011-04-09T05:47:43Z</time>
      </trkpt>
      <trkpt lat="42.86711" lon="-0.05694">
        <ele>1895</ele>
        <time>2011-04-09T05:47:58Z</time>
      </trkpt>
      <trkpt lat="42.86705" lon="-0.05698">
        <ele>1898</ele>
        <time>2011-04-09T05:48:18Z</time>
      </trkpt>
      <trkpt lat="42.86704" lon="-0.05681">
        <ele>1901</ele>
        <time>2011-04-09T05:48:37Z</time>
      </trkpt>
      <trkpt lat="42.86703" lon="-0.05681">
        <ele>1903</ele>
        <time>2011-04-09T05:48:53Z</time>
      </trkpt>
      <trkpt lat="42.86692" lon="-0.05693">
        <ele>1905</ele>
        <time>2011-04-09T05:49:14Z</time>
      </trkpt>
      <trkpt lat="42.8669" lon="-0.05694">
        <ele>1908</ele>
        <time>2011-04-09T05:49:28Z</time>
      </trkpt>
      <trkpt lat="42.86688" lon="-0.05676">
        <ele>1910</ele>
        <time>2011-04-09T05:49:50Z</time>
      </trkpt>
      <trkpt lat="42.86684" lon="-0.05679">
        <ele>1912</ele>
        <time>2011-04-09T05:50:01Z</time>
      </trkpt>
      <trkpt lat="42.86682" lon="-0.05684">
        <ele>1912</ele>
        <time>2011-04-09T05:50:19Z</time>
      </trkpt>
      <trkpt lat="42.86681" lon="-0.05689">
        <ele>1913</ele>
        <time>2011-04-09T05:50:31Z</time>
      </trkpt>
      <trkpt lat="42.86679" lon="-0.05685">
        <ele>1915</ele>
        <time>2011-04-09T05:50:40Z</time>
      </trkpt>
      <trkpt lat="42.86677" lon="-0.05677">
        <ele>1916</ele>
        <time>2011-04-09T05:50:53Z</time>
      </trkpt>
      <trkpt lat="42.86676" lon="-0.05671">
        <ele>1917</ele>
        <time>2011-04-09T05:51:08Z</time>
      </trkpt>
      <trkpt lat="42.86674" lon="-0.0567">
        <ele>1918</ele>
        <time>2011-04-09T05:51:27Z</time>
      </trkpt>
      <trkpt lat="42.86669" lon="-0.05674">
        <ele>1921</ele>
        <time>2011-04-09T05:51:44Z</time>
      </trkpt>
      <trkpt lat="42.86669" lon="-0.05662">
        <ele>1923</ele>
        <time>2011-04-09T05:52:05Z</time>
      </trkpt>
      <trkpt lat="42.86669" lon="-0.0565">
        <ele>1926</ele>
        <time>2011-04-09T05:52:46Z</time>
      </trkpt>
      <trkpt lat="42.86669" lon="-0.05632">
        <ele>1929</ele>
        <time>2011-04-09T05:53:01Z</time>
      </trkpt>
      <trkpt lat="42.86666" lon="-0.05613">
        <ele>1932</ele>
        <time>2011-04-09T05:53:21Z</time>
      </trkpt>
      <trkpt lat="42.86664" lon="-0.05613">
        <ele>1934</ele>
        <time>2011-04-09T05:53:24Z</time>
      </trkpt>
      <trkpt lat="42.86651" lon="-0.05621">
        <ele>1935</ele>
        <time>2011-04-09T05:53:45Z</time>
      </trkpt>
      <trkpt lat="42.86648" lon="-0.05612">
        <ele>1938</ele>
        <time>2011-04-09T05:53:59Z</time>
      </trkpt>
      <trkpt lat="42.86641" lon="-0.05617">
        <ele>1940</ele>
        <time>2011-04-09T05:54:14Z</time>
      </trkpt>
      <trkpt lat="42.86639" lon="-0.05622">
        <ele>1942</ele>
        <time>2011-04-09T05:54:29Z</time>
      </trkpt>
      <trkpt lat="42.86631" lon="-0.05605">
        <ele>1944</ele>
        <time>2011-04-09T05:54:52Z</time>
      </trkpt>
      <trkpt lat="42.86633" lon="-0.056">
        <ele>1945</ele>
        <time>2011-04-09T05:55:08Z</time>
      </trkpt>
      <trkpt lat="42.86632" lon="-0.05598">
        <ele>1947</ele>
        <time>2011-04-09T05:55:20Z</time>
      </trkpt>
      <trkpt lat="42.86621" lon="-0.05612">
        <ele>1949</ele>
        <time>2011-04-09T05:55:41Z</time>
      </trkpt>
      <trkpt lat="42.86617" lon="-0.05607">
        <ele>1950</ele>
        <time>2011-04-09T05:55:54Z</time>
      </trkpt>
      <trkpt lat="42.86615" lon="-0.056">
        <ele>1952</ele>
        <time>2011-04-09T05:56:07Z</time>
      </trkpt>
      <trkpt lat="42.8661" lon="-0.05607">
        <ele>1954</ele>
        <time>2011-04-09T05:56:23Z</time>
      </trkpt>
      <trkpt lat="42.86599" lon="-0.05617">
        <ele>1957</ele>
        <time>2011-04-09T05:56:42Z</time>
      </trkpt>
      <trkpt lat="42.86588" lon="-0.05624">
        <ele>1960</ele>
        <time>2011-04-09T05:57:00Z</time>
      </trkpt>
      <trkpt lat="42.86587" lon="-0.05625">
        <ele>1961</ele>
        <time>2011-04-09T05:57:04Z</time>
      </trkpt>
      <trkpt lat="42.86579" lon="-0.05627">
        <ele>1966</ele>
        <time>2011-04-09T05:57:17Z</time>
      </trkpt>
      <trkpt lat="42.86578" lon="-0.05627">
        <ele>1966</ele>
        <time>2011-04-09T05:57:18Z</time>
      </trkpt>
      <trkpt lat="42.8657" lon="-0.0562">
        <ele>1966</ele>
        <time>2011-04-09T05:57:39Z</time>
      </trkpt>
      <trkpt lat="42.86567" lon="-0.05608">
        <ele>1968</ele>
        <time>2011-04-09T05:57:58Z</time>
      </trkpt>
      <trkpt lat="42.8656" lon="-0.05612">
        <ele>1970</ele>
        <time>2011-04-09T05:58:11Z</time>
      </trkpt>
      <trkpt lat="42.86552" lon="-0.05619">
        <ele>1973</ele>
        <time>2011-04-09T05:58:28Z</time>
      </trkpt>
      <trkpt lat="42.86548" lon="-0.05618">
        <ele>1974</ele>
        <time>2011-04-09T05:58:46Z</time>
      </trkpt>
      <trkpt lat="42.86543" lon="-0.05624">
        <ele>1975</ele>
        <time>2011-04-09T05:59:08Z</time>
      </trkpt>
      <trkpt lat="42.86531" lon="-0.05637">
        <ele>1977</ele>
        <time>2011-04-09T05:59:31Z</time>
      </trkpt>
      <trkpt lat="42.86518" lon="-0.05631">
        <ele>1980</ele>
        <time>2011-04-09T05:59:56Z</time>
      </trkpt>
      <trkpt lat="42.86515" lon="-0.05617">
        <ele>1983</ele>
        <time>2011-04-09T06:00:15Z</time>
      </trkpt>
      <trkpt lat="42.8651" lon="-0.05608">
        <ele>1987</ele>
        <time>2011-04-09T06:00:29Z</time>
      </trkpt>
      <trkpt lat="42.865" lon="-0.05609">
        <ele>1990</ele>
        <time>2011-04-09T06:00:50Z</time>
      </trkpt>
      <trkpt lat="42.8649" lon="-0.05605">
        <ele>1992</ele>
        <time>2011-04-09T06:01:08Z</time>
      </trkpt>
      <trkpt lat="42.86474" lon="-0.05606">
        <ele>1992</ele>
        <time>2011-04-09T06:01:25Z</time>
      </trkpt>
      <trkpt lat="42.86474" lon="-0.05608">
        <ele>1993</ele>
        <time>2011-04-09T06:01:53Z</time>
      </trkpt>
      <trkpt lat="42.86466" lon="-0.0561">
        <ele>1993</ele>
        <time>2011-04-09T06:02:39Z</time>
      </trkpt>
      <trkpt lat="42.86449" lon="-0.05614">
        <ele>1993</ele>
        <time>2011-04-09T06:02:55Z</time>
      </trkpt>
      <trkpt lat="42.86429" lon="-0.05605">
        <ele>1996</ele>
        <time>2011-04-09T06:03:21Z</time>
      </trkpt>
      <trkpt lat="42.86412" lon="-0.05601">
        <ele>1996</ele>
        <time>2011-04-09T06:03:41Z</time>
      </trkpt>
      <trkpt lat="42.86405" lon="-0.05597">
        <ele>1997</ele>
        <time>2011-04-09T06:04:01Z</time>
      </trkpt>
      <trkpt lat="42.864" lon="-0.05594">
        <ele>1996</ele>
        <time>2011-04-09T06:04:19Z</time>
      </trkpt>
      <trkpt lat="42.86393" lon="-0.05606">
        <ele>1999</ele>
        <time>2011-04-09T06:04:41Z</time>
      </trkpt>
      <trkpt lat="42.86392" lon="-0.0562">
        <ele>2000</ele>
        <time>2011-04-09T06:05:03Z</time>
      </trkpt>
      <trkpt lat="42.86389" lon="-0.05627">
        <ele>2004</ele>
        <time>2011-04-09T06:05:14Z</time>
      </trkpt>
      <trkpt lat="42.86388" lon="-0.05627">
        <ele>2004</ele>
        <time>2011-04-09T06:05:15Z</time>
      </trkpt>
      <trkpt lat="42.86376" lon="-0.05644">
        <ele>2005</ele>
        <time>2011-04-09T06:05:41Z</time>
      </trkpt>
      <trkpt lat="42.86365" lon="-0.05647">
        <ele>2006</ele>
        <time>2011-04-09T06:05:58Z</time>
      </trkpt>
      <trkpt lat="42.86345" lon="-0.05651">
        <ele>2007</ele>
        <time>2011-04-09T06:06:21Z</time>
      </trkpt>
      <trkpt lat="42.86332" lon="-0.05659">
        <ele>2010</ele>
        <time>2011-04-09T06:06:41Z</time>
      </trkpt>
      <trkpt lat="42.86309" lon="-0.05667">
        <ele>2013</ele>
        <time>2011-04-09T06:07:09Z</time>
      </trkpt>
      <trkpt lat="42.8627" lon="-0.05673">
        <ele>2015</ele>
        <time>2011-04-09T06:07:53Z</time>
      </trkpt>
      <trkpt lat="42.86252" lon="-0.05675">
        <ele>2014</ele>
        <time>2011-04-09T06:08:14Z</time>
      </trkpt>
      <trkpt lat="42.86225" lon="-0.05679">
        <ele>2014</ele>
        <time>2011-04-09T06:08:42Z</time>
      </trkpt>
      <trkpt lat="42.86203" lon="-0.05682">
        <ele>2017</ele>
        <time>2011-04-09T06:09:05Z</time>
      </trkpt>
      <trkpt lat="42.8618" lon="-0.05683">
        <ele>2018</ele>
        <time>2011-04-09T06:09:34Z</time>
      </trkpt>
      <trkpt lat="42.8616" lon="-0.0568">
        <ele>2020</ele>
        <time>2011-04-09T06:09:58Z</time>
      </trkpt>
      <trkpt lat="42.86145" lon="-0.05678">
        <ele>2023</ele>
        <time>2011-04-09T06:10:20Z</time>
      </trkpt>
      <trkpt lat="42.86133" lon="-0.05678">
        <ele>2024</ele>
        <time>2011-04-09T06:10:33Z</time>
      </trkpt>
      <trkpt lat="42.86115" lon="-0.05682">
        <ele>2023</ele>
        <time>2011-04-09T06:10:51Z</time>
      </trkpt>
      <trkpt lat="42.86099" lon="-0.05692">
        <ele>2026</ele>
        <time>2011-04-09T06:11:15Z</time>
      </trkpt>
      <trkpt lat="42.86079" lon="-0.05705">
        <ele>2029</ele>
        <time>2011-04-09T06:11:43Z</time>
      </trkpt>
      <trkpt lat="42.86066" lon="-0.05709">
        <ele>2031</ele>
        <time>2011-04-09T06:12:02Z</time>
      </trkpt>
      <trkpt lat="42.86052" lon="-0.05718">
        <ele>2034</ele>
        <time>2011-04-09T06:12:22Z</time>
      </trkpt>
      <trkpt lat="42.86045" lon="-0.05726">
        <ele>2035</ele>
        <time>2011-04-09T06:12:38Z</time>
      </trkpt>
      <trkpt lat="42.86021" lon="-0.05728">
        <ele>2037</ele>
        <time>2011-04-09T06:13:05Z</time>
      </trkpt>
      <trkpt lat="42.86019" lon="-0.05727">
        <ele>2037</ele>
        <time>2011-04-09T06:13:07Z</time>
      </trkpt>
      <trkpt lat="42.85997" lon="-0.05725">
        <ele>2035</ele>
        <time>2011-04-09T06:13:24Z</time>
      </trkpt>
      <trkpt lat="42.85983" lon="-0.05724">
        <ele>2033</ele>
        <time>2011-04-09T06:13:36Z</time>
      </trkpt>
      <trkpt lat="42.85966" lon="-0.05718">
        <ele>2034</ele>
        <time>2011-04-09T06:13:53Z</time>
      </trkpt>
      <trkpt lat="42.85939" lon="-0.05714">
        <ele>2032</ele>
        <time>2011-04-09T06:14:16Z</time>
      </trkpt>
      <trkpt lat="42.85916" lon="-0.05715">
        <ele>2034</ele>
        <time>2011-04-09T06:14:39Z</time>
      </trkpt>
      <trkpt lat="42.85899" lon="-0.05716">
        <ele>2037</ele>
        <time>2011-04-09T06:15:02Z</time>
      </trkpt>
      <trkpt lat="42.85882" lon="-0.05721">
        <ele>2040</ele>
        <time>2011-04-09T06:15:25Z</time>
      </trkpt>
      <trkpt lat="42.85868" lon="-0.05725">
        <ele>2041</ele>
        <time>2011-04-09T06:15:51Z</time>
      </trkpt>
      <trkpt lat="42.85859" lon="-0.05735">
        <ele>2043</ele>
        <time>2011-04-09T06:16:09Z</time>
      </trkpt>
      <trkpt lat="42.8585" lon="-0.05748">
        <ele>2046</ele>
        <time>2011-04-09T06:16:34Z</time>
      </trkpt>
      <trkpt lat="42.8585" lon="-0.05748">
        <ele>2046</ele>
        <time>2011-04-09T06:17:06Z</time>
      </trkpt>
      <trkpt lat="42.85849" lon="-0.05751">
        <ele>2046</ele>
        <time>2011-04-09T06:17:58Z</time>
      </trkpt>
      <trkpt lat="42.85842" lon="-0.05764">
        <ele>2050</ele>
        <time>2011-04-09T06:18:14Z</time>
      </trkpt>
      <trkpt lat="42.85835" lon="-0.05777">
        <ele>2053</ele>
        <time>2011-04-09T06:18:32Z</time>
      </trkpt>
      <trkpt lat="42.85822" lon="-0.05776">
        <ele>2056</ele>
        <time>2011-04-09T06:18:53Z</time>
      </trkpt>
      <trkpt lat="42.85809" lon="-0.0577">
        <ele>2059</ele>
        <time>2011-04-09T06:19:12Z</time>
      </trkpt>
      <trkpt lat="42.85796" lon="-0.05774">
        <ele>2062</ele>
        <time>2011-04-09T06:19:36Z</time>
      </trkpt>
      <trkpt lat="42.85785" lon="-0.0578">
        <ele>2065</ele>
        <time>2011-04-09T06:19:58Z</time>
      </trkpt>
      <trkpt lat="42.85767" lon="-0.0579">
        <ele>2068</ele>
        <time>2011-04-09T06:20:23Z</time>
      </trkpt>
      <trkpt lat="42.85759" lon="-0.05789">
        <ele>2070</ele>
        <time>2011-04-09T06:20:45Z</time>
      </trkpt>
      <trkpt lat="42.85747" lon="-0.05799">
        <ele>2073</ele>
        <time>2011-04-09T06:21:08Z</time>
      </trkpt>
      <trkpt lat="42.8573" lon="-0.05809">
        <ele>2077</ele>
        <time>2011-04-09T06:21:33Z</time>
      </trkpt>
      <trkpt lat="42.8571" lon="-0.05817">
        <ele>2080</ele>
        <time>2011-04-09T06:21:58Z</time>
      </trkpt>
      <trkpt lat="42.85693" lon="-0.05823">
        <ele>2083</ele>
        <time>2011-04-09T06:22:22Z</time>
      </trkpt>
      <trkpt lat="42.85668" lon="-0.05832">
        <ele>2084</ele>
        <time>2011-04-09T06:22:49Z</time>
      </trkpt>
      <trkpt lat="42.85648" lon="-0.05838">
        <ele>2086</ele>
        <time>2011-04-09T06:23:14Z</time>
      </trkpt>
      <trkpt lat="42.85625" lon="-0.05843">
        <ele>2088</ele>
        <time>2011-04-09T06:23:39Z</time>
      </trkpt>
      <trkpt lat="42.85602" lon="-0.05847">
        <ele>2089</ele>
        <time>2011-04-09T06:24:02Z</time>
      </trkpt>
      <trkpt lat="42.85579" lon="-0.05851">
        <ele>2091</ele>
        <time>2011-04-09T06:24:27Z</time>
      </trkpt>
      <trkpt lat="42.85553" lon="-0.05857">
        <ele>2092</ele>
        <time>2011-04-09T06:24:57Z</time>
      </trkpt>
      <trkpt lat="42.85532" lon="-0.05864">
        <ele>2095</ele>
        <time>2011-04-09T06:25:21Z</time>
      </trkpt>
      <trkpt lat="42.85514" lon="-0.05872">
        <ele>2098</ele>
        <time>2011-04-09T06:25:45Z</time>
      </trkpt>
      <trkpt lat="42.85498" lon="-0.05879">
        <ele>2101</ele>
        <time>2011-04-09T06:26:09Z</time>
      </trkpt>
      <trkpt lat="42.8548" lon="-0.05888">
        <ele>2104</ele>
        <time>2011-04-09T06:26:36Z</time>
      </trkpt>
      <trkpt lat="42.85471" lon="-0.05893">
        <ele>2108</ele>
        <time>2011-04-09T06:26:53Z</time>
      </trkpt>
      <trkpt lat="42.85462" lon="-0.05899">
        <ele>2111</ele>
        <time>2011-04-09T06:27:11Z</time>
      </trkpt>
      <trkpt lat="42.85453" lon="-0.05908">
        <ele>2114</ele>
        <time>2011-04-09T06:27:29Z</time>
      </trkpt>
      <trkpt lat="42.85443" lon="-0.05917">
        <ele>2117</ele>
        <time>2011-04-09T06:27:50Z</time>
      </trkpt>
      <trkpt lat="42.85432" lon="-0.05922">
        <ele>2120</ele>
        <time>2011-04-09T06:28:07Z</time>
      </trkpt>
      <trkpt lat="42.8542" lon="-0.05924">
        <ele>2124</ele>
        <time>2011-04-09T06:28:27Z</time>
      </trkpt>
      <trkpt lat="42.85406" lon="-0.05926">
        <ele>2127</ele>
        <time>2011-04-09T06:28:50Z</time>
      </trkpt>
      <trkpt lat="42.85396" lon="-0.05928">
        <ele>2130</ele>
        <time>2011-04-09T06:29:05Z</time>
      </trkpt>
      <trkpt lat="42.85375" lon="-0.05934">
        <ele>2133</ele>
        <time>2011-04-09T06:29:39Z</time>
      </trkpt>
      <trkpt lat="42.85359" lon="-0.05941">
        <ele>2136</ele>
        <time>2011-04-09T06:30:05Z</time>
      </trkpt>
      <trkpt lat="42.85349" lon="-0.05942">
        <ele>2139</ele>
        <time>2011-04-09T06:30:20Z</time>
      </trkpt>
      <trkpt lat="42.85334" lon="-0.0595">
        <ele>2141</ele>
        <time>2011-04-09T06:30:50Z</time>
      </trkpt>
      <trkpt lat="42.85337" lon="-0.05963">
        <ele>2145</ele>
        <time>2011-04-09T06:31:07Z</time>
      </trkpt>
      <trkpt lat="42.85324" lon="-0.05963">
        <ele>2147</ele>
        <time>2011-04-09T06:31:29Z</time>
      </trkpt>
      <trkpt lat="42.85314" lon="-0.05961">
        <ele>2151</ele>
        <time>2011-04-09T06:31:49Z</time>
      </trkpt>
      <trkpt lat="42.85305" lon="-0.05957">
        <ele>2154</ele>
        <time>2011-04-09T06:32:07Z</time>
      </trkpt>
      <trkpt lat="42.85295" lon="-0.05956">
        <ele>2157</ele>
        <time>2011-04-09T06:32:26Z</time>
      </trkpt>
      <trkpt lat="42.85294" lon="-0.05964">
        <ele>2158</ele>
        <time>2011-04-09T06:32:54Z</time>
      </trkpt>
      <trkpt lat="42.85293" lon="-0.05976">
        <ele>2161</ele>
        <time>2011-04-09T06:33:12Z</time>
      </trkpt>
      <trkpt lat="42.85293" lon="-0.05991">
        <ele>2164</ele>
        <time>2011-04-09T06:33:35Z</time>
      </trkpt>
      <trkpt lat="42.85281" lon="-0.05991">
        <ele>2167</ele>
        <time>2011-04-09T06:33:54Z</time>
      </trkpt>
      <trkpt lat="42.85272" lon="-0.0599">
        <ele>2170</ele>
        <time>2011-04-09T06:34:11Z</time>
      </trkpt>
      <trkpt lat="42.85265" lon="-0.05988">
        <ele>2173</ele>
        <time>2011-04-09T06:34:29Z</time>
      </trkpt>
      <trkpt lat="42.8527" lon="-0.06005">
        <ele>2176</ele>
        <time>2011-04-09T06:34:53Z</time>
      </trkpt>
      <trkpt lat="42.85265" lon="-0.06005">
        <ele>2178</ele>
        <time>2011-04-09T06:35:11Z</time>
      </trkpt>
      <trkpt lat="42.85254" lon="-0.06003">
        <ele>2182</ele>
        <time>2011-04-09T06:35:31Z</time>
      </trkpt>
      <trkpt lat="42.85245" lon="-0.06001">
        <ele>2185</ele>
        <time>2011-04-09T06:35:50Z</time>
      </trkpt>
      <trkpt lat="42.85239" lon="-0.06002">
        <ele>2188</ele>
        <time>2011-04-09T06:36:13Z</time>
      </trkpt>
      <trkpt lat="42.85241" lon="-0.0601">
        <ele>2189</ele>
        <time>2011-04-09T06:36:35Z</time>
      </trkpt>
      <trkpt lat="42.85245" lon="-0.06025">
        <ele>2191</ele>
        <time>2011-04-09T06:36:55Z</time>
      </trkpt>
      <trkpt lat="42.85243" lon="-0.0603">
        <ele>2193</ele>
        <time>2011-04-09T06:37:12Z</time>
      </trkpt>
      <trkpt lat="42.85235" lon="-0.06029">
        <ele>2196</ele>
        <time>2011-04-09T06:37:29Z</time>
      </trkpt>
      <trkpt lat="42.85235" lon="-0.06028">
        <ele>2196</ele>
        <time>2011-04-09T06:38:01Z</time>
      </trkpt>
      <trkpt lat="42.85227" lon="-0.06029">
        <ele>2200</ele>
        <time>2011-04-09T06:38:16Z</time>
      </trkpt>
      <trkpt lat="42.8522" lon="-0.06029">
        <ele>2203</ele>
        <time>2011-04-09T06:38:30Z</time>
      </trkpt>
      <trkpt lat="42.85213" lon="-0.06035">
        <ele>2205</ele>
        <time>2011-04-09T06:38:56Z</time>
      </trkpt>
      <trkpt lat="42.85217" lon="-0.06047">
        <ele>2209</ele>
        <time>2011-04-09T06:39:14Z</time>
      </trkpt>
      <trkpt lat="42.85222" lon="-0.0606">
        <ele>2212</ele>
        <time>2011-04-09T06:39:33Z</time>
      </trkpt>
      <trkpt lat="42.85223" lon="-0.06069">
        <ele>2215</ele>
        <time>2011-04-09T06:39:57Z</time>
      </trkpt>
      <trkpt lat="42.85213" lon="-0.06072">
        <ele>2217</ele>
        <time>2011-04-09T06:40:13Z</time>
      </trkpt>
      <trkpt lat="42.85204" lon="-0.0607">
        <ele>2220</ele>
        <time>2011-04-09T06:40:29Z</time>
      </trkpt>
      <trkpt lat="42.85199" lon="-0.06068">
        <ele>2222</ele>
        <time>2011-04-09T06:40:51Z</time>
      </trkpt>
      <trkpt lat="42.8519" lon="-0.06066">
        <ele>2226</ele>
        <time>2011-04-09T06:41:09Z</time>
      </trkpt>
      <trkpt lat="42.85178" lon="-0.06064">
        <ele>2228</ele>
        <time>2011-04-09T06:41:33Z</time>
      </trkpt>
      <trkpt lat="42.8518" lon="-0.06068">
        <ele>2229</ele>
        <time>2011-04-09T06:41:51Z</time>
      </trkpt>
      <trkpt lat="42.85184" lon="-0.06084">
        <ele>2233</ele>
        <time>2011-04-09T06:42:12Z</time>
      </trkpt>
      <trkpt lat="42.85182" lon="-0.06088">
        <ele>2234</ele>
        <time>2011-04-09T06:42:29Z</time>
      </trkpt>
      <trkpt lat="42.85171" lon="-0.06086">
        <ele>2237</ele>
        <time>2011-04-09T06:42:46Z</time>
      </trkpt>
      <trkpt lat="42.85162" lon="-0.06083">
        <ele>2240</ele>
        <time>2011-04-09T06:43:03Z</time>
      </trkpt>
      <trkpt lat="42.85159" lon="-0.06082">
        <ele>2242</ele>
        <time>2011-04-09T06:43:21Z</time>
      </trkpt>
      <trkpt lat="42.85158" lon="-0.06082">
        <ele>2242</ele>
        <time>2011-04-09T06:43:38Z</time>
      </trkpt>
      <trkpt lat="42.85153" lon="-0.06081">
        <ele>2244</ele>
        <time>2011-04-09T06:44:15Z</time>
      </trkpt>
      <trkpt lat="42.85144" lon="-0.06078">
        <ele>2248</ele>
        <time>2011-04-09T06:44:42Z</time>
      </trkpt>
      <trkpt lat="42.85146" lon="-0.06093">
        <ele>2251</ele>
        <time>2011-04-09T06:45:02Z</time>
      </trkpt>
      <trkpt lat="42.8515" lon="-0.06102">
        <ele>2253</ele>
        <time>2011-04-09T06:45:15Z</time>
      </trkpt>
      <trkpt lat="42.8515" lon="-0.06109">
        <ele>2255</ele>
        <time>2011-04-09T06:45:33Z</time>
      </trkpt>
      <trkpt lat="42.8514" lon="-0.06105">
        <ele>2258</ele>
        <time>2011-04-09T06:45:49Z</time>
      </trkpt>
      <trkpt lat="42.85134" lon="-0.06105">
        <ele>2259</ele>
        <time>2011-04-09T06:46:06Z</time>
      </trkpt>
      <trkpt lat="42.85127" lon="-0.061">
        <ele>2262</ele>
        <time>2011-04-09T06:46:22Z</time>
      </trkpt>
      <trkpt lat="42.85118" lon="-0.06094">
        <ele>2265</ele>
        <time>2011-04-09T06:46:38Z</time>
      </trkpt>
      <trkpt lat="42.85113" lon="-0.06091">
        <ele>2267</ele>
        <time>2011-04-09T06:46:56Z</time>
      </trkpt>
      <trkpt lat="42.85106" lon="-0.06086">
        <ele>2270</ele>
        <time>2011-04-09T06:47:11Z</time>
      </trkpt>
      <trkpt lat="42.85096" lon="-0.06082">
        <ele>2272</ele>
        <time>2011-04-09T06:47:31Z</time>
      </trkpt>
      <trkpt lat="42.85088" lon="-0.06077">
        <ele>2275</ele>
        <time>2011-04-09T06:47:50Z</time>
      </trkpt>
      <trkpt lat="42.8508" lon="-0.06072">
        <ele>2278</ele>
        <time>2011-04-09T06:48:06Z</time>
      </trkpt>
      <trkpt lat="42.85075" lon="-0.06068">
        <ele>2280</ele>
        <time>2011-04-09T06:48:23Z</time>
      </trkpt>
      <trkpt lat="42.85068" lon="-0.06059">
        <ele>2283</ele>
        <time>2011-04-09T06:48:52Z</time>
      </trkpt>
      <trkpt lat="42.85061" lon="-0.06047">
        <ele>2287</ele>
        <time>2011-04-09T06:49:13Z</time>
      </trkpt>
      <trkpt lat="42.85058" lon="-0.06043">
        <ele>2288</ele>
        <time>2011-04-09T06:49:34Z</time>
      </trkpt>
      <trkpt lat="42.85053" lon="-0.06034">
        <ele>2291</ele>
        <time>2011-04-09T06:49:50Z</time>
      </trkpt>
      <trkpt lat="42.85051" lon="-0.06038">
        <ele>2292</ele>
        <time>2011-04-09T06:50:09Z</time>
      </trkpt>
      <trkpt lat="42.85048" lon="-0.06054">
        <ele>2296</ele>
        <time>2011-04-09T06:50:29Z</time>
      </trkpt>
      <trkpt lat="42.85047" lon="-0.06064">
        <ele>2299</ele>
        <time>2011-04-09T06:50:46Z</time>
      </trkpt>
      <trkpt lat="42.85043" lon="-0.0606">
        <ele>2300</ele>
        <time>2011-04-09T06:51:01Z</time>
      </trkpt>
      <trkpt lat="42.85037" lon="-0.06053">
        <ele>2303</ele>
        <time>2011-04-09T06:51:16Z</time>
      </trkpt>
      <trkpt lat="42.85032" lon="-0.06044">
        <ele>2304</ele>
        <time>2011-04-09T06:51:32Z</time>
      </trkpt>
      <trkpt lat="42.85024" lon="-0.06031">
        <ele>2307</ele>
        <time>2011-04-09T06:51:52Z</time>
      </trkpt>
      <trkpt lat="42.85019" lon="-0.06019">
        <ele>2310</ele>
        <time>2011-04-09T06:52:13Z</time>
      </trkpt>
      <trkpt lat="42.85013" lon="-0.06009">
        <ele>2313</ele>
        <time>2011-04-09T06:52:30Z</time>
      </trkpt>
      <trkpt lat="42.85007" lon="-0.05997">
        <ele>2316</ele>
        <time>2011-04-09T06:52:51Z</time>
      </trkpt>
      <trkpt lat="42.85005" lon="-0.05989">
        <ele>2318</ele>
        <time>2011-04-09T06:53:11Z</time>
      </trkpt>
      <trkpt lat="42.85003" lon="-0.05974">
        <ele>2321</ele>
        <time>2011-04-09T06:53:30Z</time>
      </trkpt>
      <trkpt lat="42.85002" lon="-0.05971">
        <ele>2322</ele>
        <time>2011-04-09T06:54:05Z</time>
      </trkpt>
      <trkpt lat="42.85003" lon="-0.05965">
        <ele>2324</ele>
        <time>2011-04-09T06:54:22Z</time>
      </trkpt>
      <trkpt lat="42.85003" lon="-0.05952">
        <ele>2327</ele>
        <time>2011-04-09T06:54:37Z</time>
      </trkpt>
      <trkpt lat="42.85001" lon="-0.0594">
        <ele>2330</ele>
        <time>2011-04-09T06:54:54Z</time>
      </trkpt>
      <trkpt lat="42.84998" lon="-0.05926">
        <ele>2333</ele>
        <time>2011-04-09T06:55:15Z</time>
      </trkpt>
      <trkpt lat="42.84997" lon="-0.05918">
        <ele>2337</ele>
        <time>2011-04-09T06:55:28Z</time>
      </trkpt>
      <trkpt lat="42.84989" lon="-0.05906">
        <ele>2339</ele>
        <time>2011-04-09T06:55:52Z</time>
      </trkpt>
      <trkpt lat="42.84982" lon="-0.05903">
        <ele>2343</ele>
        <time>2011-04-09T06:56:12Z</time>
      </trkpt>
      <trkpt lat="42.84973" lon="-0.05915">
        <ele>2346</ele>
        <time>2011-04-09T06:56:33Z</time>
      </trkpt>
      <trkpt lat="42.84964" lon="-0.05924">
        <ele>2350</ele>
        <time>2011-04-09T06:56:58Z</time>
      </trkpt>
      <trkpt lat="42.84958" lon="-0.05913">
        <ele>2352</ele>
        <time>2011-04-09T06:57:19Z</time>
      </trkpt>
      <trkpt lat="42.84953" lon="-0.05902">
        <ele>2356</ele>
        <time>2011-04-09T06:57:36Z</time>
      </trkpt>
      <trkpt lat="42.8495" lon="-0.05907">
        <ele>2358</ele>
        <time>2011-04-09T06:57:50Z</time>
      </trkpt>
      <trkpt lat="42.84949" lon="-0.05907">
        <ele>2359</ele>
        <time>2011-04-09T06:58:39Z</time>
      </trkpt>
      <trkpt lat="42.84941" lon="-0.05913">
        <ele>2362</ele>
        <time>2011-04-09T06:58:58Z</time>
      </trkpt>
      <trkpt lat="42.84934" lon="-0.05913">
        <ele>2365</ele>
        <time>2011-04-09T06:59:11Z</time>
      </trkpt>
      <trkpt lat="42.84934" lon="-0.05914">
        <ele>2365</ele>
        <time>2011-04-09T06:59:29Z</time>
      </trkpt>
      <trkpt lat="42.84929" lon="-0.0592">
        <ele>2366</ele>
        <time>2011-04-09T06:59:43Z</time>
      </trkpt>
      <trkpt lat="42.84922" lon="-0.05937">
        <ele>2369</ele>
        <time>2011-04-09T07:00:05Z</time>
      </trkpt>
      <trkpt lat="42.84921" lon="-0.05941">
        <ele>2369</ele>
        <time>2011-04-09T07:00:09Z</time>
      </trkpt>
      <trkpt lat="42.84904" lon="-0.05964">
        <ele>2370</ele>
        <time>2011-04-09T07:00:36Z</time>
      </trkpt>
      <trkpt lat="42.84893" lon="-0.05975">
        <ele>2372</ele>
        <time>2011-04-09T07:00:56Z</time>
      </trkpt>
      <trkpt lat="42.84883" lon="-0.05988">
        <ele>2376</ele>
        <time>2011-04-09T07:01:16Z</time>
      </trkpt>
      <trkpt lat="42.84878" lon="-0.05995">
        <ele>2378</ele>
        <time>2011-04-09T07:01:30Z</time>
      </trkpt>
      <trkpt lat="42.84866" lon="-0.0601">
        <ele>2379</ele>
        <time>2011-04-09T07:01:54Z</time>
      </trkpt>
      <trkpt lat="42.84858" lon="-0.06016">
        <ele>2383</ele>
        <time>2011-04-09T07:02:09Z</time>
      </trkpt>
      <trkpt lat="42.84846" lon="-0.06016">
        <ele>2385</ele>
        <time>2011-04-09T07:02:32Z</time>
      </trkpt>
      <trkpt lat="42.84845" lon="-0.06014">
        <ele>2385</ele>
        <time>2011-04-09T07:03:12Z</time>
      </trkpt>
      <trkpt lat="42.84841" lon="-0.06006">
        <ele>2388</ele>
        <time>2011-04-09T07:03:42Z</time>
      </trkpt>
      <trkpt lat="42.84833" lon="-0.05993">
        <ele>2389</ele>
        <time>2011-04-09T07:03:56Z</time>
      </trkpt>
      <trkpt lat="42.84826" lon="-0.05977">
        <ele>2389</ele>
        <time>2011-04-09T07:04:09Z</time>
      </trkpt>
      <trkpt lat="42.84811" lon="-0.05968">
        <ele>2388</ele>
        <time>2011-04-09T07:04:15Z</time>
      </trkpt>
      <trkpt lat="42.84808" lon="-0.05967">
        <ele>2387</ele>
        <time>2011-04-09T07:04:17Z</time>
      </trkpt>
      <trkpt lat="42.8479" lon="-0.05974">
        <ele>2390</ele>
        <time>2011-04-09T07:04:44Z</time>
      </trkpt>
      <trkpt lat="42.84776" lon="-0.0598">
        <ele>2393</ele>
        <time>2011-04-09T07:05:07Z</time>
      </trkpt>
      <trkpt lat="42.8477" lon="-0.05986">
        <ele>2397</ele>
        <time>2011-04-09T07:05:21Z</time>
      </trkpt>
      <trkpt lat="42.84764" lon="-0.05998">
        <ele>2400</ele>
        <time>2011-04-09T07:05:49Z</time>
      </trkpt>
      <trkpt lat="42.84753" lon="-0.06015">
        <ele>2403</ele>
        <time>2011-04-09T07:06:14Z</time>
      </trkpt>
      <trkpt lat="42.84746" lon="-0.06024">
        <ele>2405</ele>
        <time>2011-04-09T07:06:39Z</time>
      </trkpt>
      <trkpt lat="42.84742" lon="-0.06022">
        <ele>2406</ele>
        <time>2011-04-09T07:06:45Z</time>
      </trkpt>
      <trkpt lat="42.84732" lon="-0.06">
        <ele>2404</ele>
        <time>2011-04-09T07:07:01Z</time>
      </trkpt>
      <trkpt lat="42.84728" lon="-0.05998">
        <ele>2404</ele>
        <time>2011-04-09T07:07:06Z</time>
      </trkpt>
      <trkpt lat="42.84722" lon="-0.06">
        <ele>2404</ele>
        <time>2011-04-09T07:07:10Z</time>
      </trkpt>
      <trkpt lat="42.84706" lon="-0.06012">
        <ele>2401</ele>
        <time>2011-04-09T07:07:16Z</time>
      </trkpt>
      <trkpt lat="42.84702" lon="-0.06015">
        <ele>2401</ele>
        <time>2011-04-09T07:07:18Z</time>
      </trkpt>
      <trkpt lat="42.84699" lon="-0.06033">
        <ele>2403</ele>
        <time>2011-04-09T07:07:38Z</time>
      </trkpt>
      <trkpt lat="42.84694" lon="-0.06047">
        <ele>2407</ele>
        <time>2011-04-09T07:07:58Z</time>
      </trkpt>
      <trkpt lat="42.84689" lon="-0.06068">
        <ele>2410</ele>
        <time>2011-04-09T07:08:22Z</time>
      </trkpt>
      <trkpt lat="42.84683" lon="-0.06082">
        <ele>2411</ele>
        <time>2011-04-09T07:08:50Z</time>
      </trkpt>
      <trkpt lat="42.8468" lon="-0.06095">
        <ele>2411</ele>
        <time>2011-04-09T07:09:03Z</time>
      </trkpt>
      <trkpt lat="42.8468" lon="-0.06102">
        <ele>2412</ele>
        <time>2011-04-09T07:09:11Z</time>
      </trkpt>
      <trkpt lat="42.84683" lon="-0.06107">
        <ele>2411</ele>
        <time>2011-04-09T07:09:25Z</time>
      </trkpt>
      <trkpt lat="42.84683" lon="-0.06109">
        <ele>2410</ele>
        <time>2011-04-09T07:09:46Z</time>
      </trkpt>
      <trkpt lat="42.84683" lon="-0.06112">
        <ele>2411</ele>
        <time>2011-04-09T07:10:03Z</time>
      </trkpt>
      <trkpt lat="42.84684" lon="-0.06116">
        <ele>2410</ele>
        <time>2011-04-09T07:10:16Z</time>
      </trkpt>
      <trkpt lat="42.84684" lon="-0.06117">
        <ele>2410</ele>
        <time>2011-04-09T07:10:40Z</time>
      </trkpt>
      <trkpt lat="42.84684" lon="-0.06118">
        <ele>2410</ele>
        <time>2011-04-09T07:10:52Z</time>
      </trkpt>
      <trkpt lat="42.84683" lon="-0.06117">
        <ele>2408</ele>
        <time>2011-04-09T07:10:56Z</time>
      </trkpt>
      <trkpt lat="42.84684" lon="-0.06117">
        <ele>2409</ele>
        <time>2011-04-09T07:13:26Z</time>
      </trkpt>
      <trkpt lat="42.84684" lon="-0.06117">
        <ele>2413</ele>
        <time>2011-04-09T07:13:30Z</time>
      </trkpt>
      <trkpt lat="42.84684" lon="-0.06117">
        <ele>2413</ele>
        <time>2011-04-09T07:13:31Z</time>
      </trkpt>
      <trkpt lat="42.84684" lon="-0.06117">
        <ele>2414</ele>
        <time>2011-04-09T07:13:38Z</time>
      </trkpt>
      <trkpt lat="42.84684" lon="-0.06116">
        <ele>2411</ele>
        <time>2011-04-09T07:13:40Z</time>
      </trkpt>
      <trkpt lat="42.84684" lon="-0.06116">
        <ele>2409</ele>
        <time>2011-04-09T07:13:42Z</time>
      </trkpt>
      <trkpt lat="42.84684" lon="-0.06116">
        <ele>2412</ele>
        <time>2011-04-09T07:13:45Z</time>
      </trkpt>
      <trkpt lat="42.84684" lon="-0.06117">
        <ele>2408</ele>
        <time>2011-04-09T07:13:46Z</time>
      </trkpt>
      <trkpt lat="42.84684" lon="-0.06117">
        <ele>2408</ele>
        <time>2011-04-09T07:13:47Z</time>
      </trkpt>
      <trkpt lat="42.84684" lon="-0.06117">
        <ele>2411</ele>
        <time>2011-04-09T07:13:48Z</time>
      </trkpt>
      <trkpt lat="42.84684" lon="-0.06117">
        <ele>2411</ele>
        <time>2011-04-09T07:13:49Z</time>
      </trkpt>
      <trkpt lat="42.84683" lon="-0.06116">
        <ele>2413</ele>
        <time>2011-04-09T07:21:55Z</time>
      </trkpt>
      <trkpt lat="42.84683" lon="-0.06115">
        <ele>2414</ele>
        <time>2011-04-09T07:22:47Z</time>
      </trkpt>
      <trkpt lat="42.84683" lon="-0.06115">
        <ele>2415</ele>
        <time>2011-04-09T07:26:08Z</time>
      </trkpt>
      <trkpt lat="42.84683" lon="-0.06116">
        <ele>2411</ele>
        <time>2011-04-09T07:26:37Z</time>
      </trkpt>
      <trkpt lat="42.84684" lon="-0.06116">
        <ele>2411</ele>
        <time>2011-04-09T07:26:38Z</time>
      </trkpt>
      <trkpt lat="42.84684" lon="-0.06116">
        <ele>2414</ele>
        <time>2011-04-09T07:26:40Z</time>
      </trkpt>
      <trkpt lat="42.84685" lon="-0.06115">
        <ele>2411</ele>
        <time>2011-04-09T07:29:39Z</time>
      </trkpt>
      <trkpt lat="42.84685" lon="-0.06115">
        <ele>2413</ele>
        <time>2011-04-09T07:29:41Z</time>
      </trkpt>
      <trkpt lat="42.84684" lon="-0.06116">
        <ele>2414</ele>
        <time>2011-04-09T07:29:43Z</time>
      </trkpt>
      <trkpt lat="42.84685" lon="-0.06115">
        <ele>2415</ele>
        <time>2011-04-09T07:29:50Z</time>
      </trkpt>
      <trkpt lat="42.84685" lon="-0.06116">
        <ele>2414</ele>
        <time>2011-04-09T07:30:06Z</time>
      </trkpt>
      <trkpt lat="42.84684" lon="-0.06115">
        <ele>2415</ele>
        <time>2011-04-09T07:30:35Z</time>
      </trkpt>
      <trkpt lat="42.84683" lon="-0.06109">
        <ele>2415</ele>
        <time>2011-04-09T07:30:50Z</time>
      </trkpt>
      <trkpt lat="42.84683" lon="-0.06109">
        <ele>2414</ele>
        <time>2011-04-09T07:31:05Z</time>
      </trkpt>
      <trkpt lat="42.84683" lon="-0.06108">
        <ele>2417</ele>
        <time>2011-04-09T07:31:35Z</time>
      </trkpt>
      <trkpt lat="42.84681" lon="-0.06114">
        <ele>2416</ele>
        <time>2011-04-09T07:32:11Z</time>
      </trkpt>
      <trkpt lat="42.84678" lon="-0.06116">
        <ele>2416</ele>
        <time>2011-04-09T07:32:48Z</time>
      </trkpt>
      <trkpt lat="42.84657" lon="-0.0612">
        <ele>2419</ele>
        <time>2011-04-09T07:33:11Z</time>
      </trkpt>
      <trkpt lat="42.84656" lon="-0.0612">
        <ele>2419</ele>
        <time>2011-04-09T07:33:12Z</time>
      </trkpt>
      <trkpt lat="42.84637" lon="-0.06115">
        <ele>2418</ele>
        <time>2011-04-09T07:33:30Z</time>
      </trkpt>
      <trkpt lat="42.84618" lon="-0.06112">
        <ele>2416</ele>
        <time>2011-04-09T07:33:45Z</time>
      </trkpt>
      <trkpt lat="42.84604" lon="-0.06106">
        <ele>2413</ele>
        <time>2011-04-09T07:33:48Z</time>
      </trkpt>
      <trkpt lat="42.84603" lon="-0.06105">
        <ele>2413</ele>
        <time>2011-04-09T07:33:49Z</time>
      </trkpt>
      <trkpt lat="42.84585" lon="-0.06107">
        <ele>2414</ele>
        <time>2011-04-09T07:34:11Z</time>
      </trkpt>
      <trkpt lat="42.84575" lon="-0.061">
        <ele>2415</ele>
        <time>2011-04-09T07:34:27Z</time>
      </trkpt>
      <trkpt lat="42.84562" lon="-0.06103">
        <ele>2418</ele>
        <time>2011-04-09T07:34:43Z</time>
      </trkpt>
      <trkpt lat="42.84556" lon="-0.06105">
        <ele>2422</ele>
        <time>2011-04-09T07:35:04Z</time>
      </trkpt>
      <trkpt lat="42.84558" lon="-0.06093">
        <ele>2425</ele>
        <time>2011-04-09T07:35:18Z</time>
      </trkpt>
      <trkpt lat="42.84549" lon="-0.06095">
        <ele>2427</ele>
        <time>2011-04-09T07:35:33Z</time>
      </trkpt>
      <trkpt lat="42.84538" lon="-0.06098">
        <ele>2430</ele>
        <time>2011-04-09T07:35:50Z</time>
      </trkpt>
      <trkpt lat="42.84524" lon="-0.06098">
        <ele>2433</ele>
        <time>2011-04-09T07:36:11Z</time>
      </trkpt>
      <trkpt lat="42.84504" lon="-0.06099">
        <ele>2435</ele>
        <time>2011-04-09T07:36:35Z</time>
      </trkpt>
      <trkpt lat="42.84487" lon="-0.06109">
        <ele>2438</ele>
        <time>2011-04-09T07:37:00Z</time>
      </trkpt>
      <trkpt lat="42.8447" lon="-0.06111">
        <ele>2439</ele>
        <time>2011-04-09T07:37:26Z</time>
      </trkpt>
      <trkpt lat="42.84471" lon="-0.06111">
        <ele>2439</ele>
        <time>2011-04-09T07:37:45Z</time>
      </trkpt>
      <trkpt lat="42.84464" lon="-0.06114">
        <ele>2439</ele>
        <time>2011-04-09T07:38:01Z</time>
      </trkpt>
      <trkpt lat="42.84461" lon="-0.06116">
        <ele>2439</ele>
        <time>2011-04-09T07:38:27Z</time>
      </trkpt>
      <trkpt lat="42.84443" lon="-0.06139">
        <ele>2442</ele>
        <time>2011-04-09T07:38:55Z</time>
      </trkpt>
      <trkpt lat="42.8443" lon="-0.06152">
        <ele>2445</ele>
        <time>2011-04-09T07:39:16Z</time>
      </trkpt>
      <trkpt lat="42.84417" lon="-0.06162">
        <ele>2448</ele>
        <time>2011-04-09T07:39:37Z</time>
      </trkpt>
      <trkpt lat="42.84409" lon="-0.06168">
        <ele>2450</ele>
        <time>2011-04-09T07:40:00Z</time>
      </trkpt>
      <trkpt lat="42.84393" lon="-0.06175">
        <ele>2453</ele>
        <time>2011-04-09T07:40:23Z</time>
      </trkpt>
      <trkpt lat="42.84375" lon="-0.06179">
        <ele>2455</ele>
        <time>2011-04-09T07:40:47Z</time>
      </trkpt>
      <trkpt lat="42.8436" lon="-0.06189">
        <ele>2456</ele>
        <time>2011-04-09T07:41:13Z</time>
      </trkpt>
      <trkpt lat="42.84354" lon="-0.06194">
        <ele>2458</ele>
        <time>2011-04-09T07:41:34Z</time>
      </trkpt>
      <trkpt lat="42.84349" lon="-0.06198">
        <ele>2460</ele>
        <time>2011-04-09T07:41:47Z</time>
      </trkpt>
      <trkpt lat="42.84344" lon="-0.062">
        <ele>2463</ele>
        <time>2011-04-09T07:42:01Z</time>
      </trkpt>
      <trkpt lat="42.84334" lon="-0.06205">
        <ele>2464</ele>
        <time>2011-04-09T07:42:18Z</time>
      </trkpt>
      <trkpt lat="42.84326" lon="-0.06211">
        <ele>2466</ele>
        <time>2011-04-09T07:42:34Z</time>
      </trkpt>
      <trkpt lat="42.8432" lon="-0.06216">
        <ele>2469</ele>
        <time>2011-04-09T07:42:47Z</time>
      </trkpt>
      <trkpt lat="42.84318" lon="-0.06223">
        <ele>2470</ele>
        <time>2011-04-09T07:42:58Z</time>
      </trkpt>
      <trkpt lat="42.84314" lon="-0.0623">
        <ele>2472</ele>
        <time>2011-04-09T07:43:11Z</time>
      </trkpt>
      <trkpt lat="42.8431" lon="-0.06238">
        <ele>2474</ele>
        <time>2011-04-09T07:43:23Z</time>
      </trkpt>
      <trkpt lat="42.84311" lon="-0.06238">
        <ele>2475</ele>
        <time>2011-04-09T07:43:46Z</time>
      </trkpt>
      <trkpt lat="42.84308" lon="-0.06241">
        <ele>2476</ele>
        <time>2011-04-09T07:44:36Z</time>
      </trkpt>
      <trkpt lat="42.84295" lon="-0.06252">
        <ele>2479</ele>
        <time>2011-04-09T07:44:57Z</time>
      </trkpt>
      <trkpt lat="42.84286" lon="-0.06259">
        <ele>2483</ele>
        <time>2011-04-09T07:45:15Z</time>
      </trkpt>
      <trkpt lat="42.84277" lon="-0.06264">
        <ele>2486</ele>
        <time>2011-04-09T07:45:32Z</time>
      </trkpt>
      <trkpt lat="42.84268" lon="-0.06264">
        <ele>2489</ele>
        <time>2011-04-09T07:45:48Z</time>
      </trkpt>
      <trkpt lat="42.84259" lon="-0.06268">
        <ele>2492</ele>
        <time>2011-04-09T07:46:08Z</time>
      </trkpt>
      <trkpt lat="42.84253" lon="-0.06271">
        <ele>2492</ele>
        <time>2011-04-09T07:46:20Z</time>
      </trkpt>
      <trkpt lat="42.84238" lon="-0.06281">
        <ele>2494</ele>
        <time>2011-04-09T07:46:43Z</time>
      </trkpt>
      <trkpt lat="42.84221" lon="-0.06293">
        <ele>2496</ele>
        <time>2011-04-09T07:47:14Z</time>
      </trkpt>
      <trkpt lat="42.84204" lon="-0.06301">
        <ele>2499</ele>
        <time>2011-04-09T07:47:40Z</time>
      </trkpt>
      <trkpt lat="42.84203" lon="-0.06302">
        <ele>2500</ele>
        <time>2011-04-09T07:47:42Z</time>
      </trkpt>
      <trkpt lat="42.84195" lon="-0.06301">
        <ele>2501</ele>
        <time>2011-04-09T07:48:03Z</time>
      </trkpt>
      <trkpt lat="42.84172" lon="-0.063">
        <ele>2501</ele>
        <time>2011-04-09T07:48:32Z</time>
      </trkpt>
      <trkpt lat="42.84161" lon="-0.06304">
        <ele>2499</ele>
        <time>2011-04-09T07:48:38Z</time>
      </trkpt>
      <trkpt lat="42.84155" lon="-0.06305">
        <ele>2498</ele>
        <time>2011-04-09T07:48:45Z</time>
      </trkpt>
      <trkpt lat="42.84138" lon="-0.06309">
        <ele>2501</ele>
        <time>2011-04-09T07:49:07Z</time>
      </trkpt>
      <trkpt lat="42.84122" lon="-0.06312">
        <ele>2502</ele>
        <time>2011-04-09T07:49:27Z</time>
      </trkpt>
      <trkpt lat="42.84109" lon="-0.06309">
        <ele>2506</ele>
        <time>2011-04-09T07:49:46Z</time>
      </trkpt>
      <trkpt lat="42.84101" lon="-0.06308">
        <ele>2509</ele>
        <time>2011-04-09T07:50:00Z</time>
      </trkpt>
      <trkpt lat="42.84098" lon="-0.06308">
        <ele>2509</ele>
        <time>2011-04-09T07:50:25Z</time>
      </trkpt>
      <trkpt lat="42.84099" lon="-0.06311">
        <ele>2511</ele>
        <time>2011-04-09T07:50:39Z</time>
      </trkpt>
      <trkpt lat="42.84104" lon="-0.06321">
        <ele>2513</ele>
        <time>2011-04-09T07:50:56Z</time>
      </trkpt>
      <trkpt lat="42.84108" lon="-0.06333">
        <ele>2516</ele>
        <time>2011-04-09T07:51:18Z</time>
      </trkpt>
      <trkpt lat="42.84105" lon="-0.06336">
        <ele>2517</ele>
        <time>2011-04-09T07:51:34Z</time>
      </trkpt>
      <trkpt lat="42.84096" lon="-0.06339">
        <ele>2521</ele>
        <time>2011-04-09T07:51:51Z</time>
      </trkpt>
      <trkpt lat="42.84093" lon="-0.06342">
        <ele>2523</ele>
        <time>2011-04-09T07:52:06Z</time>
      </trkpt>
      <trkpt lat="42.84098" lon="-0.06355">
        <ele>2526</ele>
        <time>2011-04-09T07:52:26Z</time>
      </trkpt>
      <trkpt lat="42.841" lon="-0.06364">
        <ele>2527</ele>
        <time>2011-04-09T07:52:44Z</time>
      </trkpt>
      <trkpt lat="42.841" lon="-0.06364">
        <ele>2528</ele>
        <time>2011-04-09T07:53:48Z</time>
      </trkpt>
      <trkpt lat="42.84091" lon="-0.0637">
        <ele>2531</ele>
        <time>2011-04-09T07:54:29Z</time>
      </trkpt>
      <trkpt lat="42.84075" lon="-0.06368">
        <ele>2534</ele>
        <time>2011-04-09T07:54:50Z</time>
      </trkpt>
      <trkpt lat="42.84068" lon="-0.06362">
        <ele>2537</ele>
        <time>2011-04-09T07:55:03Z</time>
      </trkpt>
      <trkpt lat="42.84059" lon="-0.06363">
        <ele>2540</ele>
        <time>2011-04-09T07:55:24Z</time>
      </trkpt>
      <trkpt lat="42.8405" lon="-0.06364">
        <ele>2543</ele>
        <time>2011-04-09T07:55:42Z</time>
      </trkpt>
      <trkpt lat="42.84039" lon="-0.06365">
        <ele>2546</ele>
        <time>2011-04-09T07:56:01Z</time>
      </trkpt>
      <trkpt lat="42.84029" lon="-0.06367">
        <ele>2548</ele>
        <time>2011-04-09T07:56:21Z</time>
      </trkpt>
      <trkpt lat="42.84021" lon="-0.06362">
        <ele>2551</ele>
        <time>2011-04-09T07:56:39Z</time>
      </trkpt>
      <trkpt lat="42.84021" lon="-0.0635">
        <ele>2553</ele>
        <time>2011-04-09T07:57:00Z</time>
      </trkpt>
      <trkpt lat="42.8401" lon="-0.06356">
        <ele>2556</ele>
        <time>2011-04-09T07:57:27Z</time>
      </trkpt>
      <trkpt lat="42.84001" lon="-0.06364">
        <ele>2559</ele>
        <time>2011-04-09T07:57:46Z</time>
      </trkpt>
      <trkpt lat="42.83997" lon="-0.06364">
        <ele>2561</ele>
        <time>2011-04-09T07:58:08Z</time>
      </trkpt>
      <trkpt lat="42.83992" lon="-0.0636">
        <ele>2563</ele>
        <time>2011-04-09T07:58:39Z</time>
      </trkpt>
      <trkpt lat="42.83987" lon="-0.06358">
        <ele>2564</ele>
        <time>2011-04-09T07:58:55Z</time>
      </trkpt>
      <trkpt lat="42.83976" lon="-0.06354">
        <ele>2567</ele>
        <time>2011-04-09T07:59:13Z</time>
      </trkpt>
      <trkpt lat="42.83972" lon="-0.06354">
        <ele>2569</ele>
        <time>2011-04-09T07:59:44Z</time>
      </trkpt>
      <trkpt lat="42.83971" lon="-0.06357">
        <ele>2570</ele>
        <time>2011-04-09T08:00:00Z</time>
      </trkpt>
      <trkpt lat="42.8397" lon="-0.06358">
        <ele>2570</ele>
        <time>2011-04-09T08:01:16Z</time>
      </trkpt>
      <trkpt lat="42.83967" lon="-0.06358">
        <ele>2571</ele>
        <time>2011-04-09T08:02:05Z</time>
      </trkpt>
      <trkpt lat="42.83957" lon="-0.06356">
        <ele>2574</ele>
        <time>2011-04-09T08:02:25Z</time>
      </trkpt>
      <trkpt lat="42.83947" lon="-0.0635">
        <ele>2577</ele>
        <time>2011-04-09T08:02:38Z</time>
      </trkpt>
      <trkpt lat="42.83938" lon="-0.06344">
        <ele>2580</ele>
        <time>2011-04-09T08:02:56Z</time>
      </trkpt>
      <trkpt lat="42.83922" lon="-0.06344">
        <ele>2583</ele>
        <time>2011-04-09T08:03:21Z</time>
      </trkpt>
      <trkpt lat="42.83919" lon="-0.06343">
        <ele>2583</ele>
        <time>2011-04-09T08:03:24Z</time>
      </trkpt>
      <trkpt lat="42.83909" lon="-0.0634">
        <ele>2583</ele>
        <time>2011-04-09T08:03:37Z</time>
      </trkpt>
      <trkpt lat="42.83897" lon="-0.06337">
        <ele>2586</ele>
        <time>2011-04-09T08:03:56Z</time>
      </trkpt>
      <trkpt lat="42.8389" lon="-0.06335">
        <ele>2589</ele>
        <time>2011-04-09T08:04:12Z</time>
      </trkpt>
      <trkpt lat="42.83884" lon="-0.06339">
        <ele>2592</ele>
        <time>2011-04-09T08:04:31Z</time>
      </trkpt>
      <trkpt lat="42.83881" lon="-0.06357">
        <ele>2594</ele>
        <time>2011-04-09T08:05:02Z</time>
      </trkpt>
      <trkpt lat="42.83875" lon="-0.06371">
        <ele>2597</ele>
        <time>2011-04-09T08:05:24Z</time>
      </trkpt>
      <trkpt lat="42.8387" lon="-0.06377">
        <ele>2600</ele>
        <time>2011-04-09T08:05:43Z</time>
      </trkpt>
      <trkpt lat="42.83862" lon="-0.06385">
        <ele>2601</ele>
        <time>2011-04-09T08:06:13Z</time>
      </trkpt>
      <trkpt lat="42.83858" lon="-0.06389">
        <ele>2605</ele>
        <time>2011-04-09T08:06:27Z</time>
      </trkpt>
      <trkpt lat="42.83845" lon="-0.0639">
        <ele>2608</ele>
        <time>2011-04-09T08:06:50Z</time>
      </trkpt>
      <trkpt lat="42.83832" lon="-0.06406">
        <ele>2611</ele>
        <time>2011-04-09T08:07:18Z</time>
      </trkpt>
      <trkpt lat="42.83828" lon="-0.06411">
        <ele>2613</ele>
        <time>2011-04-09T08:07:31Z</time>
      </trkpt>
      <trkpt lat="42.83819" lon="-0.06421">
        <ele>2615</ele>
        <time>2011-04-09T08:07:52Z</time>
      </trkpt>
      <trkpt lat="42.83809" lon="-0.0642">
        <ele>2619</ele>
        <time>2011-04-09T08:08:13Z</time>
      </trkpt>
      <trkpt lat="42.83799" lon="-0.0642">
        <ele>2622</ele>
        <time>2011-04-09T08:08:32Z</time>
      </trkpt>
      <trkpt lat="42.83787" lon="-0.06418">
        <ele>2625</ele>
        <time>2011-04-09T08:08:53Z</time>
      </trkpt>
      <trkpt lat="42.83786" lon="-0.06429">
        <ele>2626</ele>
        <time>2011-04-09T08:09:11Z</time>
      </trkpt>
      <trkpt lat="42.83789" lon="-0.06447">
        <ele>2629</ele>
        <time>2011-04-09T08:09:34Z</time>
      </trkpt>
      <trkpt lat="42.83784" lon="-0.06444">
        <ele>2630</ele>
        <time>2011-04-09T08:09:47Z</time>
      </trkpt>
      <trkpt lat="42.83776" lon="-0.06441">
        <ele>2632</ele>
        <time>2011-04-09T08:10:00Z</time>
      </trkpt>
      <trkpt lat="42.83775" lon="-0.06446">
        <ele>2634</ele>
        <time>2011-04-09T08:10:13Z</time>
      </trkpt>
      <trkpt lat="42.83776" lon="-0.06447">
        <ele>2634</ele>
        <time>2011-04-09T08:10:33Z</time>
      </trkpt>
      <trkpt lat="42.83776" lon="-0.06449">
        <ele>2635</ele>
        <time>2011-04-09T08:11:13Z</time>
      </trkpt>
      <trkpt lat="42.83777" lon="-0.06464">
        <ele>2637</ele>
        <time>2011-04-09T08:11:32Z</time>
      </trkpt>
      <trkpt lat="42.83778" lon="-0.06471">
        <ele>2639</ele>
        <time>2011-04-09T08:11:46Z</time>
      </trkpt>
      <trkpt lat="42.83769" lon="-0.06464">
        <ele>2641</ele>
        <time>2011-04-09T08:12:01Z</time>
      </trkpt>
      <trkpt lat="42.83758" lon="-0.0646">
        <ele>2644</ele>
        <time>2011-04-09T08:12:21Z</time>
      </trkpt>
      <trkpt lat="42.83747" lon="-0.0646">
        <ele>2647</ele>
        <time>2011-04-09T08:12:38Z</time>
      </trkpt>
      <trkpt lat="42.83735" lon="-0.06457">
        <ele>2650</ele>
        <time>2011-04-09T08:13:00Z</time>
      </trkpt>
      <trkpt lat="42.83728" lon="-0.06463">
        <ele>2652</ele>
        <time>2011-04-09T08:13:15Z</time>
      </trkpt>
      <trkpt lat="42.83726" lon="-0.06475">
        <ele>2654</ele>
        <time>2011-04-09T08:13:32Z</time>
      </trkpt>
      <trkpt lat="42.83723" lon="-0.06489">
        <ele>2658</ele>
        <time>2011-04-09T08:13:53Z</time>
      </trkpt>
      <trkpt lat="42.83721" lon="-0.06504">
        <ele>2661</ele>
        <time>2011-04-09T08:14:14Z</time>
      </trkpt>
      <trkpt lat="42.83712" lon="-0.0652">
        <ele>2664</ele>
        <time>2011-04-09T08:14:40Z</time>
      </trkpt>
      <trkpt lat="42.83704" lon="-0.06535">
        <ele>2667</ele>
        <time>2011-04-09T08:15:03Z</time>
      </trkpt>
      <trkpt lat="42.83694" lon="-0.06552">
        <ele>2671</ele>
        <time>2011-04-09T08:15:31Z</time>
      </trkpt>
      <trkpt lat="42.83688" lon="-0.06571">
        <ele>2674</ele>
        <time>2011-04-09T08:15:59Z</time>
      </trkpt>
      <trkpt lat="42.83682" lon="-0.06589">
        <ele>2677</ele>
        <time>2011-04-09T08:16:24Z</time>
      </trkpt>
      <trkpt lat="42.83679" lon="-0.06603">
        <ele>2680</ele>
        <time>2011-04-09T08:16:43Z</time>
      </trkpt>
      <trkpt lat="42.83679" lon="-0.06604">
        <ele>2680</ele>
        <time>2011-04-09T08:16:44Z</time>
      </trkpt>
      <trkpt lat="42.83674" lon="-0.06619">
        <ele>2684</ele>
        <time>2011-04-09T08:17:08Z</time>
      </trkpt>
      <trkpt lat="42.83674" lon="-0.06619">
        <ele>2684</ele>
        <time>2011-04-09T08:17:25Z</time>
      </trkpt>
      <trkpt lat="42.83671" lon="-0.0663">
        <ele>2687</ele>
        <time>2011-04-09T08:18:14Z</time>
      </trkpt>
      <trkpt lat="42.83672" lon="-0.06649">
        <ele>2690</ele>
        <time>2011-04-09T08:18:39Z</time>
      </trkpt>
      <trkpt lat="42.83675" lon="-0.06668">
        <ele>2693</ele>
        <time>2011-04-09T08:19:04Z</time>
      </trkpt>
      <trkpt lat="42.83683" lon="-0.06677">
        <ele>2695</ele>
        <time>2011-04-09T08:19:25Z</time>
      </trkpt>
      <trkpt lat="42.83689" lon="-0.06694">
        <ele>2698</ele>
        <time>2011-04-09T08:19:52Z</time>
      </trkpt>
      <trkpt lat="42.83689" lon="-0.06716">
        <ele>2701</ele>
        <time>2011-04-09T08:20:18Z</time>
      </trkpt>
      <trkpt lat="42.83693" lon="-0.06736">
        <ele>2704</ele>
        <time>2011-04-09T08:20:43Z</time>
      </trkpt>
      <trkpt lat="42.83697" lon="-0.06756">
        <ele>2707</ele>
        <time>2011-04-09T08:21:07Z</time>
      </trkpt>
      <trkpt lat="42.83708" lon="-0.06775">
        <ele>2711</ele>
        <time>2011-04-09T08:21:37Z</time>
      </trkpt>
      <trkpt lat="42.83719" lon="-0.06791">
        <ele>2713</ele>
        <time>2011-04-09T08:22:04Z</time>
      </trkpt>
      <trkpt lat="42.83723" lon="-0.06809">
        <ele>2717</ele>
        <time>2011-04-09T08:22:28Z</time>
      </trkpt>
      <trkpt lat="42.83722" lon="-0.06819">
        <ele>2719</ele>
        <time>2011-04-09T08:22:51Z</time>
      </trkpt>
      <trkpt lat="42.83718" lon="-0.06816">
        <ele>2720</ele>
        <time>2011-04-09T08:23:26Z</time>
      </trkpt>
      <trkpt lat="42.83705" lon="-0.06809">
        <ele>2723</ele>
        <time>2011-04-09T08:23:49Z</time>
      </trkpt>
      <trkpt lat="42.83708" lon="-0.06817">
        <ele>2724</ele>
        <time>2011-04-09T08:24:01Z</time>
      </trkpt>
      <trkpt lat="42.8371" lon="-0.06826">
        <ele>2726</ele>
        <time>2011-04-09T08:24:14Z</time>
      </trkpt>
      <trkpt lat="42.83713" lon="-0.06836">
        <ele>2727</ele>
        <time>2011-04-09T08:24:30Z</time>
      </trkpt>
      <trkpt lat="42.83719" lon="-0.06845">
        <ele>2730</ele>
        <time>2011-04-09T08:24:50Z</time>
      </trkpt>
      <trkpt lat="42.83723" lon="-0.06845">
        <ele>2730</ele>
        <time>2011-04-09T08:25:11Z</time>
      </trkpt>
      <trkpt lat="42.83723" lon="-0.06846">
        <ele>2730</ele>
        <time>2011-04-09T08:26:02Z</time>
      </trkpt>
      <trkpt lat="42.83723" lon="-0.06848">
        <ele>2731</ele>
        <time>2011-04-09T08:26:35Z</time>
      </trkpt>
      <trkpt lat="42.83726" lon="-0.06862">
        <ele>2734</ele>
        <time>2011-04-09T08:26:51Z</time>
      </trkpt>
      <trkpt lat="42.83724" lon="-0.06868">
        <ele>2736</ele>
        <time>2011-04-09T08:27:11Z</time>
      </trkpt>
      <trkpt lat="42.83719" lon="-0.06862">
        <ele>2738</ele>
        <time>2011-04-09T08:27:24Z</time>
      </trkpt>
      <trkpt lat="42.83713" lon="-0.06858">
        <ele>2739</ele>
        <time>2011-04-09T08:27:41Z</time>
      </trkpt>
      <trkpt lat="42.83707" lon="-0.06858">
        <ele>2741</ele>
        <time>2011-04-09T08:27:55Z</time>
      </trkpt>
      <trkpt lat="42.8371" lon="-0.06862">
        <ele>2741</ele>
        <time>2011-04-09T08:28:10Z</time>
      </trkpt>
      <trkpt lat="42.83716" lon="-0.06873">
        <ele>2744</ele>
        <time>2011-04-09T08:28:26Z</time>
      </trkpt>
      <trkpt lat="42.83714" lon="-0.06875">
        <ele>2746</ele>
        <time>2011-04-09T08:29:04Z</time>
      </trkpt>
      <trkpt lat="42.83709" lon="-0.0687">
        <ele>2747</ele>
        <time>2011-04-09T08:29:20Z</time>
      </trkpt>
      <trkpt lat="42.83707" lon="-0.06873">
        <ele>2748</ele>
        <time>2011-04-09T08:29:35Z</time>
      </trkpt>
      <trkpt lat="42.83709" lon="-0.06881">
        <ele>2749</ele>
        <time>2011-04-09T08:29:55Z</time>
      </trkpt>
      <trkpt lat="42.83709" lon="-0.06883">
        <ele>2751</ele>
        <time>2011-04-09T08:30:10Z</time>
      </trkpt>
      <trkpt lat="42.83707" lon="-0.06878">
        <ele>2750</ele>
        <time>2011-04-09T08:30:28Z</time>
      </trkpt>
      <trkpt lat="42.83707" lon="-0.06877">
        <ele>2745</ele>
        <time>2011-04-09T08:30:50Z</time>
      </trkpt>
      <trkpt lat="42.83707" lon="-0.06877">
        <ele>2745</ele>
        <time>2011-04-09T08:30:51Z</time>
      </trkpt>
      <trkpt lat="42.83708" lon="-0.06877">
        <ele>2750</ele>
        <time>2011-04-09T08:30:52Z</time>
      </trkpt>
      <trkpt lat="42.83707" lon="-0.06877">
        <ele>2750</ele>
        <time>2011-04-09T08:30:53Z</time>
      </trkpt>
      <trkpt lat="42.83707" lon="-0.06877">
        <ele>2752</ele>
        <time>2011-04-09T08:30:56Z</time>
      </trkpt>
      <trkpt lat="42.83707" lon="-0.06877">
        <ele>2749</ele>
        <time>2011-04-09T08:30:58Z</time>
      </trkpt>
      <trkpt lat="42.83706" lon="-0.06875">
        <ele>2750</ele>
        <time>2011-04-09T08:31:19Z</time>
      </trkpt>
      <trkpt lat="42.83706" lon="-0.06876">
        <ele>2742</ele>
        <time>2011-04-09T08:31:22Z</time>
      </trkpt>
      <trkpt lat="42.83706" lon="-0.06878">
        <ele>2747</ele>
        <time>2011-04-09T08:31:23Z</time>
      </trkpt>
      <trkpt lat="42.83705" lon="-0.06879">
        <ele>2754</ele>
        <time>2011-04-09T08:31:25Z</time>
      </trkpt>
      <trkpt lat="42.83705" lon="-0.06879">
        <ele>2754</ele>
        <time>2011-04-09T08:31:26Z</time>
      </trkpt>
      <trkpt lat="42.83705" lon="-0.06879">
        <ele>2752</ele>
        <time>2011-04-09T08:31:28Z</time>
      </trkpt>
      <trkpt lat="42.83705" lon="-0.06879">
        <ele>2750</ele>
        <time>2011-04-09T08:31:30Z</time>
      </trkpt>
      <trkpt lat="42.83705" lon="-0.06879">
        <ele>2749</ele>
        <time>2011-04-09T08:33:10Z</time>
      </trkpt>
      <trkpt lat="42.83706" lon="-0.06879">
        <ele>2753</ele>
        <time>2011-04-09T08:33:14Z</time>
      </trkpt>
      <trkpt lat="42.83706" lon="-0.06879">
        <ele>2753</ele>
        <time>2011-04-09T08:33:15Z</time>
      </trkpt>
      <trkpt lat="42.83706" lon="-0.06879">
        <ele>2751</ele>
        <time>2011-04-09T08:33:17Z</time>
      </trkpt>
      <trkpt lat="42.83705" lon="-0.06879">
        <ele>2750</ele>
        <time>2011-04-09T08:33:46Z</time>
      </trkpt>
      <trkpt lat="42.83705" lon="-0.06879">
        <ele>2745</ele>
        <time>2011-04-09T08:34:14Z</time>
      </trkpt>
      <trkpt lat="42.83705" lon="-0.06879">
        <ele>2745</ele>
        <time>2011-04-09T08:34:15Z</time>
      </trkpt>
      <trkpt lat="42.83705" lon="-0.06879">
        <ele>2753</ele>
        <time>2011-04-09T08:34:16Z</time>
      </trkpt>
      <trkpt lat="42.83705" lon="-0.06879">
        <ele>2753</ele>
        <time>2011-04-09T08:34:17Z</time>
      </trkpt>
      <trkpt lat="42.83705" lon="-0.06879">
        <ele>2749</ele>
        <time>2011-04-09T08:34:30Z</time>
      </trkpt>
      <trkpt lat="42.83705" lon="-0.06879">
        <ele>2749</ele>
        <time>2011-04-09T08:34:31Z</time>
      </trkpt>
      <trkpt lat="42.83705" lon="-0.06879">
        <ele>2751</ele>
        <time>2011-04-09T08:34:34Z</time>
      </trkpt>
      <trkpt lat="42.83705" lon="-0.06879">
        <ele>2752</ele>
        <time>2011-04-09T08:34:36Z</time>
      </trkpt>
      <trkpt lat="42.83705" lon="-0.06879">
        <ele>2747</ele>
        <time>2011-04-09T08:34:37Z</time>
      </trkpt>
      <trkpt lat="42.83705" lon="-0.06879">
        <ele>2747</ele>
        <time>2011-04-09T08:34:38Z</time>
      </trkpt>
      <trkpt lat="42.83705" lon="-0.06879">
        <ele>2753</ele>
        <time>2011-04-09T08:34:40Z</time>
      </trkpt>
      <trkpt lat="42.83705" lon="-0.06879">
        <ele>2753</ele>
        <time>2011-04-09T08:34:41Z</time>
      </trkpt>
      <trkpt lat="42.83705" lon="-0.06879">
        <ele>2752</ele>
        <time>2011-04-09T08:34:43Z</time>
      </trkpt>
      <trkpt lat="42.83705" lon="-0.06879">
        <ele>2753</ele>
        <time>2011-04-09T08:34:45Z</time>
      </trkpt>
      <trkpt lat="42.83705" lon="-0.06879">
        <ele>2750</ele>
        <time>2011-04-09T08:34:47Z</time>
      </trkpt>
      <trkpt lat="42.83705" lon="-0.06879">
        <ele>2752</ele>
        <time>2011-04-09T08:34:54Z</time>
      </trkpt>
      <trkpt lat="42.83705" lon="-0.06879">
        <ele>2751</ele>
        <time>2011-04-09T08:34:57Z</time>
      </trkpt>
      <trkpt lat="42.83705" lon="-0.06879">
        <ele>2749</ele>
        <time>2011-04-09T08:36:13Z</time>
      </trkpt>
      <trkpt lat="42.83705" lon="-0.06879">
        <ele>2751</ele>
        <time>2011-04-09T08:36:15Z</time>
      </trkpt>
      <trkpt lat="42.83705" lon="-0.06879">
        <ele>2749</ele>
        <time>2011-04-09T08:36:29Z</time>
      </trkpt>
      <trkpt lat="42.83705" lon="-0.06879">
        <ele>2751</ele>
        <time>2011-04-09T08:36:32Z</time>
      </trkpt>
      <trkpt lat="42.83706" lon="-0.06879">
        <ele>2746</ele>
        <time>2011-04-09T08:36:54Z</time>
      </trkpt>
      <trkpt lat="42.83706" lon="-0.06879">
        <ele>2746</ele>
        <time>2011-04-09T08:36:55Z</time>
      </trkpt>
      <trkpt lat="42.83706" lon="-0.06879">
        <ele>2739</ele>
        <time>2011-04-09T08:36:56Z</time>
      </trkpt>
      <trkpt lat="42.83706" lon="-0.06879">
        <ele>2739</ele>
        <time>2011-04-09T08:36:57Z</time>
      </trkpt>
      <trkpt lat="42.83706" lon="-0.06879">
        <ele>2752</ele>
        <time>2011-04-09T08:36:58Z</time>
      </trkpt>
      <trkpt lat="42.83706" lon="-0.06879">
        <ele>2752</ele>
        <time>2011-04-09T08:36:59Z</time>
      </trkpt>
      <trkpt lat="42.83706" lon="-0.06879">
        <ele>2752</ele>
        <time>2011-04-09T08:37:13Z</time>
      </trkpt>
      <trkpt lat="42.83706" lon="-0.06879">
        <ele>2750</ele>
        <time>2011-04-09T08:37:18Z</time>
      </trkpt>
      <trkpt lat="42.83706" lon="-0.06879">
        <ele>2752</ele>
        <time>2011-04-09T08:37:20Z</time>
      </trkpt>
      <trkpt lat="42.83706" lon="-0.06879">
        <ele>2750</ele>
        <time>2011-04-09T08:37:22Z</time>
      </trkpt>
      <trkpt lat="42.83706" lon="-0.06879">
        <ele>2754</ele>
        <time>2011-04-09T08:37:24Z</time>
      </trkpt>
      <trkpt lat="42.83706" lon="-0.06878">
        <ele>2754</ele>
        <time>2011-04-09T08:37:25Z</time>
      </trkpt>
      <trkpt lat="42.83707" lon="-0.06879">
        <ele>2753</ele>
        <time>2011-04-09T08:37:27Z</time>
      </trkpt>
      <trkpt lat="42.83706" lon="-0.0688">
        <ele>2751</ele>
        <time>2011-04-09T08:38:17Z</time>
      </trkpt>
      <trkpt lat="42.83706" lon="-0.0688">
        <ele>2753</ele>
        <time>2011-04-09T08:38:20Z</time>
      </trkpt>
      <trkpt lat="42.83704" lon="-0.0688">
        <ele>2753</ele>
        <time>2011-04-09T08:38:35Z</time>
      </trkpt>
      <trkpt lat="42.83707" lon="-0.06886">
        <ele>2755</ele>
        <time>2011-04-09T08:38:48Z</time>
      </trkpt>
      <trkpt lat="42.83705" lon="-0.06889">
        <ele>2757</ele>
        <time>2011-04-09T08:39:06Z</time>
      </trkpt>
      <trkpt lat="42.83704" lon="-0.06889">
        <ele>2757</ele>
        <time>2011-04-09T08:39:07Z</time>
      </trkpt>
      <trkpt lat="42.83702" lon="-0.06887">
        <ele>2757</ele>
        <time>2011-04-09T08:39:21Z</time>
      </trkpt>
      <trkpt lat="42.837" lon="-0.06883">
        <ele>2758</ele>
        <time>2011-04-09T08:39:54Z</time>
      </trkpt>
      <trkpt lat="42.83702" lon="-0.06886">
        <ele>2759</ele>
        <time>2011-04-09T08:40:11Z</time>
      </trkpt>
      <trkpt lat="42.83702" lon="-0.06889">
        <ele>2760</ele>
        <time>2011-04-09T08:40:43Z</time>
      </trkpt>
      <trkpt lat="42.83702" lon="-0.06891">
        <ele>2761</ele>
        <time>2011-04-09T08:41:31Z</time>
      </trkpt>
      <trkpt lat="42.83702" lon="-0.06892">
        <ele>2761</ele>
        <time>2011-04-09T08:41:57Z</time>
      </trkpt>
      <trkpt lat="42.83702" lon="-0.06893">
        <ele>2762</ele>
        <time>2011-04-09T08:43:03Z</time>
      </trkpt>
      <trkpt lat="42.83702" lon="-0.06893">
        <ele>2761</ele>
        <time>2011-04-09T08:43:05Z</time>
      </trkpt>
      <trkpt lat="42.83702" lon="-0.06893">
        <ele>2759</ele>
        <time>2011-04-09T08:43:08Z</time>
      </trkpt>
      <trkpt lat="42.83702" lon="-0.06893">
        <ele>2761</ele>
        <time>2011-04-09T08:43:35Z</time>
      </trkpt>
      <trkpt lat="42.83703" lon="-0.06893">
        <ele>2761</ele>
        <time>2011-04-09T08:43:57Z</time>
      </trkpt>
      <trkpt lat="42.83702" lon="-0.06893">
        <ele>2752</ele>
        <time>2011-04-09T08:44:04Z</time>
      </trkpt>
      <trkpt lat="42.83702" lon="-0.06893">
        <ele>2762</ele>
        <time>2011-04-09T08:44:05Z</time>
      </trkpt>
      <trkpt lat="42.83702" lon="-0.06893">
        <ele>2762</ele>
        <time>2011-04-09T08:44:06Z</time>
      </trkpt>
      <trkpt lat="42.83702" lon="-0.06893">
        <ele>2760</ele>
        <time>2011-04-09T08:44:08Z</time>
      </trkpt>
      <trkpt lat="42.83702" lon="-0.06893">
        <ele>2756</ele>
        <time>2011-04-09T08:44:13Z</time>
      </trkpt>
      <trkpt lat="42.83702" lon="-0.06893">
        <ele>2759</ele>
        <time>2011-04-09T08:44:14Z</time>
      </trkpt>
      <trkpt lat="42.83703" lon="-0.06893">
        <ele>2758</ele>
        <time>2011-04-09T08:45:36Z</time>
      </trkpt>
      <trkpt lat="42.83703" lon="-0.06893">
        <ele>2761</ele>
        <time>2011-04-09T08:45:38Z</time>
      </trkpt>
      <trkpt lat="42.83703" lon="-0.06893">
        <ele>2757</ele>
        <time>2011-04-09T08:45:41Z</time>
      </trkpt>
      <trkpt lat="42.83703" lon="-0.06893">
        <ele>2758</ele>
        <time>2011-04-09T08:45:42Z</time>
      </trkpt>
      <trkpt lat="42.83703" lon="-0.06893">
        <ele>2759</ele>
        <time>2011-04-09T08:45:45Z</time>
      </trkpt>
      <trkpt lat="42.83703" lon="-0.06893">
        <ele>2761</ele>
        <time>2011-04-09T08:46:01Z</time>
      </trkpt>
      <trkpt lat="42.83703" lon="-0.06893">
        <ele>2758</ele>
        <time>2011-04-09T08:46:04Z</time>
      </trkpt>
      <trkpt lat="42.83703" lon="-0.06893">
        <ele>2761</ele>
        <time>2011-04-09T08:46:33Z</time>
      </trkpt>
      <trkpt lat="42.83703" lon="-0.06893">
        <ele>2761</ele>
        <time>2011-04-09T08:47:03Z</time>
      </trkpt>
      <trkpt lat="42.83703" lon="-0.06892">
        <ele>2759</ele>
        <time>2011-04-09T08:49:15Z</time>
      </trkpt>
      <trkpt lat="42.83703" lon="-0.06893">
        <ele>2763</ele>
        <time>2011-04-09T08:49:19Z</time>
      </trkpt>
      <trkpt lat="42.83703" lon="-0.06893">
        <ele>2763</ele>
        <time>2011-04-09T08:49:20Z</time>
      </trkpt>
      <trkpt lat="42.83703" lon="-0.06893">
        <ele>2761</ele>
        <time>2011-04-09T08:49:23Z</time>
      </trkpt>
      <trkpt lat="42.83704" lon="-0.06893">
        <ele>2760</ele>
        <time>2011-04-09T08:49:37Z</time>
      </trkpt>
      <trkpt lat="42.83703" lon="-0.06893">
        <ele>2762</ele>
        <time>2011-04-09T08:49:41Z</time>
      </trkpt>
      <trkpt lat="42.83703" lon="-0.06892">
        <ele>2762</ele>
        <time>2011-04-09T08:49:57Z</time>
      </trkpt>
      <trkpt lat="42.83703" lon="-0.06893">
        <ele>2762</ele>
        <time>2011-04-09T08:50:35Z</time>
      </trkpt>
      <trkpt lat="42.83705" lon="-0.06893">
        <ele>2762</ele>
        <time>2011-04-09T08:52:14Z</time>
      </trkpt>
      <trkpt lat="42.83702" lon="-0.069">
        <ele>2765</ele>
        <time>2011-04-09T08:52:41Z</time>
      </trkpt>
      <trkpt lat="42.83701" lon="-0.06904">
        <ele>2766</ele>
        <time>2011-04-09T08:53:00Z</time>
      </trkpt>
      <trkpt lat="42.83697" lon="-0.06907">
        <ele>2769</ele>
        <time>2011-04-09T08:53:17Z</time>
      </trkpt>
      <trkpt lat="42.83693" lon="-0.06911">
        <ele>2772</ele>
        <time>2011-04-09T08:53:34Z</time>
      </trkpt>
      <trkpt lat="42.83693" lon="-0.06912">
        <ele>2773</ele>
        <time>2011-04-09T08:53:57Z</time>
      </trkpt>
      <trkpt lat="42.83691" lon="-0.06909">
        <ele>2775</ele>
        <time>2011-04-09T08:54:20Z</time>
      </trkpt>
      <trkpt lat="42.83687" lon="-0.06906">
        <ele>2776</ele>
        <time>2011-04-09T08:54:35Z</time>
      </trkpt>
      <trkpt lat="42.83686" lon="-0.06906">
        <ele>2778</ele>
        <time>2011-04-09T08:54:38Z</time>
      </trkpt>
      <trkpt lat="42.83683" lon="-0.06905">
        <ele>2780</ele>
        <time>2011-04-09T08:55:00Z</time>
      </trkpt>
      <trkpt lat="42.83682" lon="-0.06904">
        <ele>2781</ele>
        <time>2011-04-09T08:55:17Z</time>
      </trkpt>
      <trkpt lat="42.83681" lon="-0.06905">
        <ele>2782</ele>
        <time>2011-04-09T08:55:39Z</time>
      </trkpt>
      <trkpt lat="42.83679" lon="-0.06905">
        <ele>2783</ele>
        <time>2011-04-09T08:55:54Z</time>
      </trkpt>
      <trkpt lat="42.83678" lon="-0.06901">
        <ele>2785</ele>
        <time>2011-04-09T08:56:25Z</time>
      </trkpt>
      <trkpt lat="42.83674" lon="-0.06897">
        <ele>2787</ele>
        <time>2011-04-09T08:56:41Z</time>
      </trkpt>
      <trkpt lat="42.83672" lon="-0.06897">
        <ele>2790</ele>
        <time>2011-04-09T08:57:03Z</time>
      </trkpt>
      <trkpt lat="42.8367" lon="-0.06896">
        <ele>2793</ele>
        <time>2011-04-09T08:57:25Z</time>
      </trkpt>
      <trkpt lat="42.83669" lon="-0.06895">
        <ele>2795</ele>
        <time>2011-04-09T08:57:44Z</time>
      </trkpt>
      <trkpt lat="42.83667" lon="-0.06897">
        <ele>2796</ele>
        <time>2011-04-09T08:58:04Z</time>
      </trkpt>
      <trkpt lat="42.83666" lon="-0.06897">
        <ele>2798</ele>
        <time>2011-04-09T08:58:18Z</time>
      </trkpt>
      <trkpt lat="42.83665" lon="-0.06896">
        <ele>2799</ele>
        <time>2011-04-09T08:58:41Z</time>
      </trkpt>
      <trkpt lat="42.83662" lon="-0.06897">
        <ele>2800</ele>
        <time>2011-04-09T08:59:57Z</time>
      </trkpt>
      <trkpt lat="42.83659" lon="-0.06899">
        <ele>2804</ele>
        <time>2011-04-09T09:00:12Z</time>
      </trkpt>
      <trkpt lat="42.83655" lon="-0.06901">
        <ele>2808</ele>
        <time>2011-04-09T09:00:26Z</time>
      </trkpt>
      <trkpt lat="42.83654" lon="-0.06901">
        <ele>2809</ele>
        <time>2011-04-09T09:00:49Z</time>
      </trkpt>
      <trkpt lat="42.83651" lon="-0.06902">
        <ele>2811</ele>
        <time>2011-04-09T09:01:04Z</time>
      </trkpt>
      <trkpt lat="42.83649" lon="-0.06904">
        <ele>2812</ele>
        <time>2011-04-09T09:01:49Z</time>
      </trkpt>
      <trkpt lat="42.83645" lon="-0.06906">
        <ele>2815</ele>
        <time>2011-04-09T09:02:03Z</time>
      </trkpt>
      <trkpt lat="42.8364" lon="-0.06906">
        <ele>2817</ele>
        <time>2011-04-09T09:02:20Z</time>
      </trkpt>
      <trkpt lat="42.83639" lon="-0.06905">
        <ele>2818</ele>
        <time>2011-04-09T09:02:38Z</time>
      </trkpt>
      <trkpt lat="42.83637" lon="-0.06906">
        <ele>2821</ele>
        <time>2011-04-09T09:03:10Z</time>
      </trkpt>
      <trkpt lat="42.83634" lon="-0.06906">
        <ele>2823</ele>
        <time>2011-04-09T09:03:22Z</time>
      </trkpt>
      <trkpt lat="42.83635" lon="-0.06908">
        <ele>2823</ele>
        <time>2011-04-09T09:03:51Z</time>
      </trkpt>
      <trkpt lat="42.83632" lon="-0.06908">
        <ele>2825</ele>
        <time>2011-04-09T09:04:16Z</time>
      </trkpt>
      <trkpt lat="42.8363" lon="-0.06909">
        <ele>2827</ele>
        <time>2011-04-09T09:04:28Z</time>
      </trkpt>
      <trkpt lat="42.8363" lon="-0.06909">
        <ele>2828</ele>
        <time>2011-04-09T09:04:42Z</time>
      </trkpt>
      <trkpt lat="42.83628" lon="-0.06909">
        <ele>2829</ele>
        <time>2011-04-09T09:05:08Z</time>
      </trkpt>
      <trkpt lat="42.83624" lon="-0.06909">
        <ele>2831</ele>
        <time>2011-04-09T09:05:23Z</time>
      </trkpt>
      <trkpt lat="42.83621" lon="-0.06909">
        <ele>2833</ele>
        <time>2011-04-09T09:05:40Z</time>
      </trkpt>
      <trkpt lat="42.8362" lon="-0.06909">
        <ele>2834</ele>
        <time>2011-04-09T09:06:19Z</time>
      </trkpt>
      <trkpt lat="42.83617" lon="-0.06909">
        <ele>2836</ele>
        <time>2011-04-09T09:06:35Z</time>
      </trkpt>
      <trkpt lat="42.83614" lon="-0.0691">
        <ele>2839</ele>
        <time>2011-04-09T09:06:55Z</time>
      </trkpt>
      <trkpt lat="42.83613" lon="-0.0691">
        <ele>2841</ele>
        <time>2011-04-09T09:07:15Z</time>
      </trkpt>
      <trkpt lat="42.83614" lon="-0.06909">
        <ele>2841</ele>
        <time>2011-04-09T09:07:56Z</time>
      </trkpt>
      <trkpt lat="42.83612" lon="-0.06909">
        <ele>2843</ele>
        <time>2011-04-09T09:08:29Z</time>
      </trkpt>
      <trkpt lat="42.83608" lon="-0.06911">
        <ele>2846</ele>
        <time>2011-04-09T09:08:45Z</time>
      </trkpt>
      <trkpt lat="42.83607" lon="-0.06911">
        <ele>2848</ele>
        <time>2011-04-09T09:09:04Z</time>
      </trkpt>
      <trkpt lat="42.83604" lon="-0.06911">
        <ele>2849</ele>
        <time>2011-04-09T09:09:27Z</time>
      </trkpt>
      <trkpt lat="42.83602" lon="-0.0691">
        <ele>2851</ele>
        <time>2011-04-09T09:10:01Z</time>
      </trkpt>
      <trkpt lat="42.83599" lon="-0.0691">
        <ele>2853</ele>
        <time>2011-04-09T09:10:18Z</time>
      </trkpt>
      <trkpt lat="42.83597" lon="-0.06911">
        <ele>2856</ele>
        <time>2011-04-09T09:10:36Z</time>
      </trkpt>
      <trkpt lat="42.83596" lon="-0.06913">
        <ele>2857</ele>
        <time>2011-04-09T09:11:12Z</time>
      </trkpt>
      <trkpt lat="42.83593" lon="-0.06912">
        <ele>2860</ele>
        <time>2011-04-09T09:11:29Z</time>
      </trkpt>
      <trkpt lat="42.83589" lon="-0.06914">
        <ele>2862</ele>
        <time>2011-04-09T09:11:50Z</time>
      </trkpt>
      <trkpt lat="42.83589" lon="-0.06913">
        <ele>2864</ele>
        <time>2011-04-09T09:12:11Z</time>
      </trkpt>
      <trkpt lat="42.83587" lon="-0.06913">
        <ele>2865</ele>
        <time>2011-04-09T09:12:28Z</time>
      </trkpt>
      <trkpt lat="42.83586" lon="-0.06913">
        <ele>2867</ele>
        <time>2011-04-09T09:12:45Z</time>
      </trkpt>
      <trkpt lat="42.83583" lon="-0.06911">
        <ele>2870</ele>
        <time>2011-04-09T09:13:07Z</time>
      </trkpt>
      <trkpt lat="42.83578" lon="-0.06908">
        <ele>2872</ele>
        <time>2011-04-09T09:13:38Z</time>
      </trkpt>
      <trkpt lat="42.83578" lon="-0.06909">
        <ele>2873</ele>
        <time>2011-04-09T09:13:56Z</time>
      </trkpt>
      <trkpt lat="42.83577" lon="-0.0691">
        <ele>2873</ele>
        <time>2011-04-09T09:14:49Z</time>
      </trkpt>
      <trkpt lat="42.83577" lon="-0.0691">
        <ele>2871</ele>
        <time>2011-04-09T09:14:55Z</time>
      </trkpt>
      <trkpt lat="42.83577" lon="-0.0691">
        <ele>2873</ele>
        <time>2011-04-09T09:14:59Z</time>
      </trkpt>
      <trkpt lat="42.83577" lon="-0.0691">
        <ele>2869</ele>
        <time>2011-04-09T09:15:07Z</time>
      </trkpt>
      <trkpt lat="42.83577" lon="-0.0691">
        <ele>2869</ele>
        <time>2011-04-09T09:15:08Z</time>
      </trkpt>
      <trkpt lat="42.83577" lon="-0.0691">
        <ele>2873</ele>
        <time>2011-04-09T09:15:09Z</time>
      </trkpt>
      <trkpt lat="42.83577" lon="-0.0691">
        <ele>2873</ele>
        <time>2011-04-09T09:15:10Z</time>
      </trkpt>
      <trkpt lat="42.83576" lon="-0.0691">
        <ele>2873</ele>
        <time>2011-04-09T09:15:45Z</time>
      </trkpt>
      <trkpt lat="42.83576" lon="-0.06911">
        <ele>2873</ele>
        <time>2011-04-09T09:16:31Z</time>
      </trkpt>
      <trkpt lat="42.83577" lon="-0.06908">
        <ele>2873</ele>
        <time>2011-04-09T09:17:01Z</time>
      </trkpt>
      <trkpt lat="42.83572" lon="-0.06907">
        <ele>2876</ele>
        <time>2011-04-09T09:17:16Z</time>
      </trkpt>
      <trkpt lat="42.83568" lon="-0.06903">
        <ele>2879</ele>
        <time>2011-04-09T09:17:30Z</time>
      </trkpt>
      <trkpt lat="42.83563" lon="-0.06901">
        <ele>2881</ele>
        <time>2011-04-09T09:17:48Z</time>
      </trkpt>
      <trkpt lat="42.8356" lon="-0.069">
        <ele>2883</ele>
        <time>2011-04-09T09:18:04Z</time>
      </trkpt>
      <trkpt lat="42.83557" lon="-0.06898">
        <ele>2885</ele>
        <time>2011-04-09T09:18:19Z</time>
      </trkpt>
      <trkpt lat="42.83558" lon="-0.06891">
        <ele>2888</ele>
        <time>2011-04-09T09:18:36Z</time>
      </trkpt>
      <trkpt lat="42.83556" lon="-0.06887">
        <ele>2889</ele>
        <time>2011-04-09T09:18:55Z</time>
      </trkpt>
      <trkpt lat="42.83553" lon="-0.06884">
        <ele>2893</ele>
        <time>2011-04-09T09:19:13Z</time>
      </trkpt>
      <trkpt lat="42.83551" lon="-0.06881">
        <ele>2893</ele>
        <time>2011-04-09T09:19:34Z</time>
      </trkpt>
      <trkpt lat="42.8355" lon="-0.06879">
        <ele>2894</ele>
        <time>2011-04-09T09:20:22Z</time>
      </trkpt>
      <trkpt lat="42.83547" lon="-0.06872">
        <ele>2897</ele>
        <time>2011-04-09T09:20:38Z</time>
      </trkpt>
      <trkpt lat="42.83543" lon="-0.0687">
        <ele>2899</ele>
        <time>2011-04-09T09:20:54Z</time>
      </trkpt>
      <trkpt lat="42.83535" lon="-0.06866">
        <ele>2903</ele>
        <time>2011-04-09T09:21:16Z</time>
      </trkpt>
      <trkpt lat="42.83531" lon="-0.06861">
        <ele>2905</ele>
        <time>2011-04-09T09:21:31Z</time>
      </trkpt>
      <trkpt lat="42.8353" lon="-0.06861">
        <ele>2906</ele>
        <time>2011-04-09T09:21:50Z</time>
      </trkpt>
      <trkpt lat="42.83523" lon="-0.06857">
        <ele>2910</ele>
        <time>2011-04-09T09:22:20Z</time>
      </trkpt>
      <trkpt lat="42.8352" lon="-0.0685">
        <ele>2911</ele>
        <time>2011-04-09T09:22:46Z</time>
      </trkpt>
      <trkpt lat="42.83517" lon="-0.06846">
        <ele>2914</ele>
        <time>2011-04-09T09:23:03Z</time>
      </trkpt>
      <trkpt lat="42.83514" lon="-0.06846">
        <ele>2916</ele>
        <time>2011-04-09T09:23:23Z</time>
      </trkpt>
      <trkpt lat="42.8351" lon="-0.06838">
        <ele>2919</ele>
        <time>2011-04-09T09:23:42Z</time>
      </trkpt>
      <trkpt lat="42.83511" lon="-0.06836">
        <ele>2920</ele>
        <time>2011-04-09T09:23:59Z</time>
      </trkpt>
      <trkpt lat="42.83512" lon="-0.06837">
        <ele>2921</ele>
        <time>2011-04-09T09:24:21Z</time>
      </trkpt>
      <trkpt lat="42.8351" lon="-0.06842">
        <ele>2923</ele>
        <time>2011-04-09T09:24:49Z</time>
      </trkpt>
      <trkpt lat="42.83507" lon="-0.06841">
        <ele>2924</ele>
        <time>2011-04-09T09:25:03Z</time>
      </trkpt>
      <trkpt lat="42.83505" lon="-0.06838">
        <ele>2926</ele>
        <time>2011-04-09T09:25:11Z</time>
      </trkpt>
      <trkpt lat="42.83504" lon="-0.06836">
        <ele>2928</ele>
        <time>2011-04-09T09:25:35Z</time>
      </trkpt>
      <trkpt lat="42.83502" lon="-0.06832">
        <ele>2929</ele>
        <time>2011-04-09T09:25:57Z</time>
      </trkpt>
      <trkpt lat="42.83496" lon="-0.06827">
        <ele>2930</ele>
        <time>2011-04-09T09:26:18Z</time>
      </trkpt>
      <trkpt lat="42.83491" lon="-0.06817">
        <ele>2933</ele>
        <time>2011-04-09T09:26:35Z</time>
      </trkpt>
      <trkpt lat="42.83487" lon="-0.06806">
        <ele>2936</ele>
        <time>2011-04-09T09:26:58Z</time>
      </trkpt>
      <trkpt lat="42.83484" lon="-0.06803">
        <ele>2937</ele>
        <time>2011-04-09T09:27:16Z</time>
      </trkpt>
      <trkpt lat="42.83482" lon="-0.06801">
        <ele>2941</ele>
        <time>2011-04-09T09:27:30Z</time>
      </trkpt>
      <trkpt lat="42.83478" lon="-0.06797">
        <ele>2942</ele>
        <time>2011-04-09T09:27:45Z</time>
      </trkpt>
      <trkpt lat="42.83477" lon="-0.06795">
        <ele>2944</ele>
        <time>2011-04-09T09:28:00Z</time>
      </trkpt>
      <trkpt lat="42.83473" lon="-0.06791">
        <ele>2945</ele>
        <time>2011-04-09T09:28:20Z</time>
      </trkpt>
      <trkpt lat="42.83472" lon="-0.06789">
        <ele>2948</ele>
        <time>2011-04-09T09:28:36Z</time>
      </trkpt>
      <trkpt lat="42.8347" lon="-0.06789">
        <ele>2949</ele>
        <time>2011-04-09T09:28:41Z</time>
      </trkpt>
      <trkpt lat="42.83468" lon="-0.06789">
        <ele>2949</ele>
        <time>2011-04-09T09:29:08Z</time>
      </trkpt>
      <trkpt lat="42.83466" lon="-0.06787">
        <ele>2951</ele>
        <time>2011-04-09T09:29:28Z</time>
      </trkpt>
      <trkpt lat="42.83464" lon="-0.06785">
        <ele>2952</ele>
        <time>2011-04-09T09:29:43Z</time>
      </trkpt>
      <trkpt lat="42.83464" lon="-0.06785">
        <ele>2951</ele>
        <time>2011-04-09T09:29:48Z</time>
      </trkpt>
      <trkpt lat="42.83463" lon="-0.06784">
        <ele>2953</ele>
        <time>2011-04-09T09:30:05Z</time>
      </trkpt>
      <trkpt lat="42.83463" lon="-0.06783">
        <ele>2954</ele>
        <time>2011-04-09T09:30:07Z</time>
      </trkpt>
      <trkpt lat="42.8346" lon="-0.06778">
        <ele>2958</ele>
        <time>2011-04-09T09:30:34Z</time>
      </trkpt>
      <trkpt lat="42.83456" lon="-0.06771">
        <ele>2960</ele>
        <time>2011-04-09T09:30:55Z</time>
      </trkpt>
      <trkpt lat="42.83453" lon="-0.06771">
        <ele>2961</ele>
        <time>2011-04-09T09:31:25Z</time>
      </trkpt>
      <trkpt lat="42.83448" lon="-0.06772">
        <ele>2963</ele>
        <time>2011-04-09T09:32:33Z</time>
      </trkpt>
      <trkpt lat="42.83439" lon="-0.0677">
        <ele>2967</ele>
        <time>2011-04-09T09:32:53Z</time>
      </trkpt>
      <trkpt lat="42.83432" lon="-0.06771">
        <ele>2969</ele>
        <time>2011-04-09T09:33:11Z</time>
      </trkpt>
      <trkpt lat="42.83425" lon="-0.0677">
        <ele>2972</ele>
        <time>2011-04-09T09:33:32Z</time>
      </trkpt>
      <trkpt lat="42.83424" lon="-0.06768">
        <ele>2973</ele>
        <time>2011-04-09T09:33:53Z</time>
      </trkpt>
      <trkpt lat="42.83421" lon="-0.06768">
        <ele>2973</ele>
        <time>2011-04-09T09:34:06Z</time>
      </trkpt>
      <trkpt lat="42.83417" lon="-0.06766">
        <ele>2974</ele>
        <time>2011-04-09T09:34:23Z</time>
      </trkpt>
      <trkpt lat="42.83409" lon="-0.06765">
        <ele>2978</ele>
        <time>2011-04-09T09:34:39Z</time>
      </trkpt>
      <trkpt lat="42.83406" lon="-0.06764">
        <ele>2979</ele>
        <time>2011-04-09T09:34:54Z</time>
      </trkpt>
      <trkpt lat="42.83402" lon="-0.06762">
        <ele>2980</ele>
        <time>2011-04-09T09:35:11Z</time>
      </trkpt>
      <trkpt lat="42.834" lon="-0.06759">
        <ele>2979</ele>
        <time>2011-04-09T09:35:33Z</time>
      </trkpt>
      <trkpt lat="42.83402" lon="-0.06763">
        <ele>2980</ele>
        <time>2011-04-09T09:36:12Z</time>
      </trkpt>
      <trkpt lat="42.83407" lon="-0.06763">
        <ele>2979</ele>
        <time>2011-04-09T09:36:28Z</time>
      </trkpt>
      <trkpt lat="42.83408" lon="-0.06765">
        <ele>2978</ele>
        <time>2011-04-09T09:36:56Z</time>
      </trkpt>
      <trkpt lat="42.83411" lon="-0.0677">
        <ele>2976</ele>
        <time>2011-04-09T09:37:15Z</time>
      </trkpt>
      <trkpt lat="42.83411" lon="-0.06771">
        <ele>2976</ele>
        <time>2011-04-09T09:37:39Z</time>
      </trkpt>
      <trkpt lat="42.83412" lon="-0.06771">
        <ele>2974</ele>
        <time>2011-04-09T09:37:48Z</time>
      </trkpt>
      <trkpt lat="42.83412" lon="-0.06772">
        <ele>2961</ele>
        <time>2011-04-09T09:38:17Z</time>
      </trkpt>
      <trkpt lat="42.83412" lon="-0.06771">
        <ele>2961</ele>
        <time>2011-04-09T09:38:18Z</time>
      </trkpt>
      <trkpt lat="42.83412" lon="-0.06771">
        <ele>2975</ele>
        <time>2011-04-09T09:38:19Z</time>
      </trkpt>
      <trkpt lat="42.83412" lon="-0.06771">
        <ele>2975</ele>
        <time>2011-04-09T09:38:20Z</time>
      </trkpt>
      <trkpt lat="42.83412" lon="-0.06771">
        <ele>2969</ele>
        <time>2011-04-09T09:38:22Z</time>
      </trkpt>
      <trkpt lat="42.83412" lon="-0.06771">
        <ele>2969</ele>
        <time>2011-04-09T09:38:23Z</time>
      </trkpt>
      <trkpt lat="42.83412" lon="-0.06771">
        <ele>2976</ele>
        <time>2011-04-09T09:38:24Z</time>
      </trkpt>
      <trkpt lat="42.83412" lon="-0.06771">
        <ele>2976</ele>
        <time>2011-04-09T09:38:25Z</time>
      </trkpt>
      <trkpt lat="42.83412" lon="-0.06771">
        <ele>2975</ele>
        <time>2011-04-09T09:38:27Z</time>
      </trkpt>
      <trkpt lat="42.83411" lon="-0.06772">
        <ele>2973</ele>
        <time>2011-04-09T09:38:34Z</time>
      </trkpt>
      <trkpt lat="42.83411" lon="-0.06772">
        <ele>2973</ele>
        <time>2011-04-09T09:39:04Z</time>
      </trkpt>
      <trkpt lat="42.83411" lon="-0.06772">
        <ele>2975</ele>
        <time>2011-04-09T09:39:09Z</time>
      </trkpt>
      <trkpt lat="42.83411" lon="-0.06772">
        <ele>2976</ele>
        <time>2011-04-09T09:39:53Z</time>
      </trkpt>
      <trkpt lat="42.83411" lon="-0.06772">
        <ele>2974</ele>
        <time>2011-04-09T09:40:25Z</time>
      </trkpt>
      <trkpt lat="42.83411" lon="-0.06772">
        <ele>2974</ele>
        <time>2011-04-09T09:40:34Z</time>
      </trkpt>
      <trkpt lat="42.83411" lon="-0.06771">
        <ele>2970</ele>
        <time>2011-04-09T09:42:18Z</time>
      </trkpt>
      <trkpt lat="42.83411" lon="-0.06772">
        <ele>2970</ele>
        <time>2011-04-09T09:42:19Z</time>
      </trkpt>
      <trkpt lat="42.83411" lon="-0.06772">
        <ele>2976</ele>
        <time>2011-04-09T09:42:20Z</time>
      </trkpt>
      <trkpt lat="42.83411" lon="-0.06772">
        <ele>2976</ele>
        <time>2011-04-09T09:42:21Z</time>
      </trkpt>
      <trkpt lat="42.83411" lon="-0.06771">
        <ele>2974</ele>
        <time>2011-04-09T09:42:56Z</time>
      </trkpt>
      <trkpt lat="42.83411" lon="-0.06771">
        <ele>2976</ele>
        <time>2011-04-09T09:42:58Z</time>
      </trkpt>
      <trkpt lat="42.8341" lon="-0.06771">
        <ele>2975</ele>
        <time>2011-04-09T09:44:28Z</time>
      </trkpt>
      <trkpt lat="42.8341" lon="-0.06771">
        <ele>2977</ele>
        <time>2011-04-09T09:44:30Z</time>
      </trkpt>
      <trkpt lat="42.8341" lon="-0.06771">
        <ele>2976</ele>
        <time>2011-04-09T09:44:49Z</time>
      </trkpt>
      <trkpt lat="42.83409" lon="-0.06771">
        <ele>2979</ele>
        <time>2011-04-09T09:55:48Z</time>
      </trkpt>
      <trkpt lat="42.83409" lon="-0.06771">
        <ele>2979</ele>
        <time>2011-04-09T09:55:49Z</time>
      </trkpt>
      <trkpt lat="42.83409" lon="-0.06771">
        <ele>2976</ele>
        <time>2011-04-09T09:55:50Z</time>
      </trkpt>
      <trkpt lat="42.83409" lon="-0.06771">
        <ele>2976</ele>
        <time>2011-04-09T09:55:51Z</time>
      </trkpt>
      <trkpt lat="42.83409" lon="-0.06771">
        <ele>2979</ele>
        <time>2011-04-09T09:56:10Z</time>
      </trkpt>
      <trkpt lat="42.83407" lon="-0.06771">
        <ele>2976</ele>
        <time>2011-04-09T10:00:08Z</time>
      </trkpt>
      <trkpt lat="42.83407" lon="-0.06771">
        <ele>2975</ele>
        <time>2011-04-09T10:00:15Z</time>
      </trkpt>
      <trkpt lat="42.83407" lon="-0.06771">
        <ele>2979</ele>
        <time>2011-04-09T10:00:16Z</time>
      </trkpt>
      <trkpt lat="42.83407" lon="-0.06771">
        <ele>2977</ele>
        <time>2011-04-09T10:00:17Z</time>
      </trkpt>
      <trkpt lat="42.83407" lon="-0.06771">
        <ele>2980</ele>
        <time>2011-04-09T10:00:19Z</time>
      </trkpt>
      <trkpt lat="42.83407" lon="-0.06771">
        <ele>2980</ele>
        <time>2011-04-09T10:00:20Z</time>
      </trkpt>
      <trkpt lat="42.83407" lon="-0.06771">
        <ele>2979</ele>
        <time>2011-04-09T10:00:22Z</time>
      </trkpt>
      <trkpt lat="42.83407" lon="-0.06771">
        <ele>2980</ele>
        <time>2011-04-09T10:00:46Z</time>
      </trkpt>
      <trkpt lat="42.83407" lon="-0.06771">
        <ele>2978</ele>
        <time>2011-04-09T10:00:48Z</time>
      </trkpt>
      <trkpt lat="42.83409" lon="-0.06771">
        <ele>2980</ele>
        <time>2011-04-09T10:02:33Z</time>
      </trkpt>
      <trkpt lat="42.8341" lon="-0.0677">
        <ele>2980</ele>
        <time>2011-04-09T10:03:14Z</time>
      </trkpt>
      <trkpt lat="42.83411" lon="-0.06768">
        <ele>2981</ele>
        <time>2011-04-09T10:04:05Z</time>
      </trkpt>
      <trkpt lat="42.83417" lon="-0.06767">
        <ele>2981</ele>
        <time>2011-04-09T10:04:41Z</time>
      </trkpt>
      <trkpt lat="42.83423" lon="-0.06769">
        <ele>2978</ele>
        <time>2011-04-09T10:05:00Z</time>
      </trkpt>
      <trkpt lat="42.83426" lon="-0.06769">
        <ele>2977</ele>
        <time>2011-04-09T10:05:18Z</time>
      </trkpt>
      <trkpt lat="42.83431" lon="-0.0677">
        <ele>2975</ele>
        <time>2011-04-09T10:05:36Z</time>
      </trkpt>
      <trkpt lat="42.83437" lon="-0.06771">
        <ele>2972</ele>
        <time>2011-04-09T10:06:02Z</time>
      </trkpt>
      <trkpt lat="42.83438" lon="-0.06771">
        <ele>2972</ele>
        <time>2011-04-09T10:06:03Z</time>
      </trkpt>
      <trkpt lat="42.83445" lon="-0.06772">
        <ele>2970</ele>
        <time>2011-04-09T10:06:14Z</time>
      </trkpt>
      <trkpt lat="42.83448" lon="-0.06773">
        <ele>2968</ele>
        <time>2011-04-09T10:06:17Z</time>
      </trkpt>
      <trkpt lat="42.8345" lon="-0.06773">
        <ele>2967</ele>
        <time>2011-04-09T10:06:19Z</time>
      </trkpt>
      <trkpt lat="42.83456" lon="-0.06773">
        <ele>2966</ele>
        <time>2011-04-09T10:06:25Z</time>
      </trkpt>
      <trkpt lat="42.83459" lon="-0.06777">
        <ele>2964</ele>
        <time>2011-04-09T10:06:30Z</time>
      </trkpt>
      <trkpt lat="42.83463" lon="-0.06784">
        <ele>2960</ele>
        <time>2011-04-09T10:06:43Z</time>
      </trkpt>
      <trkpt lat="42.83466" lon="-0.06787">
        <ele>2957</ele>
        <time>2011-04-09T10:07:02Z</time>
      </trkpt>
      <trkpt lat="42.83469" lon="-0.06788">
        <ele>2956</ele>
        <time>2011-04-09T10:07:20Z</time>
      </trkpt>
      <trkpt lat="42.83471" lon="-0.06791">
        <ele>2954</ele>
        <time>2011-04-09T10:07:35Z</time>
      </trkpt>
      <trkpt lat="42.83476" lon="-0.06793">
        <ele>2951</ele>
        <time>2011-04-09T10:07:50Z</time>
      </trkpt>
      <trkpt lat="42.83479" lon="-0.06798">
        <ele>2948</ele>
        <time>2011-04-09T10:08:00Z</time>
      </trkpt>
      <trkpt lat="42.83484" lon="-0.06801">
        <ele>2944</ele>
        <time>2011-04-09T10:08:13Z</time>
      </trkpt>
      <trkpt lat="42.83488" lon="-0.06807">
        <ele>2942</ele>
        <time>2011-04-09T10:08:27Z</time>
      </trkpt>
      <trkpt lat="42.8349" lon="-0.06815">
        <ele>2939</ele>
        <time>2011-04-09T10:08:39Z</time>
      </trkpt>
      <trkpt lat="42.83493" lon="-0.06825">
        <ele>2936</ele>
        <time>2011-04-09T10:08:49Z</time>
      </trkpt>
      <trkpt lat="42.835" lon="-0.06832">
        <ele>2935</ele>
        <time>2011-04-09T10:09:05Z</time>
      </trkpt>
      <trkpt lat="42.83504" lon="-0.06837">
        <ele>2934</ele>
        <time>2011-04-09T10:09:20Z</time>
      </trkpt>
      <trkpt lat="42.83506" lon="-0.06841">
        <ele>2931</ele>
        <time>2011-04-09T10:09:29Z</time>
      </trkpt>
      <trkpt lat="42.8351" lon="-0.06841">
        <ele>2929</ele>
        <time>2011-04-09T10:09:44Z</time>
      </trkpt>
      <trkpt lat="42.83514" lon="-0.06837">
        <ele>2926</ele>
        <time>2011-04-09T10:09:57Z</time>
      </trkpt>
      <trkpt lat="42.83516" lon="-0.06843">
        <ele>2924</ele>
        <time>2011-04-09T10:10:09Z</time>
      </trkpt>
      <trkpt lat="42.83519" lon="-0.06851">
        <ele>2921</ele>
        <time>2011-04-09T10:10:23Z</time>
      </trkpt>
      <trkpt lat="42.83523" lon="-0.06856">
        <ele>2918</ele>
        <time>2011-04-09T10:10:35Z</time>
      </trkpt>
      <trkpt lat="42.83526" lon="-0.06858">
        <ele>2916</ele>
        <time>2011-04-09T10:10:53Z</time>
      </trkpt>
      <trkpt lat="42.83526" lon="-0.06858">
        <ele>2916</ele>
        <time>2011-04-09T10:12:41Z</time>
      </trkpt>
      <trkpt lat="42.83527" lon="-0.06859">
        <ele>2913</ele>
        <time>2011-04-09T10:12:55Z</time>
      </trkpt>
      <trkpt lat="42.83527" lon="-0.06859">
        <ele>2912</ele>
        <time>2011-04-09T10:13:07Z</time>
      </trkpt>
      <trkpt lat="42.83527" lon="-0.06858">
        <ele>2916</ele>
        <time>2011-04-09T10:13:14Z</time>
      </trkpt>
      <trkpt lat="42.83528" lon="-0.06858">
        <ele>2918</ele>
        <time>2011-04-09T10:13:46Z</time>
      </trkpt>
      <trkpt lat="42.83528" lon="-0.06858">
        <ele>2915</ele>
        <time>2011-04-09T10:13:47Z</time>
      </trkpt>
      <trkpt lat="42.83528" lon="-0.06858">
        <ele>2915</ele>
        <time>2011-04-09T10:13:48Z</time>
      </trkpt>
      <trkpt lat="42.83528" lon="-0.06858">
        <ele>2919</ele>
        <time>2011-04-09T10:13:58Z</time>
      </trkpt>
      <trkpt lat="42.83528" lon="-0.06858">
        <ele>2913</ele>
        <time>2011-04-09T10:14:03Z</time>
      </trkpt>
      <trkpt lat="42.83528" lon="-0.06858">
        <ele>2913</ele>
        <time>2011-04-09T10:14:04Z</time>
      </trkpt>
      <trkpt lat="42.83528" lon="-0.06858">
        <ele>2915</ele>
        <time>2011-04-09T10:14:07Z</time>
      </trkpt>
      <trkpt lat="42.83528" lon="-0.06858">
        <ele>2917</ele>
        <time>2011-04-09T10:14:09Z</time>
      </trkpt>
      <trkpt lat="42.83528" lon="-0.06858">
        <ele>2915</ele>
        <time>2011-04-09T10:14:14Z</time>
      </trkpt>
      <trkpt lat="42.83528" lon="-0.06858">
        <ele>2917</ele>
        <time>2011-04-09T10:14:23Z</time>
      </trkpt>
      <trkpt lat="42.83527" lon="-0.06858">
        <ele>2917</ele>
        <time>2011-04-09T10:14:41Z</time>
      </trkpt>
      <trkpt lat="42.83531" lon="-0.06862">
        <ele>2914</ele>
        <time>2011-04-09T10:15:01Z</time>
      </trkpt>
      <trkpt lat="42.83533" lon="-0.06864">
        <ele>2912</ele>
        <time>2011-04-09T10:15:04Z</time>
      </trkpt>
      <trkpt lat="42.83535" lon="-0.06866">
        <ele>2911</ele>
        <time>2011-04-09T10:15:07Z</time>
      </trkpt>
      <trkpt lat="42.83543" lon="-0.0687">
        <ele>2908</ele>
        <time>2011-04-09T10:15:17Z</time>
      </trkpt>
      <trkpt lat="42.83544" lon="-0.0687">
        <ele>2907</ele>
        <time>2011-04-09T10:15:18Z</time>
      </trkpt>
      <trkpt lat="42.83549" lon="-0.06876">
        <ele>2904</ele>
        <time>2011-04-09T10:15:29Z</time>
      </trkpt>
      <trkpt lat="42.83554" lon="-0.06885">
        <ele>2900</ele>
        <time>2011-04-09T10:15:40Z</time>
      </trkpt>
      <trkpt lat="42.83559" lon="-0.06892">
        <ele>2897</ele>
        <time>2011-04-09T10:15:52Z</time>
      </trkpt>
      <trkpt lat="42.8356" lon="-0.06894">
        <ele>2895</ele>
        <time>2011-04-09T10:15:56Z</time>
      </trkpt>
      <trkpt lat="42.83559" lon="-0.069">
        <ele>2892</ele>
        <time>2011-04-09T10:16:06Z</time>
      </trkpt>
      <trkpt lat="42.83566" lon="-0.06901">
        <ele>2889</ele>
        <time>2011-04-09T10:16:19Z</time>
      </trkpt>
      <trkpt lat="42.83568" lon="-0.06902">
        <ele>2888</ele>
        <time>2011-04-09T10:16:21Z</time>
      </trkpt>
      <trkpt lat="42.83574" lon="-0.0691">
        <ele>2885</ele>
        <time>2011-04-09T10:16:31Z</time>
      </trkpt>
      <trkpt lat="42.83575" lon="-0.06914">
        <ele>2883</ele>
        <time>2011-04-09T10:16:35Z</time>
      </trkpt>
      <trkpt lat="42.83576" lon="-0.06913">
        <ele>2881</ele>
        <time>2011-04-09T10:16:39Z</time>
      </trkpt>
      <trkpt lat="42.83576" lon="-0.06913">
        <ele>2877</ele>
        <time>2011-04-09T10:17:01Z</time>
      </trkpt>
      <trkpt lat="42.83576" lon="-0.06913">
        <ele>2880</ele>
        <time>2011-04-09T10:17:02Z</time>
      </trkpt>
      <trkpt lat="42.83576" lon="-0.06914">
        <ele>2881</ele>
        <time>2011-04-09T10:17:30Z</time>
      </trkpt>
      <trkpt lat="42.83577" lon="-0.06911">
        <ele>2881</ele>
        <time>2011-04-09T10:19:38Z</time>
      </trkpt>
      <trkpt lat="42.83577" lon="-0.06911">
        <ele>2880</ele>
        <time>2011-04-09T10:19:42Z</time>
      </trkpt>
      <trkpt lat="42.83577" lon="-0.06911">
        <ele>2882</ele>
        <time>2011-04-09T10:23:02Z</time>
      </trkpt>
      <trkpt lat="42.83577" lon="-0.06911">
        <ele>2880</ele>
        <time>2011-04-09T10:23:04Z</time>
      </trkpt>
      <trkpt lat="42.83577" lon="-0.06911">
        <ele>2878</ele>
        <time>2011-04-09T10:26:32Z</time>
      </trkpt>
      <trkpt lat="42.83577" lon="-0.06911">
        <ele>2883</ele>
        <time>2011-04-09T10:26:34Z</time>
      </trkpt>
      <trkpt lat="42.83577" lon="-0.06911">
        <ele>2883</ele>
        <time>2011-04-09T10:26:35Z</time>
      </trkpt>
      <trkpt lat="42.83577" lon="-0.06911">
        <ele>2883</ele>
        <time>2011-04-09T10:26:48Z</time>
      </trkpt>
      <trkpt lat="42.8358" lon="-0.0691">
        <ele>2882</ele>
        <time>2011-04-09T10:27:20Z</time>
      </trkpt>
      <trkpt lat="42.8358" lon="-0.0691">
        <ele>2881</ele>
        <time>2011-04-09T10:27:22Z</time>
      </trkpt>
      <trkpt lat="42.83584" lon="-0.06905">
        <ele>2876</ele>
        <time>2011-04-09T10:27:25Z</time>
      </trkpt>
      <trkpt lat="42.83584" lon="-0.06904">
        <ele>2876</ele>
        <time>2011-04-09T10:27:26Z</time>
      </trkpt>
      <trkpt lat="42.83585" lon="-0.06903">
        <ele>2876</ele>
        <time>2011-04-09T10:27:27Z</time>
      </trkpt>
      <trkpt lat="42.83586" lon="-0.06902">
        <ele>2874</ele>
        <time>2011-04-09T10:27:30Z</time>
      </trkpt>
      <trkpt lat="42.83589" lon="-0.06901">
        <ele>2869</ele>
        <time>2011-04-09T10:27:32Z</time>
      </trkpt>
      <trkpt lat="42.83592" lon="-0.06901">
        <ele>2869</ele>
        <time>2011-04-09T10:27:33Z</time>
      </trkpt>
      <trkpt lat="42.83596" lon="-0.06901">
        <ele>2866</ele>
        <time>2011-04-09T10:27:34Z</time>
      </trkpt>
      <trkpt lat="42.83607" lon="-0.069">
        <ele>2862</ele>
        <time>2011-04-09T10:27:37Z</time>
      </trkpt>
      <trkpt lat="42.83609" lon="-0.069">
        <ele>2857</ele>
        <time>2011-04-09T10:27:38Z</time>
      </trkpt>
      <trkpt lat="42.83613" lon="-0.069">
        <ele>2854</ele>
        <time>2011-04-09T10:27:39Z</time>
      </trkpt>
      <trkpt lat="42.83621" lon="-0.06903">
        <ele>2852</ele>
        <time>2011-04-09T10:27:42Z</time>
      </trkpt>
      <trkpt lat="42.83622" lon="-0.06903">
        <ele>2849</ele>
        <time>2011-04-09T10:27:43Z</time>
      </trkpt>
      <trkpt lat="42.83623" lon="-0.06904">
        <ele>2849</ele>
        <time>2011-04-09T10:27:44Z</time>
      </trkpt>
      <trkpt lat="42.83626" lon="-0.06905">
        <ele>2846</ele>
        <time>2011-04-09T10:27:45Z</time>
      </trkpt>
      <trkpt lat="42.83627" lon="-0.06906">
        <ele>2842</ele>
        <time>2011-04-09T10:27:47Z</time>
      </trkpt>
      <trkpt lat="42.83628" lon="-0.06906">
        <ele>2841</ele>
        <time>2011-04-09T10:27:49Z</time>
      </trkpt>
      <trkpt lat="42.83629" lon="-0.06905">
        <ele>2841</ele>
        <time>2011-04-09T10:27:52Z</time>
      </trkpt>
      <trkpt lat="42.83635" lon="-0.06911">
        <ele>2839</ele>
        <time>2011-04-09T10:27:56Z</time>
      </trkpt>
      <trkpt lat="42.83636" lon="-0.06914">
        <ele>2837</ele>
        <time>2011-04-09T10:28:07Z</time>
      </trkpt>
      <trkpt lat="42.83642" lon="-0.06918">
        <ele>2836</ele>
        <time>2011-04-09T10:28:14Z</time>
      </trkpt>
      <trkpt lat="42.83649" lon="-0.06911">
        <ele>2828</ele>
        <time>2011-04-09T10:28:16Z</time>
      </trkpt>
      <trkpt lat="42.8365" lon="-0.06909">
        <ele>2825</ele>
        <time>2011-04-09T10:28:19Z</time>
      </trkpt>
      <trkpt lat="42.83652" lon="-0.06908">
        <ele>2824</ele>
        <time>2011-04-09T10:28:32Z</time>
      </trkpt>
      <trkpt lat="42.83658" lon="-0.06906">
        <ele>2823</ele>
        <time>2011-04-09T10:28:35Z</time>
      </trkpt>
      <trkpt lat="42.83664" lon="-0.06905">
        <ele>2820</ele>
        <time>2011-04-09T10:28:37Z</time>
      </trkpt>
      <trkpt lat="42.83667" lon="-0.06903">
        <ele>2816</ele>
        <time>2011-04-09T10:28:38Z</time>
      </trkpt>
      <trkpt lat="42.83669" lon="-0.069">
        <ele>2813</ele>
        <time>2011-04-09T10:28:39Z</time>
      </trkpt>
      <trkpt lat="42.83672" lon="-0.06899">
        <ele>2813</ele>
        <time>2011-04-09T10:28:40Z</time>
      </trkpt>
      <trkpt lat="42.83669" lon="-0.06901">
        <ele>2810</ele>
        <time>2011-04-09T10:28:41Z</time>
      </trkpt>
      <trkpt lat="42.83669" lon="-0.06901">
        <ele>2810</ele>
        <time>2011-04-09T10:28:42Z</time>
      </trkpt>
      <trkpt lat="42.8367" lon="-0.06901">
        <ele>2808</ele>
        <time>2011-04-09T10:28:44Z</time>
      </trkpt>
      <trkpt lat="42.8367" lon="-0.06901">
        <ele>2809</ele>
        <time>2011-04-09T10:28:49Z</time>
      </trkpt>
      <trkpt lat="42.83675" lon="-0.06902">
        <ele>2805</ele>
        <time>2011-04-09T10:28:53Z</time>
      </trkpt>
      <trkpt lat="42.83676" lon="-0.06902">
        <ele>2805</ele>
        <time>2011-04-09T10:28:54Z</time>
      </trkpt>
      <trkpt lat="42.83677" lon="-0.06904">
        <ele>2804</ele>
        <time>2011-04-09T10:28:56Z</time>
      </trkpt>
      <trkpt lat="42.83678" lon="-0.06909">
        <ele>2803</ele>
        <time>2011-04-09T10:28:59Z</time>
      </trkpt>
      <trkpt lat="42.83679" lon="-0.06911">
        <ele>2802</ele>
        <time>2011-04-09T10:29:05Z</time>
      </trkpt>
      <trkpt lat="42.83681" lon="-0.06913">
        <ele>2801</ele>
        <time>2011-04-09T10:29:08Z</time>
      </trkpt>
      <trkpt lat="42.83681" lon="-0.0692">
        <ele>2799</ele>
        <time>2011-04-09T10:29:10Z</time>
      </trkpt>
      <trkpt lat="42.83683" lon="-0.06936">
        <ele>2797</ele>
        <time>2011-04-09T10:29:20Z</time>
      </trkpt>
      <trkpt lat="42.83684" lon="-0.06951">
        <ele>2795</ele>
        <time>2011-04-09T10:29:24Z</time>
      </trkpt>
      <trkpt lat="42.83685" lon="-0.0696">
        <ele>2793</ele>
        <time>2011-04-09T10:29:26Z</time>
      </trkpt>
      <trkpt lat="42.83686" lon="-0.06971">
        <ele>2792</ele>
        <time>2011-04-09T10:29:37Z</time>
      </trkpt>
      <trkpt lat="42.83687" lon="-0.06973">
        <ele>2792</ele>
        <time>2011-04-09T10:29:42Z</time>
      </trkpt>
      <trkpt lat="42.83693" lon="-0.06981">
        <ele>2790</ele>
        <time>2011-04-09T10:29:46Z</time>
      </trkpt>
      <trkpt lat="42.83695" lon="-0.06976">
        <ele>2788</ele>
        <time>2011-04-09T10:29:49Z</time>
      </trkpt>
      <trkpt lat="42.83696" lon="-0.06972">
        <ele>2785</ele>
        <time>2011-04-09T10:29:51Z</time>
      </trkpt>
      <trkpt lat="42.83697" lon="-0.06957">
        <ele>2783</ele>
        <time>2011-04-09T10:29:54Z</time>
      </trkpt>
      <trkpt lat="42.83697" lon="-0.06953">
        <ele>2782</ele>
        <time>2011-04-09T10:29:56Z</time>
      </trkpt>
      <trkpt lat="42.837" lon="-0.06945">
        <ele>2781</ele>
        <time>2011-04-09T10:29:58Z</time>
      </trkpt>
      <trkpt lat="42.83706" lon="-0.06926">
        <ele>2778</ele>
        <time>2011-04-09T10:30:01Z</time>
      </trkpt>
      <trkpt lat="42.83709" lon="-0.06914">
        <ele>2776</ele>
        <time>2011-04-09T10:30:03Z</time>
      </trkpt>
      <trkpt lat="42.83712" lon="-0.06905">
        <ele>2775</ele>
        <time>2011-04-09T10:30:05Z</time>
      </trkpt>
      <trkpt lat="42.83712" lon="-0.06898">
        <ele>2774</ele>
        <time>2011-04-09T10:30:08Z</time>
      </trkpt>
      <trkpt lat="42.83713" lon="-0.0688">
        <ele>2771</ele>
        <time>2011-04-09T10:30:45Z</time>
      </trkpt>
      <trkpt lat="42.83714" lon="-0.06879">
        <ele>2771</ele>
        <time>2011-04-09T10:31:16Z</time>
      </trkpt>
      <trkpt lat="42.83712" lon="-0.06869">
        <ele>2768</ele>
        <time>2011-04-09T10:31:21Z</time>
      </trkpt>
      <trkpt lat="42.83721" lon="-0.06869">
        <ele>2765</ele>
        <time>2011-04-09T10:31:23Z</time>
      </trkpt>
      <trkpt lat="42.8373" lon="-0.0686">
        <ele>2763</ele>
        <time>2011-04-09T10:31:26Z</time>
      </trkpt>
      <trkpt lat="42.83733" lon="-0.06856">
        <ele>2757</ele>
        <time>2011-04-09T10:31:27Z</time>
      </trkpt>
      <trkpt lat="42.83733" lon="-0.06849">
        <ele>2752</ele>
        <time>2011-04-09T10:31:28Z</time>
      </trkpt>
      <trkpt lat="42.83735" lon="-0.0684">
        <ele>2752</ele>
        <time>2011-04-09T10:31:29Z</time>
      </trkpt>
      <trkpt lat="42.83739" lon="-0.06837">
        <ele>2748</ele>
        <time>2011-04-09T10:31:30Z</time>
      </trkpt>
      <trkpt lat="42.83744" lon="-0.06837">
        <ele>2748</ele>
        <time>2011-04-09T10:31:31Z</time>
      </trkpt>
      <trkpt lat="42.83747" lon="-0.06832">
        <ele>2744</ele>
        <time>2011-04-09T10:31:32Z</time>
      </trkpt>
      <trkpt lat="42.83746" lon="-0.06827">
        <ele>2744</ele>
        <time>2011-04-09T10:31:33Z</time>
      </trkpt>
      <trkpt lat="42.83745" lon="-0.06826">
        <ele>2740</ele>
        <time>2011-04-09T10:31:34Z</time>
      </trkpt>
      <trkpt lat="42.83745" lon="-0.06827">
        <ele>2740</ele>
        <time>2011-04-09T10:31:36Z</time>
      </trkpt>
      <trkpt lat="42.83745" lon="-0.06828">
        <ele>2739</ele>
        <time>2011-04-09T10:32:12Z</time>
      </trkpt>
      <trkpt lat="42.83745" lon="-0.06827">
        <ele>2739</ele>
        <time>2011-04-09T10:32:27Z</time>
      </trkpt>
      <trkpt lat="42.83734" lon="-0.06805">
        <ele>2736</ele>
        <time>2011-04-09T10:32:33Z</time>
      </trkpt>
      <trkpt lat="42.8373" lon="-0.06793">
        <ele>2735</ele>
        <time>2011-04-09T10:32:35Z</time>
      </trkpt>
      <trkpt lat="42.83721" lon="-0.06776">
        <ele>2733</ele>
        <time>2011-04-09T10:32:38Z</time>
      </trkpt>
      <trkpt lat="42.83717" lon="-0.0677">
        <ele>2732</ele>
        <time>2011-04-09T10:32:39Z</time>
      </trkpt>
      <trkpt lat="42.83711" lon="-0.06754">
        <ele>2730</ele>
        <time>2011-04-09T10:32:41Z</time>
      </trkpt>
      <trkpt lat="42.83705" lon="-0.06738">
        <ele>2728</ele>
        <time>2011-04-09T10:32:43Z</time>
      </trkpt>
      <trkpt lat="42.83701" lon="-0.06722">
        <ele>2726</ele>
        <time>2011-04-09T10:32:45Z</time>
      </trkpt>
      <trkpt lat="42.83694" lon="-0.067">
        <ele>2724</ele>
        <time>2011-04-09T10:32:48Z</time>
      </trkpt>
      <trkpt lat="42.83694" lon="-0.06687">
        <ele>2724</ele>
        <time>2011-04-09T10:32:50Z</time>
      </trkpt>
      <trkpt lat="42.83688" lon="-0.06673">
        <ele>2721</ele>
        <time>2011-04-09T10:32:52Z</time>
      </trkpt>
      <trkpt lat="42.83687" lon="-0.06663">
        <ele>2718</ele>
        <time>2011-04-09T10:32:53Z</time>
      </trkpt>
      <trkpt lat="42.83686" lon="-0.06652">
        <ele>2718</ele>
        <time>2011-04-09T10:32:54Z</time>
      </trkpt>
      <trkpt lat="42.83685" lon="-0.06641">
        <ele>2713</ele>
        <time>2011-04-09T10:32:55Z</time>
      </trkpt>
      <trkpt lat="42.83684" lon="-0.06618">
        <ele>2711</ele>
        <time>2011-04-09T10:32:57Z</time>
      </trkpt>
      <trkpt lat="42.83679" lon="-0.06597">
        <ele>2707</ele>
        <time>2011-04-09T10:32:59Z</time>
      </trkpt>
      <trkpt lat="42.83681" lon="-0.06582">
        <ele>2706</ele>
        <time>2011-04-09T10:33:01Z</time>
      </trkpt>
      <trkpt lat="42.83687" lon="-0.06571">
        <ele>2701</ele>
        <time>2011-04-09T10:33:03Z</time>
      </trkpt>
      <trkpt lat="42.83695" lon="-0.06561">
        <ele>2698</ele>
        <time>2011-04-09T10:33:05Z</time>
      </trkpt>
      <trkpt lat="42.83704" lon="-0.06549">
        <ele>2695</ele>
        <time>2011-04-09T10:33:08Z</time>
      </trkpt>
      <trkpt lat="42.83705" lon="-0.06542">
        <ele>2693</ele>
        <time>2011-04-09T10:33:09Z</time>
      </trkpt>
      <trkpt lat="42.83712" lon="-0.0653">
        <ele>2690</ele>
        <time>2011-04-09T10:33:11Z</time>
      </trkpt>
      <trkpt lat="42.83717" lon="-0.06516">
        <ele>2689</ele>
        <time>2011-04-09T10:33:13Z</time>
      </trkpt>
      <trkpt lat="42.83724" lon="-0.0651">
        <ele>2686</ele>
        <time>2011-04-09T10:33:15Z</time>
      </trkpt>
      <trkpt lat="42.83725" lon="-0.0651">
        <ele>2685</ele>
        <time>2011-04-09T10:33:16Z</time>
      </trkpt>
      <trkpt lat="42.83727" lon="-0.06512">
        <ele>2685</ele>
        <time>2011-04-09T10:33:35Z</time>
      </trkpt>
      <trkpt lat="42.83729" lon="-0.06497">
        <ele>2683</ele>
        <time>2011-04-09T10:33:39Z</time>
      </trkpt>
      <trkpt lat="42.83733" lon="-0.06484">
        <ele>2682</ele>
        <time>2011-04-09T10:33:41Z</time>
      </trkpt>
      <trkpt lat="42.83738" lon="-0.0647">
        <ele>2680</ele>
        <time>2011-04-09T10:33:43Z</time>
      </trkpt>
      <trkpt lat="42.83742" lon="-0.06455">
        <ele>2678</ele>
        <time>2011-04-09T10:33:45Z</time>
      </trkpt>
      <trkpt lat="42.83744" lon="-0.06449">
        <ele>2675</ele>
        <time>2011-04-09T10:33:46Z</time>
      </trkpt>
      <trkpt lat="42.83748" lon="-0.06434">
        <ele>2673</ele>
        <time>2011-04-09T10:33:48Z</time>
      </trkpt>
      <trkpt lat="42.83749" lon="-0.06426">
        <ele>2669</ele>
        <time>2011-04-09T10:33:49Z</time>
      </trkpt>
      <trkpt lat="42.8375" lon="-0.06418">
        <ele>2669</ele>
        <time>2011-04-09T10:33:50Z</time>
      </trkpt>
      <trkpt lat="42.83752" lon="-0.06411">
        <ele>2666</ele>
        <time>2011-04-09T10:33:51Z</time>
      </trkpt>
      <trkpt lat="42.83751" lon="-0.06394">
        <ele>2663</ele>
        <time>2011-04-09T10:33:53Z</time>
      </trkpt>
      <trkpt lat="42.83746" lon="-0.06378">
        <ele>2660</ele>
        <time>2011-04-09T10:33:55Z</time>
      </trkpt>
      <trkpt lat="42.83748" lon="-0.06365">
        <ele>2659</ele>
        <time>2011-04-09T10:33:57Z</time>
      </trkpt>
      <trkpt lat="42.83752" lon="-0.0635">
        <ele>2656</ele>
        <time>2011-04-09T10:33:59Z</time>
      </trkpt>
      <trkpt lat="42.83755" lon="-0.06351">
        <ele>2654</ele>
        <time>2011-04-09T10:34:02Z</time>
      </trkpt>
      <trkpt lat="42.83755" lon="-0.06354">
        <ele>2653</ele>
        <time>2011-04-09T10:34:12Z</time>
      </trkpt>
      <trkpt lat="42.83763" lon="-0.06338">
        <ele>2649</ele>
        <time>2011-04-09T10:34:17Z</time>
      </trkpt>
      <trkpt lat="42.83767" lon="-0.06332">
        <ele>2649</ele>
        <time>2011-04-09T10:34:18Z</time>
      </trkpt>
      <trkpt lat="42.83771" lon="-0.06321">
        <ele>2646</ele>
        <time>2011-04-09T10:34:20Z</time>
      </trkpt>
      <trkpt lat="42.83777" lon="-0.0631">
        <ele>2644</ele>
        <time>2011-04-09T10:34:22Z</time>
      </trkpt>
      <trkpt lat="42.83792" lon="-0.06309">
        <ele>2641</ele>
        <time>2011-04-09T10:34:25Z</time>
      </trkpt>
      <trkpt lat="42.83801" lon="-0.06312">
        <ele>2640</ele>
        <time>2011-04-09T10:34:27Z</time>
      </trkpt>
      <trkpt lat="42.83806" lon="-0.06313">
        <ele>2639</ele>
        <time>2011-04-09T10:34:28Z</time>
      </trkpt>
      <trkpt lat="42.83815" lon="-0.06316">
        <ele>2638</ele>
        <time>2011-04-09T10:34:30Z</time>
      </trkpt>
      <trkpt lat="42.83819" lon="-0.06308">
        <ele>2637</ele>
        <time>2011-04-09T10:34:32Z</time>
      </trkpt>
      <trkpt lat="42.83818" lon="-0.06301">
        <ele>2634</ele>
        <time>2011-04-09T10:34:33Z</time>
      </trkpt>
      <trkpt lat="42.83824" lon="-0.0629">
        <ele>2630</ele>
        <time>2011-04-09T10:34:35Z</time>
      </trkpt>
      <trkpt lat="42.83832" lon="-0.06289">
        <ele>2630</ele>
        <time>2011-04-09T10:34:36Z</time>
      </trkpt>
      <trkpt lat="42.83846" lon="-0.06288">
        <ele>2626</ele>
        <time>2011-04-09T10:34:38Z</time>
      </trkpt>
      <trkpt lat="42.83851" lon="-0.06286">
        <ele>2626</ele>
        <time>2011-04-09T10:34:39Z</time>
      </trkpt>
      <trkpt lat="42.83871" lon="-0.06278">
        <ele>2624</ele>
        <time>2011-04-09T10:34:44Z</time>
      </trkpt>
      <trkpt lat="42.83886" lon="-0.06273">
        <ele>2623</ele>
        <time>2011-04-09T10:34:47Z</time>
      </trkpt>
      <trkpt lat="42.83903" lon="-0.06276">
        <ele>2620</ele>
        <time>2011-04-09T10:34:51Z</time>
      </trkpt>
      <trkpt lat="42.83913" lon="-0.06279">
        <ele>2616</ele>
        <time>2011-04-09T10:35:00Z</time>
      </trkpt>
      <trkpt lat="42.83913" lon="-0.06278">
        <ele>2617</ele>
        <time>2011-04-09T10:35:19Z</time>
      </trkpt>
      <trkpt lat="42.83929" lon="-0.06296">
        <ele>2616</ele>
        <time>2011-04-09T10:35:25Z</time>
      </trkpt>
      <trkpt lat="42.83944" lon="-0.06308">
        <ele>2609</ele>
        <time>2011-04-09T10:35:29Z</time>
      </trkpt>
      <trkpt lat="42.8395" lon="-0.06317">
        <ele>2606</ele>
        <time>2011-04-09T10:35:31Z</time>
      </trkpt>
      <trkpt lat="42.83961" lon="-0.06306">
        <ele>2603</ele>
        <time>2011-04-09T10:35:34Z</time>
      </trkpt>
      <trkpt lat="42.83967" lon="-0.06303">
        <ele>2599</ele>
        <time>2011-04-09T10:35:35Z</time>
      </trkpt>
      <trkpt lat="42.83978" lon="-0.06297">
        <ele>2595</ele>
        <time>2011-04-09T10:35:37Z</time>
      </trkpt>
      <trkpt lat="42.83984" lon="-0.06296">
        <ele>2590</ele>
        <time>2011-04-09T10:35:38Z</time>
      </trkpt>
      <trkpt lat="42.83988" lon="-0.06292">
        <ele>2590</ele>
        <time>2011-04-09T10:35:39Z</time>
      </trkpt>
      <trkpt lat="42.83987" lon="-0.06286">
        <ele>2588</ele>
        <time>2011-04-09T10:35:40Z</time>
      </trkpt>
      <trkpt lat="42.83986" lon="-0.06279">
        <ele>2588</ele>
        <time>2011-04-09T10:35:41Z</time>
      </trkpt>
      <trkpt lat="42.83986" lon="-0.06273">
        <ele>2584</ele>
        <time>2011-04-09T10:35:42Z</time>
      </trkpt>
      <trkpt lat="42.83987" lon="-0.06265">
        <ele>2584</ele>
        <time>2011-04-09T10:35:43Z</time>
      </trkpt>
      <trkpt lat="42.8399" lon="-0.06244">
        <ele>2575</ele>
        <time>2011-04-09T10:35:45Z</time>
      </trkpt>
      <trkpt lat="42.83994" lon="-0.06231">
        <ele>2575</ele>
        <time>2011-04-09T10:35:46Z</time>
      </trkpt>
      <trkpt lat="42.83998" lon="-0.06217">
        <ele>2569</ele>
        <time>2011-04-09T10:35:47Z</time>
      </trkpt>
      <trkpt lat="42.84004" lon="-0.06204">
        <ele>2569</ele>
        <time>2011-04-09T10:35:48Z</time>
      </trkpt>
      <trkpt lat="42.84017" lon="-0.06192">
        <ele>2565</ele>
        <time>2011-04-09T10:35:50Z</time>
      </trkpt>
      <trkpt lat="42.8403" lon="-0.06199">
        <ele>2565</ele>
        <time>2011-04-09T10:35:55Z</time>
      </trkpt>
      <trkpt lat="42.84045" lon="-0.06213">
        <ele>2564</ele>
        <time>2011-04-09T10:36:02Z</time>
      </trkpt>
      <trkpt lat="42.84053" lon="-0.06215">
        <ele>2563</ele>
        <time>2011-04-09T10:36:04Z</time>
      </trkpt>
      <trkpt lat="42.84068" lon="-0.0622">
        <ele>2560</ele>
        <time>2011-04-09T10:36:07Z</time>
      </trkpt>
      <trkpt lat="42.84072" lon="-0.06224">
        <ele>2557</ele>
        <time>2011-04-09T10:36:08Z</time>
      </trkpt>
      <trkpt lat="42.8408" lon="-0.06225">
        <ele>2554</ele>
        <time>2011-04-09T10:36:11Z</time>
      </trkpt>
      <trkpt lat="42.84081" lon="-0.06226">
        <ele>2552</ele>
        <time>2011-04-09T10:36:13Z</time>
      </trkpt>
      <trkpt lat="42.84081" lon="-0.06226">
        <ele>2552</ele>
        <time>2011-04-09T10:36:18Z</time>
      </trkpt>
      <trkpt lat="42.84093" lon="-0.06229">
        <ele>2550</ele>
        <time>2011-04-09T10:36:20Z</time>
      </trkpt>
      <trkpt lat="42.84114" lon="-0.06226">
        <ele>2548</ele>
        <time>2011-04-09T10:36:23Z</time>
      </trkpt>
      <trkpt lat="42.84121" lon="-0.06226">
        <ele>2545</ele>
        <time>2011-04-09T10:36:24Z</time>
      </trkpt>
      <trkpt lat="42.8413" lon="-0.06228">
        <ele>2545</ele>
        <time>2011-04-09T10:36:25Z</time>
      </trkpt>
      <trkpt lat="42.8415" lon="-0.06229">
        <ele>2541</ele>
        <time>2011-04-09T10:36:27Z</time>
      </trkpt>
      <trkpt lat="42.84164" lon="-0.06228">
        <ele>2537</ele>
        <time>2011-04-09T10:36:29Z</time>
      </trkpt>
      <trkpt lat="42.84171" lon="-0.06228">
        <ele>2537</ele>
        <time>2011-04-09T10:36:30Z</time>
      </trkpt>
      <trkpt lat="42.84204" lon="-0.06218">
        <ele>2535</ele>
        <time>2011-04-09T10:36:40Z</time>
      </trkpt>
      <trkpt lat="42.84215" lon="-0.06207">
        <ele>2535</ele>
        <time>2011-04-09T10:36:49Z</time>
      </trkpt>
      <trkpt lat="42.84236" lon="-0.06181">
        <ele>2532</ele>
        <time>2011-04-09T10:36:55Z</time>
      </trkpt>
      <trkpt lat="42.84258" lon="-0.06164">
        <ele>2529</ele>
        <time>2011-04-09T10:37:01Z</time>
      </trkpt>
      <trkpt lat="42.84276" lon="-0.06152">
        <ele>2527</ele>
        <time>2011-04-09T10:37:05Z</time>
      </trkpt>
      <trkpt lat="42.84287" lon="-0.06147">
        <ele>2526</ele>
        <time>2011-04-09T10:37:09Z</time>
      </trkpt>
      <trkpt lat="42.84289" lon="-0.06143">
        <ele>2525</ele>
        <time>2011-04-09T10:37:26Z</time>
      </trkpt>
      <trkpt lat="42.8429" lon="-0.06144">
        <ele>2526</ele>
        <time>2011-04-09T10:38:09Z</time>
      </trkpt>
      <trkpt lat="42.84308" lon="-0.06129">
        <ele>2524</ele>
        <time>2011-04-09T10:38:29Z</time>
      </trkpt>
      <trkpt lat="42.84316" lon="-0.06119">
        <ele>2523</ele>
        <time>2011-04-09T10:38:31Z</time>
      </trkpt>
      <trkpt lat="42.84327" lon="-0.0611">
        <ele>2522</ele>
        <time>2011-04-09T10:38:33Z</time>
      </trkpt>
      <trkpt lat="42.84339" lon="-0.06108">
        <ele>2520</ele>
        <time>2011-04-09T10:38:35Z</time>
      </trkpt>
      <trkpt lat="42.84351" lon="-0.06108">
        <ele>2518</ele>
        <time>2011-04-09T10:38:37Z</time>
      </trkpt>
      <trkpt lat="42.84369" lon="-0.06115">
        <ele>2517</ele>
        <time>2011-04-09T10:38:44Z</time>
      </trkpt>
      <trkpt lat="42.84375" lon="-0.06114">
        <ele>2516</ele>
        <time>2011-04-09T10:38:53Z</time>
      </trkpt>
      <trkpt lat="42.84393" lon="-0.06103">
        <ele>2513</ele>
        <time>2011-04-09T10:39:01Z</time>
      </trkpt>
      <trkpt lat="42.84398" lon="-0.06099">
        <ele>2511</ele>
        <time>2011-04-09T10:39:03Z</time>
      </trkpt>
      <trkpt lat="42.84409" lon="-0.06085">
        <ele>2508</ele>
        <time>2011-04-09T10:39:08Z</time>
      </trkpt>
      <trkpt lat="42.84416" lon="-0.06073">
        <ele>2507</ele>
        <time>2011-04-09T10:39:10Z</time>
      </trkpt>
      <trkpt lat="42.84419" lon="-0.06066">
        <ele>2505</ele>
        <time>2011-04-09T10:39:11Z</time>
      </trkpt>
      <trkpt lat="42.84432" lon="-0.06048">
        <ele>2503</ele>
        <time>2011-04-09T10:39:14Z</time>
      </trkpt>
      <trkpt lat="42.84439" lon="-0.0604">
        <ele>2501</ele>
        <time>2011-04-09T10:39:17Z</time>
      </trkpt>
      <trkpt lat="42.84446" lon="-0.06036">
        <ele>2500</ele>
        <time>2011-04-09T10:39:19Z</time>
      </trkpt>
      <trkpt lat="42.84468" lon="-0.06006">
        <ele>2496</ele>
        <time>2011-04-09T10:39:25Z</time>
      </trkpt>
      <trkpt lat="42.84472" lon="-0.06002">
        <ele>2496</ele>
        <time>2011-04-09T10:39:26Z</time>
      </trkpt>
      <trkpt lat="42.84488" lon="-0.05977">
        <ele>2493</ele>
        <time>2011-04-09T10:39:32Z</time>
      </trkpt>
      <trkpt lat="42.84493" lon="-0.05967">
        <ele>2492</ele>
        <time>2011-04-09T10:39:34Z</time>
      </trkpt>
      <trkpt lat="42.84505" lon="-0.05957">
        <ele>2491</ele>
        <time>2011-04-09T10:39:37Z</time>
      </trkpt>
      <trkpt lat="42.8451" lon="-0.05955">
        <ele>2489</ele>
        <time>2011-04-09T10:39:38Z</time>
      </trkpt>
      <trkpt lat="42.84526" lon="-0.05945">
        <ele>2488</ele>
        <time>2011-04-09T10:39:42Z</time>
      </trkpt>
      <trkpt lat="42.8454" lon="-0.05934">
        <ele>2487</ele>
        <time>2011-04-09T10:39:46Z</time>
      </trkpt>
      <trkpt lat="42.84557" lon="-0.05929">
        <ele>2485</ele>
        <time>2011-04-09T10:39:55Z</time>
      </trkpt>
      <trkpt lat="42.84557" lon="-0.05929">
        <ele>2485</ele>
        <time>2011-04-09T10:40:00Z</time>
      </trkpt>
      <trkpt lat="42.84564" lon="-0.0592">
        <ele>2485</ele>
        <time>2011-04-09T10:40:05Z</time>
      </trkpt>
      <trkpt lat="42.8458" lon="-0.05896">
        <ele>2483</ele>
        <time>2011-04-09T10:40:13Z</time>
      </trkpt>
      <trkpt lat="42.84597" lon="-0.0587">
        <ele>2480</ele>
        <time>2011-04-09T10:40:17Z</time>
      </trkpt>
      <trkpt lat="42.84603" lon="-0.05863">
        <ele>2479</ele>
        <time>2011-04-09T10:40:18Z</time>
      </trkpt>
      <trkpt lat="42.8462" lon="-0.05844">
        <ele>2477</ele>
        <time>2011-04-09T10:40:21Z</time>
      </trkpt>
      <trkpt lat="42.84635" lon="-0.05828">
        <ele>2475</ele>
        <time>2011-04-09T10:40:24Z</time>
      </trkpt>
      <trkpt lat="42.84661" lon="-0.05806">
        <ele>2472</ele>
        <time>2011-04-09T10:40:32Z</time>
      </trkpt>
      <trkpt lat="42.84696" lon="-0.05785">
        <ele>2470</ele>
        <time>2011-04-09T10:40:45Z</time>
      </trkpt>
      <trkpt lat="42.84717" lon="-0.05763">
        <ele>2468</ele>
        <time>2011-04-09T10:40:52Z</time>
      </trkpt>
      <trkpt lat="42.84723" lon="-0.05761">
        <ele>2467</ele>
        <time>2011-04-09T10:41:11Z</time>
      </trkpt>
      <trkpt lat="42.84724" lon="-0.05758">
        <ele>2467</ele>
        <time>2011-04-09T10:41:39Z</time>
      </trkpt>
      <trkpt lat="42.84724" lon="-0.05758">
        <ele>2467</ele>
        <time>2011-04-09T10:41:40Z</time>
      </trkpt>
      <trkpt lat="42.84747" lon="-0.05741">
        <ele>2465</ele>
        <time>2011-04-09T10:41:48Z</time>
      </trkpt>
      <trkpt lat="42.84759" lon="-0.05736">
        <ele>2463</ele>
        <time>2011-04-09T10:41:50Z</time>
      </trkpt>
      <trkpt lat="42.84772" lon="-0.05725">
        <ele>2461</ele>
        <time>2011-04-09T10:41:52Z</time>
      </trkpt>
      <trkpt lat="42.84782" lon="-0.05713">
        <ele>2459</ele>
        <time>2011-04-09T10:41:54Z</time>
      </trkpt>
      <trkpt lat="42.84793" lon="-0.05716">
        <ele>2458</ele>
        <time>2011-04-09T10:41:56Z</time>
      </trkpt>
      <trkpt lat="42.84811" lon="-0.05719">
        <ele>2452</ele>
        <time>2011-04-09T10:41:58Z</time>
      </trkpt>
      <trkpt lat="42.84821" lon="-0.05723">
        <ele>2452</ele>
        <time>2011-04-09T10:41:59Z</time>
      </trkpt>
      <trkpt lat="42.84837" lon="-0.05719">
        <ele>2449</ele>
        <time>2011-04-09T10:42:01Z</time>
      </trkpt>
      <trkpt lat="42.84845" lon="-0.05714">
        <ele>2446</ele>
        <time>2011-04-09T10:42:02Z</time>
      </trkpt>
      <trkpt lat="42.84866" lon="-0.05705">
        <ele>2442</ele>
        <time>2011-04-09T10:42:05Z</time>
      </trkpt>
      <trkpt lat="42.84872" lon="-0.05704">
        <ele>2442</ele>
        <time>2011-04-09T10:42:06Z</time>
      </trkpt>
      <trkpt lat="42.84885" lon="-0.05704">
        <ele>2440</ele>
        <time>2011-04-09T10:42:08Z</time>
      </trkpt>
      <trkpt lat="42.84892" lon="-0.0571">
        <ele>2438</ele>
        <time>2011-04-09T10:42:10Z</time>
      </trkpt>
      <trkpt lat="42.84893" lon="-0.05709">
        <ele>2436</ele>
        <time>2011-04-09T10:42:12Z</time>
      </trkpt>
      <trkpt lat="42.84891" lon="-0.05708">
        <ele>2435</ele>
        <time>2011-04-09T10:42:14Z</time>
      </trkpt>
      <trkpt lat="42.8489" lon="-0.05707">
        <ele>2435</ele>
        <time>2011-04-09T10:42:55Z</time>
      </trkpt>
      <trkpt lat="42.84907" lon="-0.05703">
        <ele>2432</ele>
        <time>2011-04-09T10:43:01Z</time>
      </trkpt>
      <trkpt lat="42.84922" lon="-0.05698">
        <ele>2426</ele>
        <time>2011-04-09T10:43:04Z</time>
      </trkpt>
      <trkpt lat="42.84935" lon="-0.05698">
        <ele>2424</ele>
        <time>2011-04-09T10:43:06Z</time>
      </trkpt>
      <trkpt lat="42.84953" lon="-0.057">
        <ele>2421</ele>
        <time>2011-04-09T10:43:08Z</time>
      </trkpt>
      <trkpt lat="42.84961" lon="-0.05701">
        <ele>2417</ele>
        <time>2011-04-09T10:43:09Z</time>
      </trkpt>
      <trkpt lat="42.84969" lon="-0.05702">
        <ele>2417</ele>
        <time>2011-04-09T10:43:10Z</time>
      </trkpt>
      <trkpt lat="42.84983" lon="-0.05699">
        <ele>2411</ele>
        <time>2011-04-09T10:43:12Z</time>
      </trkpt>
      <trkpt lat="42.84988" lon="-0.05698">
        <ele>2411</ele>
        <time>2011-04-09T10:43:13Z</time>
      </trkpt>
      <trkpt lat="42.84991" lon="-0.05692">
        <ele>2408</ele>
        <time>2011-04-09T10:43:15Z</time>
      </trkpt>
      <trkpt lat="42.84993" lon="-0.0569">
        <ele>2406</ele>
        <time>2011-04-09T10:43:16Z</time>
      </trkpt>
      <trkpt lat="42.85012" lon="-0.05676">
        <ele>2402</ele>
        <time>2011-04-09T10:43:19Z</time>
      </trkpt>
      <trkpt lat="42.85029" lon="-0.0566">
        <ele>2401</ele>
        <time>2011-04-09T10:43:22Z</time>
      </trkpt>
      <trkpt lat="42.85035" lon="-0.05647">
        <ele>2400</ele>
        <time>2011-04-09T10:43:24Z</time>
      </trkpt>
      <trkpt lat="42.85042" lon="-0.05635">
        <ele>2397</ele>
        <time>2011-04-09T10:43:31Z</time>
      </trkpt>
      <trkpt lat="42.85042" lon="-0.05629">
        <ele>2397</ele>
        <time>2011-04-09T10:43:53Z</time>
      </trkpt>
      <trkpt lat="42.85056" lon="-0.05623">
        <ele>2395</ele>
        <time>2011-04-09T10:43:58Z</time>
      </trkpt>
      <trkpt lat="42.85078" lon="-0.05611">
        <ele>2394</ele>
        <time>2011-04-09T10:44:01Z</time>
      </trkpt>
      <trkpt lat="42.85093" lon="-0.05601">
        <ele>2389</ele>
        <time>2011-04-09T10:44:03Z</time>
      </trkpt>
      <trkpt lat="42.85105" lon="-0.05588">
        <ele>2388</ele>
        <time>2011-04-09T10:44:06Z</time>
      </trkpt>
      <trkpt lat="42.85114" lon="-0.05592">
        <ele>2386</ele>
        <time>2011-04-09T10:44:08Z</time>
      </trkpt>
      <trkpt lat="42.8512" lon="-0.05599">
        <ele>2378</ele>
        <time>2011-04-09T10:44:10Z</time>
      </trkpt>
      <trkpt lat="42.85129" lon="-0.05604">
        <ele>2374</ele>
        <time>2011-04-09T10:44:12Z</time>
      </trkpt>
      <trkpt lat="42.85134" lon="-0.05608">
        <ele>2374</ele>
        <time>2011-04-09T10:44:13Z</time>
      </trkpt>
      <trkpt lat="42.85143" lon="-0.05609">
        <ele>2369</ele>
        <time>2011-04-09T10:44:15Z</time>
      </trkpt>
      <trkpt lat="42.85147" lon="-0.05604">
        <ele>2366</ele>
        <time>2011-04-09T10:44:16Z</time>
      </trkpt>
      <trkpt lat="42.85152" lon="-0.05598">
        <ele>2364</ele>
        <time>2011-04-09T10:44:17Z</time>
      </trkpt>
      <trkpt lat="42.85162" lon="-0.05576">
        <ele>2362</ele>
        <time>2011-04-09T10:44:20Z</time>
      </trkpt>
      <trkpt lat="42.85167" lon="-0.05565">
        <ele>2361</ele>
        <time>2011-04-09T10:44:22Z</time>
      </trkpt>
      <trkpt lat="42.85172" lon="-0.05561">
        <ele>2360</ele>
        <time>2011-04-09T10:44:23Z</time>
      </trkpt>
      <trkpt lat="42.85178" lon="-0.05564">
        <ele>2358</ele>
        <time>2011-04-09T10:44:25Z</time>
      </trkpt>
      <trkpt lat="42.85179" lon="-0.05562">
        <ele>2355</ele>
        <time>2011-04-09T10:44:27Z</time>
      </trkpt>
      <trkpt lat="42.85179" lon="-0.05562">
        <ele>2353</ele>
        <time>2011-04-09T10:44:29Z</time>
      </trkpt>
      <trkpt lat="42.85167" lon="-0.05542">
        <ele>2352</ele>
        <time>2011-04-09T10:44:48Z</time>
      </trkpt>
      <trkpt lat="42.85177" lon="-0.05522">
        <ele>2349</ele>
        <time>2011-04-09T10:44:55Z</time>
      </trkpt>
      <trkpt lat="42.8518" lon="-0.05517">
        <ele>2348</ele>
        <time>2011-04-09T10:44:56Z</time>
      </trkpt>
      <trkpt lat="42.85185" lon="-0.05501">
        <ele>2346</ele>
        <time>2011-04-09T10:44:59Z</time>
      </trkpt>
      <trkpt lat="42.85187" lon="-0.05496">
        <ele>2345</ele>
        <time>2011-04-09T10:45:00Z</time>
      </trkpt>
      <trkpt lat="42.85195" lon="-0.05503">
        <ele>2341</ele>
        <time>2011-04-09T10:45:02Z</time>
      </trkpt>
      <trkpt lat="42.85198" lon="-0.05519">
        <ele>2339</ele>
        <time>2011-04-09T10:45:04Z</time>
      </trkpt>
      <trkpt lat="42.8521" lon="-0.05527">
        <ele>2336</ele>
        <time>2011-04-09T10:45:08Z</time>
      </trkpt>
      <trkpt lat="42.8522" lon="-0.05512">
        <ele>2330</ele>
        <time>2011-04-09T10:45:10Z</time>
      </trkpt>
      <trkpt lat="42.85224" lon="-0.05503">
        <ele>2330</ele>
        <time>2011-04-09T10:45:11Z</time>
      </trkpt>
      <trkpt lat="42.85225" lon="-0.05493">
        <ele>2329</ele>
        <time>2011-04-09T10:45:13Z</time>
      </trkpt>
      <trkpt lat="42.85224" lon="-0.05493">
        <ele>2327</ele>
        <time>2011-04-09T10:45:15Z</time>
      </trkpt>
      <trkpt lat="42.85223" lon="-0.05492">
        <ele>2327</ele>
        <time>2011-04-09T10:45:41Z</time>
      </trkpt>
      <trkpt lat="42.85223" lon="-0.05492">
        <ele>2327</ele>
        <time>2011-04-09T10:45:49Z</time>
      </trkpt>
      <trkpt lat="42.85246" lon="-0.05475">
        <ele>2324</ele>
        <time>2011-04-09T10:45:55Z</time>
      </trkpt>
      <trkpt lat="42.85256" lon="-0.05477">
        <ele>2321</ele>
        <time>2011-04-09T10:45:57Z</time>
      </trkpt>
      <trkpt lat="42.8527" lon="-0.05471">
        <ele>2318</ele>
        <time>2011-04-09T10:45:59Z</time>
      </trkpt>
      <trkpt lat="42.85276" lon="-0.05453">
        <ele>2313</ele>
        <time>2011-04-09T10:46:02Z</time>
      </trkpt>
      <trkpt lat="42.85281" lon="-0.05446">
        <ele>2311</ele>
        <time>2011-04-09T10:46:04Z</time>
      </trkpt>
      <trkpt lat="42.85286" lon="-0.05443">
        <ele>2310</ele>
        <time>2011-04-09T10:46:06Z</time>
      </trkpt>
      <trkpt lat="42.85288" lon="-0.05444">
        <ele>2309</ele>
        <time>2011-04-09T10:46:10Z</time>
      </trkpt>
      <trkpt lat="42.8528" lon="-0.05466">
        <ele>2305</ele>
        <time>2011-04-09T10:46:15Z</time>
      </trkpt>
      <trkpt lat="42.85277" lon="-0.05474">
        <ele>2305</ele>
        <time>2011-04-09T10:46:16Z</time>
      </trkpt>
      <trkpt lat="42.85275" lon="-0.05484">
        <ele>2303</ele>
        <time>2011-04-09T10:46:17Z</time>
      </trkpt>
      <trkpt lat="42.85281" lon="-0.05516">
        <ele>2301</ele>
        <time>2011-04-09T10:46:22Z</time>
      </trkpt>
      <trkpt lat="42.85294" lon="-0.05524">
        <ele>2296</ele>
        <time>2011-04-09T10:46:26Z</time>
      </trkpt>
      <trkpt lat="42.85299" lon="-0.05527">
        <ele>2296</ele>
        <time>2011-04-09T10:46:27Z</time>
      </trkpt>
      <trkpt lat="42.85316" lon="-0.05539">
        <ele>2288</ele>
        <time>2011-04-09T10:46:30Z</time>
      </trkpt>
      <trkpt lat="42.85321" lon="-0.05543">
        <ele>2283</ele>
        <time>2011-04-09T10:46:31Z</time>
      </trkpt>
      <trkpt lat="42.85329" lon="-0.05542">
        <ele>2283</ele>
        <time>2011-04-09T10:46:32Z</time>
      </trkpt>
      <trkpt lat="42.85337" lon="-0.0554">
        <ele>2278</ele>
        <time>2011-04-09T10:46:33Z</time>
      </trkpt>
      <trkpt lat="42.85343" lon="-0.05535">
        <ele>2278</ele>
        <time>2011-04-09T10:46:34Z</time>
      </trkpt>
      <trkpt lat="42.85346" lon="-0.05536">
        <ele>2275</ele>
        <time>2011-04-09T10:46:35Z</time>
      </trkpt>
      <trkpt lat="42.85349" lon="-0.05541">
        <ele>2275</ele>
        <time>2011-04-09T10:46:36Z</time>
      </trkpt>
      <trkpt lat="42.85352" lon="-0.0555">
        <ele>2272</ele>
        <time>2011-04-09T10:46:38Z</time>
      </trkpt>
      <trkpt lat="42.85359" lon="-0.0556">
        <ele>2270</ele>
        <time>2011-04-09T10:46:44Z</time>
      </trkpt>
      <trkpt lat="42.85357" lon="-0.05562">
        <ele>2269</ele>
        <time>2011-04-09T10:47:05Z</time>
      </trkpt>
      <trkpt lat="42.85373" lon="-0.05559">
        <ele>2266</ele>
        <time>2011-04-09T10:47:11Z</time>
      </trkpt>
      <trkpt lat="42.85375" lon="-0.05564">
        <ele>2263</ele>
        <time>2011-04-09T10:47:15Z</time>
      </trkpt>
      <trkpt lat="42.85374" lon="-0.05563">
        <ele>2263</ele>
        <time>2011-04-09T10:47:22Z</time>
      </trkpt>
      <trkpt lat="42.85387" lon="-0.05569">
        <ele>2259</ele>
        <time>2011-04-09T10:47:26Z</time>
      </trkpt>
      <trkpt lat="42.85378" lon="-0.05564">
        <ele>2256</ele>
        <time>2011-04-09T10:47:28Z</time>
      </trkpt>
      <trkpt lat="42.85385" lon="-0.05561">
        <ele>2253</ele>
        <time>2011-04-09T10:47:33Z</time>
      </trkpt>
      <trkpt lat="42.85378" lon="-0.05553">
        <ele>2252</ele>
        <time>2011-04-09T10:47:36Z</time>
      </trkpt>
      <trkpt lat="42.85382" lon="-0.05543">
        <ele>2250</ele>
        <time>2011-04-09T10:47:39Z</time>
      </trkpt>
      <trkpt lat="42.85384" lon="-0.05547">
        <ele>2247</ele>
        <time>2011-04-09T10:47:41Z</time>
      </trkpt>
      <trkpt lat="42.85385" lon="-0.05548">
        <ele>2243</ele>
        <time>2011-04-09T10:47:43Z</time>
      </trkpt>
      <trkpt lat="42.85384" lon="-0.05548">
        <ele>2243</ele>
        <time>2011-04-09T10:47:44Z</time>
      </trkpt>
      <trkpt lat="42.85384" lon="-0.05548">
        <ele>2243</ele>
        <time>2011-04-09T10:47:49Z</time>
      </trkpt>
      <trkpt lat="42.85393" lon="-0.05549">
        <ele>2239</ele>
        <time>2011-04-09T10:47:54Z</time>
      </trkpt>
      <trkpt lat="42.85394" lon="-0.05549">
        <ele>2239</ele>
        <time>2011-04-09T10:47:55Z</time>
      </trkpt>
      <trkpt lat="42.85395" lon="-0.05548">
        <ele>2237</ele>
        <time>2011-04-09T10:47:56Z</time>
      </trkpt>
      <trkpt lat="42.854" lon="-0.05546">
        <ele>2236</ele>
        <time>2011-04-09T10:47:58Z</time>
      </trkpt>
      <trkpt lat="42.85408" lon="-0.05544">
        <ele>2234</ele>
        <time>2011-04-09T10:48:00Z</time>
      </trkpt>
      <trkpt lat="42.85412" lon="-0.05546">
        <ele>2232</ele>
        <time>2011-04-09T10:48:02Z</time>
      </trkpt>
      <trkpt lat="42.85416" lon="-0.05552">
        <ele>2230</ele>
        <time>2011-04-09T10:48:04Z</time>
      </trkpt>
      <trkpt lat="42.85418" lon="-0.05555">
        <ele>2226</ele>
        <time>2011-04-09T10:48:05Z</time>
      </trkpt>
      <trkpt lat="42.85421" lon="-0.05559">
        <ele>2224</ele>
        <time>2011-04-09T10:48:07Z</time>
      </trkpt>
      <trkpt lat="42.85424" lon="-0.05561">
        <ele>2220</ele>
        <time>2011-04-09T10:48:08Z</time>
      </trkpt>
      <trkpt lat="42.85428" lon="-0.0556">
        <ele>2218</ele>
        <time>2011-04-09T10:48:11Z</time>
      </trkpt>
      <trkpt lat="42.8543" lon="-0.05562">
        <ele>2216</ele>
        <time>2011-04-09T10:48:14Z</time>
      </trkpt>
      <trkpt lat="42.85427" lon="-0.05568">
        <ele>2215</ele>
        <time>2011-04-09T10:48:25Z</time>
      </trkpt>
      <trkpt lat="42.85427" lon="-0.05568">
        <ele>2215</ele>
        <time>2011-04-09T10:48:28Z</time>
      </trkpt>
      <trkpt lat="42.85426" lon="-0.05574">
        <ele>2214</ele>
        <time>2011-04-09T10:48:31Z</time>
      </trkpt>
      <trkpt lat="42.85424" lon="-0.05577">
        <ele>2211</ele>
        <time>2011-04-09T10:48:40Z</time>
      </trkpt>
      <trkpt lat="42.85422" lon="-0.05581">
        <ele>2210</ele>
        <time>2011-04-09T10:48:55Z</time>
      </trkpt>
      <trkpt lat="42.85416" lon="-0.05579">
        <ele>2209</ele>
        <time>2011-04-09T10:49:05Z</time>
      </trkpt>
      <trkpt lat="42.85417" lon="-0.0559">
        <ele>2209</ele>
        <time>2011-04-09T10:49:17Z</time>
      </trkpt>
      <trkpt lat="42.85415" lon="-0.05595">
        <ele>2209</ele>
        <time>2011-04-09T10:49:21Z</time>
      </trkpt>
      <trkpt lat="42.85414" lon="-0.05599">
        <ele>2208</ele>
        <time>2011-04-09T10:49:25Z</time>
      </trkpt>
      <trkpt lat="42.85415" lon="-0.05605">
        <ele>2206</ele>
        <time>2011-04-09T10:49:37Z</time>
      </trkpt>
      <trkpt lat="42.8542" lon="-0.05603">
        <ele>2205</ele>
        <time>2011-04-09T10:50:00Z</time>
      </trkpt>
      <trkpt lat="42.85422" lon="-0.05606">
        <ele>2202</ele>
        <time>2011-04-09T10:50:34Z</time>
      </trkpt>
      <trkpt lat="42.85424" lon="-0.05608">
        <ele>2201</ele>
        <time>2011-04-09T10:50:40Z</time>
      </trkpt>
      <trkpt lat="42.85418" lon="-0.05609">
        <ele>2198</ele>
        <time>2011-04-09T10:50:55Z</time>
      </trkpt>
      <trkpt lat="42.85422" lon="-0.05612">
        <ele>2197</ele>
        <time>2011-04-09T10:51:08Z</time>
      </trkpt>
      <trkpt lat="42.8542" lon="-0.05615">
        <ele>2197</ele>
        <time>2011-04-09T10:51:22Z</time>
      </trkpt>
      <trkpt lat="42.85419" lon="-0.05615">
        <ele>2196</ele>
        <time>2011-04-09T10:51:24Z</time>
      </trkpt>
      <trkpt lat="42.85416" lon="-0.0562">
        <ele>2195</ele>
        <time>2011-04-09T10:51:37Z</time>
      </trkpt>
      <trkpt lat="42.85415" lon="-0.05619">
        <ele>2192</ele>
        <time>2011-04-09T10:51:50Z</time>
      </trkpt>
      <trkpt lat="42.85416" lon="-0.05622">
        <ele>2191</ele>
        <time>2011-04-09T10:51:54Z</time>
      </trkpt>
      <trkpt lat="42.8542" lon="-0.05628">
        <ele>2188</ele>
        <time>2011-04-09T10:52:04Z</time>
      </trkpt>
      <trkpt lat="42.85422" lon="-0.05632">
        <ele>2185</ele>
        <time>2011-04-09T10:52:14Z</time>
      </trkpt>
      <trkpt lat="42.85424" lon="-0.05632">
        <ele>2185</ele>
        <time>2011-04-09T10:52:27Z</time>
      </trkpt>
      <trkpt lat="42.85424" lon="-0.05635">
        <ele>2184</ele>
        <time>2011-04-09T10:52:41Z</time>
      </trkpt>
      <trkpt lat="42.85425" lon="-0.05636">
        <ele>2184</ele>
        <time>2011-04-09T10:52:54Z</time>
      </trkpt>
      <trkpt lat="42.85424" lon="-0.05638">
        <ele>2182</ele>
        <time>2011-04-09T10:53:05Z</time>
      </trkpt>
      <trkpt lat="42.85423" lon="-0.05639">
        <ele>2182</ele>
        <time>2011-04-09T10:53:06Z</time>
      </trkpt>
      <trkpt lat="42.85422" lon="-0.05643">
        <ele>2181</ele>
        <time>2011-04-09T10:53:20Z</time>
      </trkpt>
      <trkpt lat="42.85425" lon="-0.05648">
        <ele>2179</ele>
        <time>2011-04-09T10:53:28Z</time>
      </trkpt>
      <trkpt lat="42.85432" lon="-0.05646">
        <ele>2176</ele>
        <time>2011-04-09T10:53:30Z</time>
      </trkpt>
      <trkpt lat="42.85435" lon="-0.05644">
        <ele>2176</ele>
        <time>2011-04-09T10:53:31Z</time>
      </trkpt>
      <trkpt lat="42.85438" lon="-0.05639">
        <ele>2175</ele>
        <time>2011-04-09T10:53:33Z</time>
      </trkpt>
      <trkpt lat="42.85442" lon="-0.05635">
        <ele>2173</ele>
        <time>2011-04-09T10:53:36Z</time>
      </trkpt>
      <trkpt lat="42.85454" lon="-0.05623">
        <ele>2169</ele>
        <time>2011-04-09T10:53:42Z</time>
      </trkpt>
      <trkpt lat="42.85458" lon="-0.05621">
        <ele>2169</ele>
        <time>2011-04-09T10:53:43Z</time>
      </trkpt>
      <trkpt lat="42.85462" lon="-0.05619">
        <ele>2168</ele>
        <time>2011-04-09T10:53:45Z</time>
      </trkpt>
      <trkpt lat="42.85475" lon="-0.05612">
        <ele>2167</ele>
        <time>2011-04-09T10:53:49Z</time>
      </trkpt>
      <trkpt lat="42.85486" lon="-0.05612">
        <ele>2164</ele>
        <time>2011-04-09T10:53:52Z</time>
      </trkpt>
      <trkpt lat="42.85488" lon="-0.05613">
        <ele>2162</ele>
        <time>2011-04-09T10:53:54Z</time>
      </trkpt>
      <trkpt lat="42.8549" lon="-0.05613">
        <ele>2162</ele>
        <time>2011-04-09T10:53:56Z</time>
      </trkpt>
      <trkpt lat="42.85498" lon="-0.05615">
        <ele>2160</ele>
        <time>2011-04-09T10:53:59Z</time>
      </trkpt>
      <trkpt lat="42.85504" lon="-0.05616">
        <ele>2158</ele>
        <time>2011-04-09T10:54:01Z</time>
      </trkpt>
      <trkpt lat="42.85509" lon="-0.05616">
        <ele>2156</ele>
        <time>2011-04-09T10:54:03Z</time>
      </trkpt>
      <trkpt lat="42.85521" lon="-0.05613">
        <ele>2153</ele>
        <time>2011-04-09T10:54:06Z</time>
      </trkpt>
      <trkpt lat="42.85524" lon="-0.05611">
        <ele>2153</ele>
        <time>2011-04-09T10:54:07Z</time>
      </trkpt>
      <trkpt lat="42.85543" lon="-0.05597">
        <ele>2151</ele>
        <time>2011-04-09T10:54:13Z</time>
      </trkpt>
      <trkpt lat="42.85561" lon="-0.05587">
        <ele>2148</ele>
        <time>2011-04-09T10:54:17Z</time>
      </trkpt>
      <trkpt lat="42.85578" lon="-0.05585">
        <ele>2145</ele>
        <time>2011-04-09T10:54:20Z</time>
      </trkpt>
      <trkpt lat="42.85582" lon="-0.05585">
        <ele>2144</ele>
        <time>2011-04-09T10:54:21Z</time>
      </trkpt>
      <trkpt lat="42.85612" lon="-0.05585">
        <ele>2142</ele>
        <time>2011-04-09T10:54:31Z</time>
      </trkpt>
      <trkpt lat="42.85632" lon="-0.05587">
        <ele>2139</ele>
        <time>2011-04-09T10:54:35Z</time>
      </trkpt>
      <trkpt lat="42.85646" lon="-0.05599">
        <ele>2137</ele>
        <time>2011-04-09T10:54:38Z</time>
      </trkpt>
      <trkpt lat="42.85654" lon="-0.05611">
        <ele>2134</ele>
        <time>2011-04-09T10:54:40Z</time>
      </trkpt>
      <trkpt lat="42.85662" lon="-0.05623">
        <ele>2128</ele>
        <time>2011-04-09T10:54:42Z</time>
      </trkpt>
      <trkpt lat="42.85683" lon="-0.05623">
        <ele>2125</ele>
        <time>2011-04-09T10:54:45Z</time>
      </trkpt>
      <trkpt lat="42.85696" lon="-0.05623">
        <ele>2123</ele>
        <time>2011-04-09T10:54:47Z</time>
      </trkpt>
      <trkpt lat="42.85722" lon="-0.05626">
        <ele>2119</ele>
        <time>2011-04-09T10:54:56Z</time>
      </trkpt>
      <trkpt lat="42.85756" lon="-0.05628">
        <ele>2115</ele>
        <time>2011-04-09T10:55:07Z</time>
      </trkpt>
      <trkpt lat="42.85771" lon="-0.05636">
        <ele>2115</ele>
        <time>2011-04-09T10:55:15Z</time>
      </trkpt>
      <trkpt lat="42.85774" lon="-0.05636">
        <ele>2115</ele>
        <time>2011-04-09T10:55:30Z</time>
      </trkpt>
      <trkpt lat="42.85783" lon="-0.05635">
        <ele>2116</ele>
        <time>2011-04-09T10:55:44Z</time>
      </trkpt>
      <trkpt lat="42.85808" lon="-0.05637">
        <ele>2113</ele>
        <time>2011-04-09T10:55:55Z</time>
      </trkpt>
      <trkpt lat="42.85826" lon="-0.05638">
        <ele>2111</ele>
        <time>2011-04-09T10:55:59Z</time>
      </trkpt>
      <trkpt lat="42.85835" lon="-0.05641">
        <ele>2110</ele>
        <time>2011-04-09T10:56:01Z</time>
      </trkpt>
      <trkpt lat="42.85849" lon="-0.05658">
        <ele>2106</ele>
        <time>2011-04-09T10:56:07Z</time>
      </trkpt>
      <trkpt lat="42.85852" lon="-0.05659">
        <ele>2106</ele>
        <time>2011-04-09T10:56:08Z</time>
      </trkpt>
      <trkpt lat="42.85859" lon="-0.05671">
        <ele>2103</ele>
        <time>2011-04-09T10:56:11Z</time>
      </trkpt>
      <trkpt lat="42.85861" lon="-0.05675">
        <ele>2100</ele>
        <time>2011-04-09T10:56:12Z</time>
      </trkpt>
      <trkpt lat="42.85872" lon="-0.05681">
        <ele>2097</ele>
        <time>2011-04-09T10:56:15Z</time>
      </trkpt>
      <trkpt lat="42.85881" lon="-0.05679">
        <ele>2090</ele>
        <time>2011-04-09T10:56:17Z</time>
      </trkpt>
      <trkpt lat="42.85886" lon="-0.05675">
        <ele>2090</ele>
        <time>2011-04-09T10:56:18Z</time>
      </trkpt>
      <trkpt lat="42.85889" lon="-0.05668">
        <ele>2088</ele>
        <time>2011-04-09T10:56:20Z</time>
      </trkpt>
      <trkpt lat="42.85889" lon="-0.05669">
        <ele>2087</ele>
        <time>2011-04-09T10:56:26Z</time>
      </trkpt>
      <trkpt lat="42.85902" lon="-0.05671">
        <ele>2085</ele>
        <time>2011-04-09T10:56:30Z</time>
      </trkpt>
      <trkpt lat="42.85913" lon="-0.0568">
        <ele>2082</ele>
        <time>2011-04-09T10:56:32Z</time>
      </trkpt>
      <trkpt lat="42.85924" lon="-0.05685">
        <ele>2079</ele>
        <time>2011-04-09T10:56:34Z</time>
      </trkpt>
      <trkpt lat="42.85929" lon="-0.05688">
        <ele>2078</ele>
        <time>2011-04-09T10:56:36Z</time>
      </trkpt>
      <trkpt lat="42.85933" lon="-0.05694">
        <ele>2077</ele>
        <time>2011-04-09T10:56:40Z</time>
      </trkpt>
      <trkpt lat="42.85953" lon="-0.05708">
        <ele>2074</ele>
        <time>2011-04-09T10:56:44Z</time>
      </trkpt>
      <trkpt lat="42.85957" lon="-0.05712">
        <ele>2074</ele>
        <time>2011-04-09T10:56:45Z</time>
      </trkpt>
      <trkpt lat="42.85962" lon="-0.05717">
        <ele>2072</ele>
        <time>2011-04-09T10:56:47Z</time>
      </trkpt>
      <trkpt lat="42.85969" lon="-0.05722">
        <ele>2073</ele>
        <time>2011-04-09T10:56:55Z</time>
      </trkpt>
      <trkpt lat="42.85971" lon="-0.05721">
        <ele>2072</ele>
        <time>2011-04-09T10:56:57Z</time>
      </trkpt>
      <trkpt lat="42.85986" lon="-0.05724">
        <ele>2072</ele>
        <time>2011-04-09T10:57:14Z</time>
      </trkpt>
      <trkpt lat="42.85998" lon="-0.05727">
        <ele>2072</ele>
        <time>2011-04-09T10:57:28Z</time>
      </trkpt>
      <trkpt lat="42.86014" lon="-0.05734">
        <ele>2073</ele>
        <time>2011-04-09T10:57:47Z</time>
      </trkpt>
      <trkpt lat="42.86018" lon="-0.05736">
        <ele>2073</ele>
        <time>2011-04-09T10:58:04Z</time>
      </trkpt>
      <trkpt lat="42.86022" lon="-0.05736">
        <ele>2072</ele>
        <time>2011-04-09T10:58:34Z</time>
      </trkpt>
      <trkpt lat="42.86047" lon="-0.0573">
        <ele>2071</ele>
        <time>2011-04-09T10:58:48Z</time>
      </trkpt>
      <trkpt lat="42.8606" lon="-0.05729">
        <ele>2071</ele>
        <time>2011-04-09T10:58:59Z</time>
      </trkpt>
      <trkpt lat="42.86072" lon="-0.05726">
        <ele>2071</ele>
        <time>2011-04-09T10:59:14Z</time>
      </trkpt>
      <trkpt lat="42.86073" lon="-0.05725">
        <ele>2071</ele>
        <time>2011-04-09T10:59:33Z</time>
      </trkpt>
      <trkpt lat="42.86073" lon="-0.05726">
        <ele>2067</ele>
        <time>2011-04-09T10:59:37Z</time>
      </trkpt>
      <trkpt lat="42.86073" lon="-0.05726">
        <ele>2072</ele>
        <time>2011-04-09T10:59:38Z</time>
      </trkpt>
      <trkpt lat="42.86073" lon="-0.05727">
        <ele>2072</ele>
        <time>2011-04-09T10:59:39Z</time>
      </trkpt>
      <trkpt lat="42.86073" lon="-0.05727">
        <ele>2070</ele>
        <time>2011-04-09T10:59:41Z</time>
      </trkpt>
      <trkpt lat="42.86074" lon="-0.05729">
        <ele>2067</ele>
        <time>2011-04-09T11:01:25Z</time>
      </trkpt>
      <trkpt lat="42.86074" lon="-0.05729">
        <ele>2067</ele>
        <time>2011-04-09T11:01:26Z</time>
      </trkpt>
      <trkpt lat="42.86074" lon="-0.05729">
        <ele>2069</ele>
        <time>2011-04-09T11:01:32Z</time>
      </trkpt>
      <trkpt lat="42.86073" lon="-0.05728">
        <ele>2070</ele>
        <time>2011-04-09T11:01:40Z</time>
      </trkpt>
      <trkpt lat="42.86073" lon="-0.05728">
        <ele>2070</ele>
        <time>2011-04-09T11:01:59Z</time>
      </trkpt>
      <trkpt lat="42.86075" lon="-0.05729">
        <ele>2069</ele>
        <time>2011-04-09T11:02:23Z</time>
      </trkpt>
      <trkpt lat="42.86096" lon="-0.05729">
        <ele>2067</ele>
        <time>2011-04-09T11:02:40Z</time>
      </trkpt>
      <trkpt lat="42.86113" lon="-0.05729">
        <ele>2066</ele>
        <time>2011-04-09T11:02:44Z</time>
      </trkpt>
      <trkpt lat="42.86125" lon="-0.05728">
        <ele>2063</ele>
        <time>2011-04-09T11:02:47Z</time>
      </trkpt>
      <trkpt lat="42.86142" lon="-0.05722">
        <ele>2062</ele>
        <time>2011-04-09T11:02:54Z</time>
      </trkpt>
      <trkpt lat="42.86156" lon="-0.05714">
        <ele>2061</ele>
        <time>2011-04-09T11:03:05Z</time>
      </trkpt>
      <trkpt lat="42.8616" lon="-0.0571">
        <ele>2061</ele>
        <time>2011-04-09T11:03:09Z</time>
      </trkpt>
      <trkpt lat="42.86162" lon="-0.05709">
        <ele>2061</ele>
        <time>2011-04-09T11:03:11Z</time>
      </trkpt>
      <trkpt lat="42.8617" lon="-0.05698">
        <ele>2059</ele>
        <time>2011-04-09T11:03:15Z</time>
      </trkpt>
      <trkpt lat="42.8618" lon="-0.05688">
        <ele>2057</ele>
        <time>2011-04-09T11:03:17Z</time>
      </trkpt>
      <trkpt lat="42.8619" lon="-0.05684">
        <ele>2055</ele>
        <time>2011-04-09T11:03:19Z</time>
      </trkpt>
      <trkpt lat="42.86199" lon="-0.05683">
        <ele>2053</ele>
        <time>2011-04-09T11:03:21Z</time>
      </trkpt>
      <trkpt lat="42.86229" lon="-0.05681">
        <ele>2049</ele>
        <time>2011-04-09T11:03:29Z</time>
      </trkpt>
      <trkpt lat="42.86231" lon="-0.05682">
        <ele>2049</ele>
        <time>2011-04-09T11:03:30Z</time>
      </trkpt>
      <trkpt lat="42.86254" lon="-0.05688">
        <ele>2049</ele>
        <time>2011-04-09T11:03:42Z</time>
      </trkpt>
      <trkpt lat="42.86261" lon="-0.05689">
        <ele>2047</ele>
        <time>2011-04-09T11:03:44Z</time>
      </trkpt>
      <trkpt lat="42.86266" lon="-0.0569">
        <ele>2046</ele>
        <time>2011-04-09T11:03:53Z</time>
      </trkpt>
      <trkpt lat="42.86269" lon="-0.0569">
        <ele>2046</ele>
        <time>2011-04-09T11:04:08Z</time>
      </trkpt>
      <trkpt lat="42.86274" lon="-0.0569">
        <ele>2046</ele>
        <time>2011-04-09T11:04:25Z</time>
      </trkpt>
      <trkpt lat="42.86299" lon="-0.05685">
        <ele>2044</ele>
        <time>2011-04-09T11:04:41Z</time>
      </trkpt>
      <trkpt lat="42.86308" lon="-0.05683">
        <ele>2043</ele>
        <time>2011-04-09T11:04:43Z</time>
      </trkpt>
      <trkpt lat="42.86316" lon="-0.05682">
        <ele>2042</ele>
        <time>2011-04-09T11:04:45Z</time>
      </trkpt>
      <trkpt lat="42.86324" lon="-0.05682">
        <ele>2041</ele>
        <time>2011-04-09T11:04:47Z</time>
      </trkpt>
      <trkpt lat="42.86361" lon="-0.05688">
        <ele>2038</ele>
        <time>2011-04-09T11:05:03Z</time>
      </trkpt>
      <trkpt lat="42.86369" lon="-0.05685">
        <ele>2036</ele>
        <time>2011-04-09T11:05:06Z</time>
      </trkpt>
      <trkpt lat="42.86387" lon="-0.05673">
        <ele>2033</ele>
        <time>2011-04-09T11:05:12Z</time>
      </trkpt>
      <trkpt lat="42.86391" lon="-0.05671">
        <ele>2033</ele>
        <time>2011-04-09T11:05:13Z</time>
      </trkpt>
      <trkpt lat="42.86408" lon="-0.0566">
        <ele>2032</ele>
        <time>2011-04-09T11:05:21Z</time>
      </trkpt>
      <trkpt lat="42.8641" lon="-0.05653">
        <ele>2032</ele>
        <time>2011-04-09T11:05:26Z</time>
      </trkpt>
      <trkpt lat="42.86403" lon="-0.05624">
        <ele>2031</ele>
        <time>2011-04-09T11:05:41Z</time>
      </trkpt>
      <trkpt lat="42.86396" lon="-0.05608">
        <ele>2032</ele>
        <time>2011-04-09T11:05:53Z</time>
      </trkpt>
      <trkpt lat="42.86395" lon="-0.05606">
        <ele>2031</ele>
        <time>2011-04-09T11:06:00Z</time>
      </trkpt>
      <trkpt lat="42.86395" lon="-0.05595">
        <ele>2031</ele>
        <time>2011-04-09T11:06:08Z</time>
      </trkpt>
      <trkpt lat="42.86403" lon="-0.05599">
        <ele>2029</ele>
        <time>2011-04-09T11:06:20Z</time>
      </trkpt>
      <trkpt lat="42.8641" lon="-0.05601">
        <ele>2029</ele>
        <time>2011-04-09T11:06:32Z</time>
      </trkpt>
      <trkpt lat="42.86435" lon="-0.05605">
        <ele>2028</ele>
        <time>2011-04-09T11:06:48Z</time>
      </trkpt>
      <trkpt lat="42.86465" lon="-0.05607">
        <ele>2026</ele>
        <time>2011-04-09T11:07:03Z</time>
      </trkpt>
      <trkpt lat="42.86477" lon="-0.05603">
        <ele>2025</ele>
        <time>2011-04-09T11:07:17Z</time>
      </trkpt>
      <trkpt lat="42.86494" lon="-0.05605">
        <ele>2023</ele>
        <time>2011-04-09T11:07:25Z</time>
      </trkpt>
      <trkpt lat="42.865" lon="-0.05606">
        <ele>2023</ele>
        <time>2011-04-09T11:07:29Z</time>
      </trkpt>
      <trkpt lat="42.86519" lon="-0.05595">
        <ele>2020</ele>
        <time>2011-04-09T11:07:35Z</time>
      </trkpt>
      <trkpt lat="42.86532" lon="-0.05597">
        <ele>2019</ele>
        <time>2011-04-09T11:07:38Z</time>
      </trkpt>
      <trkpt lat="42.86549" lon="-0.05602">
        <ele>2016</ele>
        <time>2011-04-09T11:07:41Z</time>
      </trkpt>
      <trkpt lat="42.86554" lon="-0.05604">
        <ele>2012</ele>
        <time>2011-04-09T11:07:42Z</time>
      </trkpt>
      <trkpt lat="42.8656" lon="-0.05605">
        <ele>2012</ele>
        <time>2011-04-09T11:07:43Z</time>
      </trkpt>
      <trkpt lat="42.86565" lon="-0.05608">
        <ele>2008</ele>
        <time>2011-04-09T11:07:44Z</time>
      </trkpt>
      <trkpt lat="42.8657" lon="-0.05609">
        <ele>2008</ele>
        <time>2011-04-09T11:07:45Z</time>
      </trkpt>
      <trkpt lat="42.86581" lon="-0.05614">
        <ele>2001</ele>
        <time>2011-04-09T11:07:47Z</time>
      </trkpt>
      <trkpt lat="42.86593" lon="-0.05612">
        <ele>1995</ele>
        <time>2011-04-09T11:07:49Z</time>
      </trkpt>
      <trkpt lat="42.86598" lon="-0.05608">
        <ele>1995</ele>
        <time>2011-04-09T11:07:50Z</time>
      </trkpt>
      <trkpt lat="42.86601" lon="-0.05604">
        <ele>1994</ele>
        <time>2011-04-09T11:07:51Z</time>
      </trkpt>
      <trkpt lat="42.86616" lon="-0.05593">
        <ele>1992</ele>
        <time>2011-04-09T11:07:55Z</time>
      </trkpt>
      <trkpt lat="42.86626" lon="-0.05586">
        <ele>1990</ele>
        <time>2011-04-09T11:07:57Z</time>
      </trkpt>
      <trkpt lat="42.86635" lon="-0.05582">
        <ele>1988</ele>
        <time>2011-04-09T11:07:59Z</time>
      </trkpt>
      <trkpt lat="42.86644" lon="-0.05577">
        <ele>1985</ele>
        <time>2011-04-09T11:08:02Z</time>
      </trkpt>
      <trkpt lat="42.86648" lon="-0.05574">
        <ele>1983</ele>
        <time>2011-04-09T11:08:13Z</time>
      </trkpt>
      <trkpt lat="42.86648" lon="-0.05574">
        <ele>1982</ele>
        <time>2011-04-09T11:08:21Z</time>
      </trkpt>
      <trkpt lat="42.86655" lon="-0.05581">
        <ele>1981</ele>
        <time>2011-04-09T11:08:25Z</time>
      </trkpt>
      <trkpt lat="42.86658" lon="-0.05585">
        <ele>1978</ele>
        <time>2011-04-09T11:08:26Z</time>
      </trkpt>
      <trkpt lat="42.86667" lon="-0.05591">
        <ele>1974</ele>
        <time>2011-04-09T11:08:28Z</time>
      </trkpt>
      <trkpt lat="42.86671" lon="-0.05592">
        <ele>1974</ele>
        <time>2011-04-09T11:08:29Z</time>
      </trkpt>
      <trkpt lat="42.86677" lon="-0.05596">
        <ele>1969</ele>
        <time>2011-04-09T11:08:30Z</time>
      </trkpt>
      <trkpt lat="42.86687" lon="-0.05596">
        <ele>1965</ele>
        <time>2011-04-09T11:08:32Z</time>
      </trkpt>
      <trkpt lat="42.86692" lon="-0.05592">
        <ele>1960</ele>
        <time>2011-04-09T11:08:33Z</time>
      </trkpt>
      <trkpt lat="42.86696" lon="-0.05587">
        <ele>1960</ele>
        <time>2011-04-09T11:08:34Z</time>
      </trkpt>
      <trkpt lat="42.86699" lon="-0.05581">
        <ele>1956</ele>
        <time>2011-04-09T11:08:35Z</time>
      </trkpt>
      <trkpt lat="42.86707" lon="-0.05563">
        <ele>1952</ele>
        <time>2011-04-09T11:08:38Z</time>
      </trkpt>
      <trkpt lat="42.86708" lon="-0.05558">
        <ele>1952</ele>
        <time>2011-04-09T11:08:39Z</time>
      </trkpt>
      <trkpt lat="42.86711" lon="-0.05542">
        <ele>1949</ele>
        <time>2011-04-09T11:08:43Z</time>
      </trkpt>
      <trkpt lat="42.86711" lon="-0.05535">
        <ele>1948</ele>
        <time>2011-04-09T11:08:46Z</time>
      </trkpt>
      <trkpt lat="42.86713" lon="-0.05518">
        <ele>1946</ele>
        <time>2011-04-09T11:09:04Z</time>
      </trkpt>
      <trkpt lat="42.86716" lon="-0.05506">
        <ele>1945</ele>
        <time>2011-04-09T11:09:06Z</time>
      </trkpt>
      <trkpt lat="42.86721" lon="-0.0549">
        <ele>1940</ele>
        <time>2011-04-09T11:09:08Z</time>
      </trkpt>
      <trkpt lat="42.86724" lon="-0.05482">
        <ele>1940</ele>
        <time>2011-04-09T11:09:09Z</time>
      </trkpt>
      <trkpt lat="42.8673" lon="-0.05468">
        <ele>1937</ele>
        <time>2011-04-09T11:09:11Z</time>
      </trkpt>
      <trkpt lat="42.86735" lon="-0.05455">
        <ele>1936</ele>
        <time>2011-04-09T11:09:13Z</time>
      </trkpt>
      <trkpt lat="42.86737" lon="-0.0545">
        <ele>1934</ele>
        <time>2011-04-09T11:09:14Z</time>
      </trkpt>
      <trkpt lat="42.86741" lon="-0.0544">
        <ele>1932</ele>
        <time>2011-04-09T11:09:16Z</time>
      </trkpt>
      <trkpt lat="42.86744" lon="-0.05432">
        <ele>1930</ele>
        <time>2011-04-09T11:09:18Z</time>
      </trkpt>
      <trkpt lat="42.86753" lon="-0.05408">
        <ele>1925</ele>
        <time>2011-04-09T11:09:22Z</time>
      </trkpt>
      <trkpt lat="42.86756" lon="-0.05402">
        <ele>1925</ele>
        <time>2011-04-09T11:09:23Z</time>
      </trkpt>
      <trkpt lat="42.86759" lon="-0.05395">
        <ele>1923</ele>
        <time>2011-04-09T11:09:24Z</time>
      </trkpt>
      <trkpt lat="42.86762" lon="-0.05382">
        <ele>1920</ele>
        <time>2011-04-09T11:09:27Z</time>
      </trkpt>
      <trkpt lat="42.86763" lon="-0.05375">
        <ele>1917</ele>
        <time>2011-04-09T11:10:22Z</time>
      </trkpt>
      <trkpt lat="42.86766" lon="-0.05369">
        <ele>1916</ele>
        <time>2011-04-09T11:10:37Z</time>
      </trkpt>
      <trkpt lat="42.86771" lon="-0.0537">
        <ele>1914</ele>
        <time>2011-04-09T11:10:39Z</time>
      </trkpt>
      <trkpt lat="42.86772" lon="-0.0537">
        <ele>1911</ele>
        <time>2011-04-09T11:10:40Z</time>
      </trkpt>
      <trkpt lat="42.86778" lon="-0.05371">
        <ele>1907</ele>
        <time>2011-04-09T11:10:42Z</time>
      </trkpt>
      <trkpt lat="42.86782" lon="-0.05372">
        <ele>1904</ele>
        <time>2011-04-09T11:10:43Z</time>
      </trkpt>
      <trkpt lat="42.86785" lon="-0.05373">
        <ele>1904</ele>
        <time>2011-04-09T11:10:44Z</time>
      </trkpt>
      <trkpt lat="42.8679" lon="-0.05374">
        <ele>1901</ele>
        <time>2011-04-09T11:10:46Z</time>
      </trkpt>
      <trkpt lat="42.86793" lon="-0.05373">
        <ele>1898</ele>
        <time>2011-04-09T11:10:48Z</time>
      </trkpt>
      <trkpt lat="42.86794" lon="-0.05374">
        <ele>1896</ele>
        <time>2011-04-09T11:10:50Z</time>
      </trkpt>
      <trkpt lat="42.86793" lon="-0.05374">
        <ele>1895</ele>
        <time>2011-04-09T11:11:11Z</time>
      </trkpt>
      <trkpt lat="42.86795" lon="-0.05371">
        <ele>1895</ele>
        <time>2011-04-09T11:11:13Z</time>
      </trkpt>
      <trkpt lat="42.86804" lon="-0.05371">
        <ele>1892</ele>
        <time>2011-04-09T11:11:16Z</time>
      </trkpt>
      <trkpt lat="42.86807" lon="-0.05372">
        <ele>1889</ele>
        <time>2011-04-09T11:11:17Z</time>
      </trkpt>
      <trkpt lat="42.86809" lon="-0.05376">
        <ele>1889</ele>
        <time>2011-04-09T11:11:18Z</time>
      </trkpt>
      <trkpt lat="42.86817" lon="-0.0538">
        <ele>1883</ele>
        <time>2011-04-09T11:11:20Z</time>
      </trkpt>
      <trkpt lat="42.86819" lon="-0.05381">
        <ele>1883</ele>
        <time>2011-04-09T11:11:21Z</time>
      </trkpt>
      <trkpt lat="42.86821" lon="-0.05382">
        <ele>1880</ele>
        <time>2011-04-09T11:11:22Z</time>
      </trkpt>
      <trkpt lat="42.86828" lon="-0.05387">
        <ele>1876</ele>
        <time>2011-04-09T11:11:25Z</time>
      </trkpt>
      <trkpt lat="42.86829" lon="-0.05391">
        <ele>1872</ele>
        <time>2011-04-09T11:11:27Z</time>
      </trkpt>
      <trkpt lat="42.86829" lon="-0.05391">
        <ele>1872</ele>
        <time>2011-04-09T11:11:28Z</time>
      </trkpt>
      <trkpt lat="42.86828" lon="-0.05391">
        <ele>1871</ele>
        <time>2011-04-09T11:11:40Z</time>
      </trkpt>
      <trkpt lat="42.86832" lon="-0.05398">
        <ele>1870</ele>
        <time>2011-04-09T11:11:43Z</time>
      </trkpt>
      <trkpt lat="42.86839" lon="-0.05397">
        <ele>1867</ele>
        <time>2011-04-09T11:11:45Z</time>
      </trkpt>
      <trkpt lat="42.86843" lon="-0.05395">
        <ele>1867</ele>
        <time>2011-04-09T11:11:46Z</time>
      </trkpt>
      <trkpt lat="42.86848" lon="-0.05395">
        <ele>1863</ele>
        <time>2011-04-09T11:11:47Z</time>
      </trkpt>
      <trkpt lat="42.86853" lon="-0.05396">
        <ele>1859</ele>
        <time>2011-04-09T11:11:48Z</time>
      </trkpt>
      <trkpt lat="42.86864" lon="-0.05403">
        <ele>1855</ele>
        <time>2011-04-09T11:11:51Z</time>
      </trkpt>
      <trkpt lat="42.86868" lon="-0.05403">
        <ele>1852</ele>
        <time>2011-04-09T11:11:53Z</time>
      </trkpt>
      <trkpt lat="42.86868" lon="-0.05402">
        <ele>1850</ele>
        <time>2011-04-09T11:11:55Z</time>
      </trkpt>
      <trkpt lat="42.86868" lon="-0.05403">
        <ele>1849</ele>
        <time>2011-04-09T11:12:19Z</time>
      </trkpt>
      <trkpt lat="42.86877" lon="-0.05401">
        <ele>1847</ele>
        <time>2011-04-09T11:12:23Z</time>
      </trkpt>
      <trkpt lat="42.86882" lon="-0.054">
        <ele>1842</ele>
        <time>2011-04-09T11:12:25Z</time>
      </trkpt>
      <trkpt lat="42.86884" lon="-0.05399">
        <ele>1842</ele>
        <time>2011-04-09T11:12:26Z</time>
      </trkpt>
      <trkpt lat="42.86886" lon="-0.05401">
        <ele>1838</ele>
        <time>2011-04-09T11:12:27Z</time>
      </trkpt>
      <trkpt lat="42.86889" lon="-0.05403">
        <ele>1838</ele>
        <time>2011-04-09T11:12:28Z</time>
      </trkpt>
      <trkpt lat="42.86895" lon="-0.05399">
        <ele>1837</ele>
        <time>2011-04-09T11:12:30Z</time>
      </trkpt>
      <trkpt lat="42.86896" lon="-0.05398">
        <ele>1833</ele>
        <time>2011-04-09T11:12:31Z</time>
      </trkpt>
      <trkpt lat="42.86897" lon="-0.05399">
        <ele>1832</ele>
        <time>2011-04-09T11:12:33Z</time>
      </trkpt>
      <trkpt lat="42.86897" lon="-0.05392">
        <ele>1831</ele>
        <time>2011-04-09T11:12:40Z</time>
      </trkpt>
      <trkpt lat="42.86901" lon="-0.05387">
        <ele>1830</ele>
        <time>2011-04-09T11:12:42Z</time>
      </trkpt>
      <trkpt lat="42.86905" lon="-0.05381">
        <ele>1828</ele>
        <time>2011-04-09T11:12:44Z</time>
      </trkpt>
      <trkpt lat="42.86908" lon="-0.05371">
        <ele>1826</ele>
        <time>2011-04-09T11:12:46Z</time>
      </trkpt>
      <trkpt lat="42.86916" lon="-0.05369">
        <ele>1820</ele>
        <time>2011-04-09T11:12:49Z</time>
      </trkpt>
      <trkpt lat="42.86922" lon="-0.05369">
        <ele>1818</ele>
        <time>2011-04-09T11:12:51Z</time>
      </trkpt>
      <trkpt lat="42.86924" lon="-0.05369">
        <ele>1816</ele>
        <time>2011-04-09T11:12:52Z</time>
      </trkpt>
      <trkpt lat="42.86927" lon="-0.05366">
        <ele>1816</ele>
        <time>2011-04-09T11:12:53Z</time>
      </trkpt>
      <trkpt lat="42.8693" lon="-0.05361">
        <ele>1812</ele>
        <time>2011-04-09T11:12:55Z</time>
      </trkpt>
      <trkpt lat="42.86931" lon="-0.05357">
        <ele>1810</ele>
        <time>2011-04-09T11:12:58Z</time>
      </trkpt>
      <trkpt lat="42.8693" lon="-0.05335">
        <ele>1807</ele>
        <time>2011-04-09T11:13:30Z</time>
      </trkpt>
      <trkpt lat="42.86931" lon="-0.05332">
        <ele>1806</ele>
        <time>2011-04-09T11:13:35Z</time>
      </trkpt>
      <trkpt lat="42.86934" lon="-0.05338">
        <ele>1805</ele>
        <time>2011-04-09T11:13:41Z</time>
      </trkpt>
      <trkpt lat="42.86937" lon="-0.05341">
        <ele>1805</ele>
        <time>2011-04-09T11:13:43Z</time>
      </trkpt>
      <trkpt lat="42.86941" lon="-0.05339">
        <ele>1801</ele>
        <time>2011-04-09T11:13:46Z</time>
      </trkpt>
      <trkpt lat="42.86941" lon="-0.05339">
        <ele>1801</ele>
        <time>2011-04-09T11:13:47Z</time>
      </trkpt>
      <trkpt lat="42.86946" lon="-0.05336">
        <ele>1800</ele>
        <time>2011-04-09T11:13:54Z</time>
      </trkpt>
      <trkpt lat="42.8695" lon="-0.05338">
        <ele>1799</ele>
        <time>2011-04-09T11:13:56Z</time>
      </trkpt>
      <trkpt lat="42.86951" lon="-0.05339">
        <ele>1796</ele>
        <time>2011-04-09T11:13:58Z</time>
      </trkpt>
      <trkpt lat="42.86953" lon="-0.05341">
        <ele>1796</ele>
        <time>2011-04-09T11:14:01Z</time>
      </trkpt>
      <trkpt lat="42.86956" lon="-0.05337">
        <ele>1793</ele>
        <time>2011-04-09T11:14:05Z</time>
      </trkpt>
      <trkpt lat="42.86957" lon="-0.05337">
        <ele>1793</ele>
        <time>2011-04-09T11:14:10Z</time>
      </trkpt>
      <trkpt lat="42.86968" lon="-0.05343">
        <ele>1789</ele>
        <time>2011-04-09T11:14:16Z</time>
      </trkpt>
      <trkpt lat="42.86968" lon="-0.05343">
        <ele>1789</ele>
        <time>2011-04-09T11:14:18Z</time>
      </trkpt>
      <trkpt lat="42.86977" lon="-0.05336">
        <ele>1785</ele>
        <time>2011-04-09T11:14:22Z</time>
      </trkpt>
      <trkpt lat="42.8698" lon="-0.05336">
        <ele>1784</ele>
        <time>2011-04-09T11:14:24Z</time>
      </trkpt>
      <trkpt lat="42.86981" lon="-0.05335">
        <ele>1782</ele>
        <time>2011-04-09T11:14:26Z</time>
      </trkpt>
      <trkpt lat="42.86982" lon="-0.05334">
        <ele>1781</ele>
        <time>2011-04-09T11:14:29Z</time>
      </trkpt>
      <trkpt lat="42.86982" lon="-0.05329">
        <ele>1780</ele>
        <time>2011-04-09T11:14:34Z</time>
      </trkpt>
      <trkpt lat="42.86997" lon="-0.05333">
        <ele>1778</ele>
        <time>2011-04-09T11:14:40Z</time>
      </trkpt>
      <trkpt lat="42.87" lon="-0.05329">
        <ele>1775</ele>
        <time>2011-04-09T11:14:42Z</time>
      </trkpt>
      <trkpt lat="42.87001" lon="-0.05328">
        <ele>1773</ele>
        <time>2011-04-09T11:14:45Z</time>
      </trkpt>
      <trkpt lat="42.87001" lon="-0.05328">
        <ele>1773</ele>
        <time>2011-04-09T11:14:53Z</time>
      </trkpt>
      <trkpt lat="42.87006" lon="-0.05329">
        <ele>1771</ele>
        <time>2011-04-09T11:14:58Z</time>
      </trkpt>
      <trkpt lat="42.87008" lon="-0.05329">
        <ele>1771</ele>
        <time>2011-04-09T11:15:04Z</time>
      </trkpt>
      <trkpt lat="42.87008" lon="-0.05327">
        <ele>1770</ele>
        <time>2011-04-09T11:15:08Z</time>
      </trkpt>
      <trkpt lat="42.8701" lon="-0.05328">
        <ele>1769</ele>
        <time>2011-04-09T11:15:23Z</time>
      </trkpt>
      <trkpt lat="42.8701" lon="-0.05328">
        <ele>1769</ele>
        <time>2011-04-09T11:15:36Z</time>
      </trkpt>
      <trkpt lat="42.87012" lon="-0.05327">
        <ele>1770</ele>
        <time>2011-04-09T11:15:45Z</time>
      </trkpt>
      <trkpt lat="42.87012" lon="-0.05327">
        <ele>1769</ele>
        <time>2011-04-09T11:15:46Z</time>
      </trkpt>
      <trkpt lat="42.87014" lon="-0.05325">
        <ele>1767</ele>
        <time>2011-04-09T11:16:02Z</time>
      </trkpt>
      <trkpt lat="42.87015" lon="-0.05324">
        <ele>1767</ele>
        <time>2011-04-09T11:16:18Z</time>
      </trkpt>
      <trkpt lat="42.87014" lon="-0.05324">
        <ele>1766</ele>
        <time>2011-04-09T11:16:33Z</time>
      </trkpt>
      <trkpt lat="42.87015" lon="-0.05325">
        <ele>1768</ele>
        <time>2011-04-09T11:17:19Z</time>
      </trkpt>
      <trkpt lat="42.87015" lon="-0.05325">
        <ele>1768</ele>
        <time>2011-04-09T11:17:20Z</time>
      </trkpt>
      <trkpt lat="42.87015" lon="-0.05325">
        <ele>1765</ele>
        <time>2011-04-09T11:17:22Z</time>
      </trkpt>
      <trkpt lat="42.87015" lon="-0.05325">
        <ele>1761</ele>
        <time>2011-04-09T11:18:42Z</time>
      </trkpt>
      <trkpt lat="42.87015" lon="-0.05325">
        <ele>1761</ele>
        <time>2011-04-09T11:18:43Z</time>
      </trkpt>
      <trkpt lat="42.87015" lon="-0.05325">
        <ele>1763</ele>
        <time>2011-04-09T11:18:45Z</time>
      </trkpt>
      <trkpt lat="42.87015" lon="-0.05326">
        <ele>1762</ele>
        <time>2011-04-09T11:19:09Z</time>
      </trkpt>
      <trkpt lat="42.87015" lon="-0.05326">
        <ele>1763</ele>
        <time>2011-04-09T11:19:40Z</time>
      </trkpt>
      <trkpt lat="42.87015" lon="-0.05326">
        <ele>1761</ele>
        <time>2011-04-09T11:20:27Z</time>
      </trkpt>
      <trkpt lat="42.87014" lon="-0.05328">
        <ele>1761</ele>
        <time>2011-04-09T11:20:57Z</time>
      </trkpt>
      <trkpt lat="42.87015" lon="-0.05326">
        <ele>1758</ele>
        <time>2011-04-09T11:22:56Z</time>
      </trkpt>
      <trkpt lat="42.87015" lon="-0.05324">
        <ele>1759</ele>
        <time>2011-04-09T11:23:55Z</time>
      </trkpt>
      <trkpt lat="42.87018" lon="-0.05319">
        <ele>1758</ele>
        <time>2011-04-09T11:24:17Z</time>
      </trkpt>
      <trkpt lat="42.87022" lon="-0.05317">
        <ele>1757</ele>
        <time>2011-04-09T11:24:21Z</time>
      </trkpt>
      <trkpt lat="42.87026" lon="-0.05318">
        <ele>1755</ele>
        <time>2011-04-09T11:24:26Z</time>
      </trkpt>
      <trkpt lat="42.87033" lon="-0.05318">
        <ele>1754</ele>
        <time>2011-04-09T11:24:37Z</time>
      </trkpt>
      <trkpt lat="42.87037" lon="-0.05314">
        <ele>1751</ele>
        <time>2011-04-09T11:24:42Z</time>
      </trkpt>
      <trkpt lat="42.87039" lon="-0.0531">
        <ele>1750</ele>
        <time>2011-04-09T11:24:47Z</time>
      </trkpt>
      <trkpt lat="42.87043" lon="-0.053">
        <ele>1747</ele>
        <time>2011-04-09T11:24:59Z</time>
      </trkpt>
      <trkpt lat="42.87048" lon="-0.05299">
        <ele>1745</ele>
        <time>2011-04-09T11:25:09Z</time>
      </trkpt>
      <trkpt lat="42.87054" lon="-0.05302">
        <ele>1743</ele>
        <time>2011-04-09T11:25:21Z</time>
      </trkpt>
      <trkpt lat="42.87063" lon="-0.053">
        <ele>1739</ele>
        <time>2011-04-09T11:25:34Z</time>
      </trkpt>
      <trkpt lat="42.8707" lon="-0.05301">
        <ele>1738</ele>
        <time>2011-04-09T11:25:42Z</time>
      </trkpt>
      <trkpt lat="42.87074" lon="-0.05301">
        <ele>1736</ele>
        <time>2011-04-09T11:25:47Z</time>
      </trkpt>
      <trkpt lat="42.87078" lon="-0.05307">
        <ele>1732</ele>
        <time>2011-04-09T11:25:55Z</time>
      </trkpt>
      <trkpt lat="42.87078" lon="-0.05307">
        <ele>1732</ele>
        <time>2011-04-09T11:25:56Z</time>
      </trkpt>
      <trkpt lat="42.87083" lon="-0.05311">
        <ele>1729</ele>
        <time>2011-04-09T11:26:04Z</time>
      </trkpt>
      <trkpt lat="42.87086" lon="-0.05313">
        <ele>1727</ele>
        <time>2011-04-09T11:26:07Z</time>
      </trkpt>
      <trkpt lat="42.87088" lon="-0.05313">
        <ele>1726</ele>
        <time>2011-04-09T11:26:10Z</time>
      </trkpt>
      <trkpt lat="42.87089" lon="-0.05315">
        <ele>1724</ele>
        <time>2011-04-09T11:26:12Z</time>
      </trkpt>
      <trkpt lat="42.8709" lon="-0.05316">
        <ele>1723</ele>
        <time>2011-04-09T11:26:14Z</time>
      </trkpt>
      <trkpt lat="42.87092" lon="-0.05317">
        <ele>1722</ele>
        <time>2011-04-09T11:26:16Z</time>
      </trkpt>
      <trkpt lat="42.87096" lon="-0.05321">
        <ele>1721</ele>
        <time>2011-04-09T11:26:21Z</time>
      </trkpt>
      <trkpt lat="42.87104" lon="-0.05324">
        <ele>1718</ele>
        <time>2011-04-09T11:26:30Z</time>
      </trkpt>
      <trkpt lat="42.87108" lon="-0.05327">
        <ele>1717</ele>
        <time>2011-04-09T11:26:35Z</time>
      </trkpt>
      <trkpt lat="42.87115" lon="-0.05329">
        <ele>1716</ele>
        <time>2011-04-09T11:26:42Z</time>
      </trkpt>
      <trkpt lat="42.87122" lon="-0.05333">
        <ele>1713</ele>
        <time>2011-04-09T11:26:52Z</time>
      </trkpt>
      <trkpt lat="42.87124" lon="-0.05336">
        <ele>1713</ele>
        <time>2011-04-09T11:26:57Z</time>
      </trkpt>
      <trkpt lat="42.87127" lon="-0.05336">
        <ele>1711</ele>
        <time>2011-04-09T11:27:00Z</time>
      </trkpt>
      <trkpt lat="42.87131" lon="-0.05338">
        <ele>1710</ele>
        <time>2011-04-09T11:27:04Z</time>
      </trkpt>
      <trkpt lat="42.87135" lon="-0.05337">
        <ele>1708</ele>
        <time>2011-04-09T11:27:10Z</time>
      </trkpt>
      <trkpt lat="42.87136" lon="-0.05339">
        <ele>1707</ele>
        <time>2011-04-09T11:27:12Z</time>
      </trkpt>
      <trkpt lat="42.87143" lon="-0.05342">
        <ele>1704</ele>
        <time>2011-04-09T11:27:20Z</time>
      </trkpt>
      <trkpt lat="42.87148" lon="-0.0535">
        <ele>1701</ele>
        <time>2011-04-09T11:27:29Z</time>
      </trkpt>
      <trkpt lat="42.87151" lon="-0.05351">
        <ele>1700</ele>
        <time>2011-04-09T11:27:33Z</time>
      </trkpt>
      <trkpt lat="42.87155" lon="-0.05348">
        <ele>1697</ele>
        <time>2011-04-09T11:27:38Z</time>
      </trkpt>
      <trkpt lat="42.87157" lon="-0.05352">
        <ele>1695</ele>
        <time>2011-04-09T11:27:43Z</time>
      </trkpt>
      <trkpt lat="42.87161" lon="-0.05353">
        <ele>1691</ele>
        <time>2011-04-09T11:27:51Z</time>
      </trkpt>
      <trkpt lat="42.87162" lon="-0.05353">
        <ele>1691</ele>
        <time>2011-04-09T11:27:52Z</time>
      </trkpt>
      <trkpt lat="42.87163" lon="-0.05354">
        <ele>1691</ele>
        <time>2011-04-09T11:27:54Z</time>
      </trkpt>
      <trkpt lat="42.8717" lon="-0.05364">
        <ele>1687</ele>
        <time>2011-04-09T11:28:07Z</time>
      </trkpt>
      <trkpt lat="42.87177" lon="-0.05371">
        <ele>1684</ele>
        <time>2011-04-09T11:28:15Z</time>
      </trkpt>
      <trkpt lat="42.87183" lon="-0.05373">
        <ele>1682</ele>
        <time>2011-04-09T11:28:20Z</time>
      </trkpt>
      <trkpt lat="42.87185" lon="-0.05373">
        <ele>1681</ele>
        <time>2011-04-09T11:28:22Z</time>
      </trkpt>
      <trkpt lat="42.87187" lon="-0.05372">
        <ele>1683</ele>
        <time>2011-04-09T11:28:24Z</time>
      </trkpt>
      <trkpt lat="42.8719" lon="-0.05365">
        <ele>1681</ele>
        <time>2011-04-09T11:28:29Z</time>
      </trkpt>
      <trkpt lat="42.8719" lon="-0.05361">
        <ele>1680</ele>
        <time>2011-04-09T11:28:31Z</time>
      </trkpt>
      <trkpt lat="42.8719" lon="-0.0536">
        <ele>1679</ele>
        <time>2011-04-09T11:28:32Z</time>
      </trkpt>
      <trkpt lat="42.87194" lon="-0.05347">
        <ele>1676</ele>
        <time>2011-04-09T11:28:43Z</time>
      </trkpt>
      <trkpt lat="42.87197" lon="-0.05336">
        <ele>1672</ele>
        <time>2011-04-09T11:28:55Z</time>
      </trkpt>
      <trkpt lat="42.87205" lon="-0.05329">
        <ele>1668</ele>
        <time>2011-04-09T11:29:05Z</time>
      </trkpt>
      <trkpt lat="42.87208" lon="-0.05329">
        <ele>1667</ele>
        <time>2011-04-09T11:29:08Z</time>
      </trkpt>
      <trkpt lat="42.87209" lon="-0.05332">
        <ele>1664</ele>
        <time>2011-04-09T11:29:12Z</time>
      </trkpt>
      <trkpt lat="42.87218" lon="-0.05339">
        <ele>1660</ele>
        <time>2011-04-09T11:29:23Z</time>
      </trkpt>
      <trkpt lat="42.87221" lon="-0.05335">
        <ele>1659</ele>
        <time>2011-04-09T11:29:27Z</time>
      </trkpt>
      <trkpt lat="42.87224" lon="-0.05337">
        <ele>1658</ele>
        <time>2011-04-09T11:29:34Z</time>
      </trkpt>
      <trkpt lat="42.87228" lon="-0.05333">
        <ele>1656</ele>
        <time>2011-04-09T11:29:39Z</time>
      </trkpt>
      <trkpt lat="42.87229" lon="-0.05331">
        <ele>1654</ele>
        <time>2011-04-09T11:29:41Z</time>
      </trkpt>
      <trkpt lat="42.87232" lon="-0.05327">
        <ele>1653</ele>
        <time>2011-04-09T11:29:45Z</time>
      </trkpt>
      <trkpt lat="42.87234" lon="-0.05325">
        <ele>1652</ele>
        <time>2011-04-09T11:29:48Z</time>
      </trkpt>
      <trkpt lat="42.87236" lon="-0.05324">
        <ele>1650</ele>
        <time>2011-04-09T11:29:50Z</time>
      </trkpt>
      <trkpt lat="42.87239" lon="-0.05326">
        <ele>1648</ele>
        <time>2011-04-09T11:29:55Z</time>
      </trkpt>
      <trkpt lat="42.87242" lon="-0.05327">
        <ele>1647</ele>
        <time>2011-04-09T11:29:59Z</time>
      </trkpt>
      <trkpt lat="42.87244" lon="-0.05331">
        <ele>1645</ele>
        <time>2011-04-09T11:30:04Z</time>
      </trkpt>
      <trkpt lat="42.87253" lon="-0.05335">
        <ele>1642</ele>
        <time>2011-04-09T11:30:16Z</time>
      </trkpt>
      <trkpt lat="42.87254" lon="-0.05337">
        <ele>1641</ele>
        <time>2011-04-09T11:30:18Z</time>
      </trkpt>
      <trkpt lat="42.8726" lon="-0.05343">
        <ele>1639</ele>
        <time>2011-04-09T11:30:29Z</time>
      </trkpt>
      <trkpt lat="42.87262" lon="-0.05346">
        <ele>1636</ele>
        <time>2011-04-09T11:30:32Z</time>
      </trkpt>
      <trkpt lat="42.87265" lon="-0.05345">
        <ele>1636</ele>
        <time>2011-04-09T11:30:36Z</time>
      </trkpt>
      <trkpt lat="42.87267" lon="-0.05342">
        <ele>1635</ele>
        <time>2011-04-09T11:30:39Z</time>
      </trkpt>
      <trkpt lat="42.87268" lon="-0.05341">
        <ele>1635</ele>
        <time>2011-04-09T11:30:40Z</time>
      </trkpt>
      <trkpt lat="42.87271" lon="-0.05329">
        <ele>1632</ele>
        <time>2011-04-09T11:30:56Z</time>
      </trkpt>
      <trkpt lat="42.87271" lon="-0.05329">
        <ele>1632</ele>
        <time>2011-04-09T11:30:57Z</time>
      </trkpt>
      <trkpt lat="42.87277" lon="-0.05323">
        <ele>1632</ele>
        <time>2011-04-09T11:31:04Z</time>
      </trkpt>
      <trkpt lat="42.87277" lon="-0.05321">
        <ele>1631</ele>
        <time>2011-04-09T11:31:06Z</time>
      </trkpt>
      <trkpt lat="42.87276" lon="-0.05318">
        <ele>1630</ele>
        <time>2011-04-09T11:31:08Z</time>
      </trkpt>
      <trkpt lat="42.87279" lon="-0.05307">
        <ele>1626</ele>
        <time>2011-04-09T11:31:17Z</time>
      </trkpt>
      <trkpt lat="42.87278" lon="-0.05303">
        <ele>1625</ele>
        <time>2011-04-09T11:31:20Z</time>
      </trkpt>
      <trkpt lat="42.87278" lon="-0.05301">
        <ele>1624</ele>
        <time>2011-04-09T11:31:21Z</time>
      </trkpt>
      <trkpt lat="42.8728" lon="-0.05299">
        <ele>1623</ele>
        <time>2011-04-09T11:31:24Z</time>
      </trkpt>
      <trkpt lat="42.87281" lon="-0.05294">
        <ele>1622</ele>
        <time>2011-04-09T11:31:27Z</time>
      </trkpt>
      <trkpt lat="42.87284" lon="-0.05291">
        <ele>1620</ele>
        <time>2011-04-09T11:31:32Z</time>
      </trkpt>
      <trkpt lat="42.87284" lon="-0.05288">
        <ele>1618</ele>
        <time>2011-04-09T11:31:34Z</time>
      </trkpt>
      <trkpt lat="42.87287" lon="-0.05286">
        <ele>1616</ele>
        <time>2011-04-09T11:31:45Z</time>
      </trkpt>
      <trkpt lat="42.87293" lon="-0.0529">
        <ele>1614</ele>
        <time>2011-04-09T11:31:53Z</time>
      </trkpt>
      <trkpt lat="42.87294" lon="-0.05291">
        <ele>1613</ele>
        <time>2011-04-09T11:31:54Z</time>
      </trkpt>
      <trkpt lat="42.87297" lon="-0.05296">
        <ele>1611</ele>
        <time>2011-04-09T11:32:04Z</time>
      </trkpt>
      <trkpt lat="42.87298" lon="-0.053">
        <ele>1610</ele>
        <time>2011-04-09T11:32:07Z</time>
      </trkpt>
      <trkpt lat="42.87303" lon="-0.05302">
        <ele>1608</ele>
        <time>2011-04-09T11:32:15Z</time>
      </trkpt>
      <trkpt lat="42.87308" lon="-0.05311">
        <ele>1605</ele>
        <time>2011-04-09T11:32:24Z</time>
      </trkpt>
      <trkpt lat="42.87315" lon="-0.0532">
        <ele>1603</ele>
        <time>2011-04-09T11:32:35Z</time>
      </trkpt>
      <trkpt lat="42.87316" lon="-0.05322">
        <ele>1602</ele>
        <time>2011-04-09T11:32:37Z</time>
      </trkpt>
      <trkpt lat="42.87318" lon="-0.05326">
        <ele>1599</ele>
        <time>2011-04-09T11:32:44Z</time>
      </trkpt>
      <trkpt lat="42.87326" lon="-0.05332">
        <ele>1596</ele>
        <time>2011-04-09T11:32:57Z</time>
      </trkpt>
      <trkpt lat="42.87329" lon="-0.05334">
        <ele>1596</ele>
        <time>2011-04-09T11:33:01Z</time>
      </trkpt>
      <trkpt lat="42.87332" lon="-0.05344">
        <ele>1596</ele>
        <time>2011-04-09T11:33:19Z</time>
      </trkpt>
      <trkpt lat="42.87335" lon="-0.05344">
        <ele>1595</ele>
        <time>2011-04-09T11:33:31Z</time>
      </trkpt>
      <trkpt lat="42.87344" lon="-0.05336">
        <ele>1594</ele>
        <time>2011-04-09T11:33:42Z</time>
      </trkpt>
      <trkpt lat="42.87348" lon="-0.05334">
        <ele>1593</ele>
        <time>2011-04-09T11:33:46Z</time>
      </trkpt>
      <trkpt lat="42.87357" lon="-0.05319">
        <ele>1592</ele>
        <time>2011-04-09T11:34:03Z</time>
      </trkpt>
      <trkpt lat="42.87364" lon="-0.05317">
        <ele>1590</ele>
        <time>2011-04-09T11:34:19Z</time>
      </trkpt>
      <trkpt lat="42.87369" lon="-0.05311">
        <ele>1588</ele>
        <time>2011-04-09T11:34:27Z</time>
      </trkpt>
      <trkpt lat="42.87377" lon="-0.05308">
        <ele>1584</ele>
        <time>2011-04-09T11:34:41Z</time>
      </trkpt>
      <trkpt lat="42.87382" lon="-0.05302">
        <ele>1583</ele>
        <time>2011-04-09T11:34:53Z</time>
      </trkpt>
      <trkpt lat="42.87385" lon="-0.05299">
        <ele>1581</ele>
        <time>2011-04-09T11:34:56Z</time>
      </trkpt>
      <trkpt lat="42.87393" lon="-0.0529">
        <ele>1579</ele>
        <time>2011-04-09T11:35:07Z</time>
      </trkpt>
      <trkpt lat="42.87406" lon="-0.05286">
        <ele>1576</ele>
        <time>2011-04-09T11:35:20Z</time>
      </trkpt>
      <trkpt lat="42.87407" lon="-0.05284">
        <ele>1575</ele>
        <time>2011-04-09T11:35:22Z</time>
      </trkpt>
      <trkpt lat="42.87411" lon="-0.0528">
        <ele>1574</ele>
        <time>2011-04-09T11:35:26Z</time>
      </trkpt>
      <trkpt lat="42.87413" lon="-0.0528">
        <ele>1573</ele>
        <time>2011-04-09T11:35:27Z</time>
      </trkpt>
      <trkpt lat="42.87419" lon="-0.05279">
        <ele>1573</ele>
        <time>2011-04-09T11:35:33Z</time>
      </trkpt>
      <trkpt lat="42.8742" lon="-0.05277">
        <ele>1573</ele>
        <time>2011-04-09T11:35:35Z</time>
      </trkpt>
      <trkpt lat="42.8742" lon="-0.05272">
        <ele>1572</ele>
        <time>2011-04-09T11:35:38Z</time>
      </trkpt>
      <trkpt lat="42.87426" lon="-0.05262">
        <ele>1569</ele>
        <time>2011-04-09T11:35:47Z</time>
      </trkpt>
      <trkpt lat="42.87431" lon="-0.05257">
        <ele>1568</ele>
        <time>2011-04-09T11:35:58Z</time>
      </trkpt>
      <trkpt lat="42.87435" lon="-0.05251">
        <ele>1567</ele>
        <time>2011-04-09T11:36:05Z</time>
      </trkpt>
      <trkpt lat="42.87438" lon="-0.05247">
        <ele>1566</ele>
        <time>2011-04-09T11:36:16Z</time>
      </trkpt>
      <trkpt lat="42.87438" lon="-0.05244">
        <ele>1566</ele>
        <time>2011-04-09T11:36:19Z</time>
      </trkpt>
      <trkpt lat="42.87438" lon="-0.05238">
        <ele>1565</ele>
        <time>2011-04-09T11:36:25Z</time>
      </trkpt>
      <trkpt lat="42.87445" lon="-0.05227">
        <ele>1566</ele>
        <time>2011-04-09T11:36:36Z</time>
      </trkpt>
      <trkpt lat="42.87449" lon="-0.05226">
        <ele>1565</ele>
        <time>2011-04-09T11:36:41Z</time>
      </trkpt>
      <trkpt lat="42.87454" lon="-0.05222">
        <ele>1565</ele>
        <time>2011-04-09T11:36:46Z</time>
      </trkpt>
      <trkpt lat="42.87457" lon="-0.05209">
        <ele>1563</ele>
        <time>2011-04-09T11:36:59Z</time>
      </trkpt>
      <trkpt lat="42.87459" lon="-0.05208">
        <ele>1562</ele>
        <time>2011-04-09T11:37:01Z</time>
      </trkpt>
      <trkpt lat="42.8746" lon="-0.05207">
        <ele>1562</ele>
        <time>2011-04-09T11:37:03Z</time>
      </trkpt>
      <trkpt lat="42.87465" lon="-0.05205">
        <ele>1560</ele>
        <time>2011-04-09T11:37:08Z</time>
      </trkpt>
      <trkpt lat="42.87471" lon="-0.05201">
        <ele>1557</ele>
        <time>2011-04-09T11:37:15Z</time>
      </trkpt>
      <trkpt lat="42.87473" lon="-0.05203">
        <ele>1557</ele>
        <time>2011-04-09T11:37:29Z</time>
      </trkpt>
      <trkpt lat="42.87474" lon="-0.05204">
        <ele>1556</ele>
        <time>2011-04-09T11:37:51Z</time>
      </trkpt>
      <trkpt lat="42.87474" lon="-0.05207">
        <ele>1556</ele>
        <time>2011-04-09T11:38:04Z</time>
      </trkpt>
      <trkpt lat="42.87475" lon="-0.05209">
        <ele>1557</ele>
        <time>2011-04-09T11:38:09Z</time>
      </trkpt>
      <trkpt lat="42.87479" lon="-0.05213">
        <ele>1557</ele>
        <time>2011-04-09T11:38:26Z</time>
      </trkpt>
      <trkpt lat="42.87498" lon="-0.05187">
        <ele>1557</ele>
        <time>2011-04-09T11:38:48Z</time>
      </trkpt>
      <trkpt lat="42.875" lon="-0.05184">
        <ele>1557</ele>
        <time>2011-04-09T11:38:50Z</time>
      </trkpt>
      <trkpt lat="42.87506" lon="-0.05175">
        <ele>1557</ele>
        <time>2011-04-09T11:39:01Z</time>
      </trkpt>
      <trkpt lat="42.87527" lon="-0.05153">
        <ele>1555</ele>
        <time>2011-04-09T11:39:22Z</time>
      </trkpt>
      <trkpt lat="42.87532" lon="-0.05144">
        <ele>1554</ele>
        <time>2011-04-09T11:39:29Z</time>
      </trkpt>
      <trkpt lat="42.87537" lon="-0.05136">
        <ele>1553</ele>
        <time>2011-04-09T11:39:35Z</time>
      </trkpt>
      <trkpt lat="42.87541" lon="-0.05125">
        <ele>1552</ele>
        <time>2011-04-09T11:39:42Z</time>
      </trkpt>
      <trkpt lat="42.87547" lon="-0.05107">
        <ele>1551</ele>
        <time>2011-04-09T11:39:54Z</time>
      </trkpt>
      <trkpt lat="42.87551" lon="-0.05088">
        <ele>1548</ele>
        <time>2011-04-09T11:40:11Z</time>
      </trkpt>
      <trkpt lat="42.87552" lon="-0.05081">
        <ele>1547</ele>
        <time>2011-04-09T11:40:23Z</time>
      </trkpt>
      <trkpt lat="42.87565" lon="-0.05071">
        <ele>1544</ele>
        <time>2011-04-09T11:40:36Z</time>
      </trkpt>
      <trkpt lat="42.87574" lon="-0.05056">
        <ele>1540</ele>
        <time>2011-04-09T11:40:51Z</time>
      </trkpt>
      <trkpt lat="42.87574" lon="-0.05051">
        <ele>1538</ele>
        <time>2011-04-09T11:40:55Z</time>
      </trkpt>
      <trkpt lat="42.87577" lon="-0.0505">
        <ele>1537</ele>
        <time>2011-04-09T11:40:58Z</time>
      </trkpt>
      <trkpt lat="42.87596" lon="-0.05038">
        <ele>1534</ele>
        <time>2011-04-09T11:41:18Z</time>
      </trkpt>
      <trkpt lat="42.87609" lon="-0.05038">
        <ele>1534</ele>
        <time>2011-04-09T11:41:33Z</time>
      </trkpt>
      <trkpt lat="42.87627" lon="-0.05042">
        <ele>1535</ele>
        <time>2011-04-09T11:41:54Z</time>
      </trkpt>
      <trkpt lat="42.87626" lon="-0.05044">
        <ele>1535</ele>
        <time>2011-04-09T11:42:13Z</time>
      </trkpt>
      <trkpt lat="42.87622" lon="-0.05048">
        <ele>1537</ele>
        <time>2011-04-09T11:42:19Z</time>
      </trkpt>
      <trkpt lat="42.87616" lon="-0.05052">
        <ele>1537</ele>
        <time>2011-04-09T11:42:37Z</time>
      </trkpt>
      <trkpt lat="42.87616" lon="-0.05053">
        <ele>1539</ele>
        <time>2011-04-09T11:42:51Z</time>
      </trkpt>
      <trkpt lat="42.87623" lon="-0.05055">
        <ele>1541</ele>
        <time>2011-04-09T11:43:00Z</time>
      </trkpt>
      <trkpt lat="42.87628" lon="-0.05059">
        <ele>1543</ele>
        <time>2011-04-09T11:43:07Z</time>
      </trkpt>
      <trkpt lat="42.87633" lon="-0.0506">
        <ele>1544</ele>
        <time>2011-04-09T11:43:19Z</time>
      </trkpt>
      <trkpt lat="42.87646" lon="-0.05053">
        <ele>1544</ele>
        <time>2011-04-09T11:43:35Z</time>
      </trkpt>
      <trkpt lat="42.87651" lon="-0.05045">
        <ele>1546</ele>
        <time>2011-04-09T11:43:41Z</time>
      </trkpt>
      <trkpt lat="42.87659" lon="-0.05033">
        <ele>1542</ele>
        <time>2011-04-09T11:43:50Z</time>
      </trkpt>
      <trkpt lat="42.8766" lon="-0.05032">
        <ele>1542</ele>
        <time>2011-04-09T11:43:51Z</time>
      </trkpt>
      <trkpt lat="42.87667" lon="-0.05015">
        <ele>1539</ele>
        <time>2011-04-09T11:44:03Z</time>
      </trkpt>
      <trkpt lat="42.87673" lon="-0.05004">
        <ele>1537</ele>
        <time>2011-04-09T11:44:12Z</time>
      </trkpt>
      <trkpt lat="42.87675" lon="-0.04993">
        <ele>1536</ele>
        <time>2011-04-09T11:44:18Z</time>
      </trkpt>
      <trkpt lat="42.87676" lon="-0.04989">
        <ele>1535</ele>
        <time>2011-04-09T11:44:21Z</time>
      </trkpt>
      <trkpt lat="42.87677" lon="-0.04985">
        <ele>1533</ele>
        <time>2011-04-09T11:44:24Z</time>
      </trkpt>
      <trkpt lat="42.87678" lon="-0.0498">
        <ele>1532</ele>
        <time>2011-04-09T11:44:28Z</time>
      </trkpt>
      <trkpt lat="42.87678" lon="-0.04972">
        <ele>1531</ele>
        <time>2011-04-09T11:44:34Z</time>
      </trkpt>
      <trkpt lat="42.87684" lon="-0.04954">
        <ele>1527</ele>
        <time>2011-04-09T11:44:47Z</time>
      </trkpt>
      <trkpt lat="42.87685" lon="-0.04949">
        <ele>1526</ele>
        <time>2011-04-09T11:44:51Z</time>
      </trkpt>
      <trkpt lat="42.87687" lon="-0.04946">
        <ele>1525</ele>
        <time>2011-04-09T11:44:53Z</time>
      </trkpt>
      <trkpt lat="42.8769" lon="-0.04942">
        <ele>1524</ele>
        <time>2011-04-09T11:44:57Z</time>
      </trkpt>
      <trkpt lat="42.87694" lon="-0.04924">
        <ele>1521</ele>
        <time>2011-04-09T11:45:08Z</time>
      </trkpt>
      <trkpt lat="42.87703" lon="-0.04903">
        <ele>1518</ele>
        <time>2011-04-09T11:45:23Z</time>
      </trkpt>
      <trkpt lat="42.87706" lon="-0.04896">
        <ele>1517</ele>
        <time>2011-04-09T11:45:27Z</time>
      </trkpt>
      <trkpt lat="42.87713" lon="-0.0487">
        <ele>1514</ele>
        <time>2011-04-09T11:45:46Z</time>
      </trkpt>
      <trkpt lat="42.87714" lon="-0.04867">
        <ele>1512</ele>
        <time>2011-04-09T11:45:49Z</time>
      </trkpt>
      <trkpt lat="42.87714" lon="-0.04863">
        <ele>1512</ele>
        <time>2011-04-09T11:45:52Z</time>
      </trkpt>
      <trkpt lat="42.87717" lon="-0.04853">
        <ele>1509</ele>
        <time>2011-04-09T11:46:00Z</time>
      </trkpt>
      <trkpt lat="42.87721" lon="-0.0485">
        <ele>1507</ele>
        <time>2011-04-09T11:46:05Z</time>
      </trkpt>
      <trkpt lat="42.87727" lon="-0.04844">
        <ele>1506</ele>
        <time>2011-04-09T11:46:12Z</time>
      </trkpt>
      <trkpt lat="42.87729" lon="-0.04842">
        <ele>1505</ele>
        <time>2011-04-09T11:46:14Z</time>
      </trkpt>
      <trkpt lat="42.87729" lon="-0.04835">
        <ele>1503</ele>
        <time>2011-04-09T11:46:19Z</time>
      </trkpt>
      <trkpt lat="42.87729" lon="-0.04832">
        <ele>1502</ele>
        <time>2011-04-09T11:46:22Z</time>
      </trkpt>
      <trkpt lat="42.87731" lon="-0.04827">
        <ele>1502</ele>
        <time>2011-04-09T11:46:25Z</time>
      </trkpt>
      <trkpt lat="42.87737" lon="-0.04808">
        <ele>1498</ele>
        <time>2011-04-09T11:46:39Z</time>
      </trkpt>
      <trkpt lat="42.87748" lon="-0.04792">
        <ele>1495</ele>
        <time>2011-04-09T11:46:52Z</time>
      </trkpt>
      <trkpt lat="42.87756" lon="-0.04778">
        <ele>1492</ele>
        <time>2011-04-09T11:47:02Z</time>
      </trkpt>
      <trkpt lat="42.87757" lon="-0.04777">
        <ele>1492</ele>
        <time>2011-04-09T11:47:03Z</time>
      </trkpt>
      <trkpt lat="42.87763" lon="-0.04766">
        <ele>1490</ele>
        <time>2011-04-09T11:47:12Z</time>
      </trkpt>
      <trkpt lat="42.87766" lon="-0.04759">
        <ele>1489</ele>
        <time>2011-04-09T11:47:17Z</time>
      </trkpt>
      <trkpt lat="42.87778" lon="-0.04744">
        <ele>1486</ele>
        <time>2011-04-09T11:47:32Z</time>
      </trkpt>
      <trkpt lat="42.8778" lon="-0.0474">
        <ele>1486</ele>
        <time>2011-04-09T11:47:35Z</time>
      </trkpt>
      <trkpt lat="42.87785" lon="-0.04736">
        <ele>1485</ele>
        <time>2011-04-09T11:47:42Z</time>
      </trkpt>
      <trkpt lat="42.8779" lon="-0.04735">
        <ele>1484</ele>
        <time>2011-04-09T11:47:48Z</time>
      </trkpt>
      <trkpt lat="42.87796" lon="-0.04735">
        <ele>1482</ele>
        <time>2011-04-09T11:48:05Z</time>
      </trkpt>
      <trkpt lat="42.87797" lon="-0.04735">
        <ele>1482</ele>
        <time>2011-04-09T11:48:06Z</time>
      </trkpt>
      <trkpt lat="42.87803" lon="-0.04728">
        <ele>1481</ele>
        <time>2011-04-09T11:48:14Z</time>
      </trkpt>
      <trkpt lat="42.87806" lon="-0.04722">
        <ele>1479</ele>
        <time>2011-04-09T11:48:19Z</time>
      </trkpt>
      <trkpt lat="42.8781" lon="-0.04717">
        <ele>1476</ele>
        <time>2011-04-09T11:48:24Z</time>
      </trkpt>
      <trkpt lat="42.8781" lon="-0.04716">
        <ele>1476</ele>
        <time>2011-04-09T11:48:25Z</time>
      </trkpt>
      <trkpt lat="42.87814" lon="-0.04716">
        <ele>1475</ele>
        <time>2011-04-09T11:48:29Z</time>
      </trkpt>
      <trkpt lat="42.87818" lon="-0.04714">
        <ele>1474</ele>
        <time>2011-04-09T11:48:32Z</time>
      </trkpt>
      <trkpt lat="42.87823" lon="-0.04712">
        <ele>1473</ele>
        <time>2011-04-09T11:48:39Z</time>
      </trkpt>
      <trkpt lat="42.87821" lon="-0.04705">
        <ele>1473</ele>
        <time>2011-04-09T11:48:44Z</time>
      </trkpt>
      <trkpt lat="42.87821" lon="-0.04679">
        <ele>1470</ele>
        <time>2011-04-09T11:48:59Z</time>
      </trkpt>
      <trkpt lat="42.87822" lon="-0.04674">
        <ele>1469</ele>
        <time>2011-04-09T11:49:03Z</time>
      </trkpt>
      <trkpt lat="42.87825" lon="-0.04666">
        <ele>1467</ele>
        <time>2011-04-09T11:49:09Z</time>
      </trkpt>
      <trkpt lat="42.87837" lon="-0.04649">
        <ele>1464</ele>
        <time>2011-04-09T11:49:24Z</time>
      </trkpt>
      <trkpt lat="42.87842" lon="-0.04645">
        <ele>1463</ele>
        <time>2011-04-09T11:49:29Z</time>
      </trkpt>
      <trkpt lat="42.87837" lon="-0.04643">
        <ele>1460</ele>
        <time>2011-04-09T11:49:37Z</time>
      </trkpt>
      <trkpt lat="42.87831" lon="-0.04643">
        <ele>1458</ele>
        <time>2011-04-09T11:49:43Z</time>
      </trkpt>
      <trkpt lat="42.8782" lon="-0.04652">
        <ele>1455</ele>
        <time>2011-04-09T11:49:57Z</time>
      </trkpt>
      <trkpt lat="42.8782" lon="-0.04651">
        <ele>1454</ele>
        <time>2011-04-09T11:49:58Z</time>
      </trkpt>
      <trkpt lat="42.87821" lon="-0.04641">
        <ele>1453</ele>
        <time>2011-04-09T11:50:07Z</time>
      </trkpt>
      <trkpt lat="42.87822" lon="-0.04633">
        <ele>1451</ele>
        <time>2011-04-09T11:50:12Z</time>
      </trkpt>
      <trkpt lat="42.87827" lon="-0.04622">
        <ele>1448</ele>
        <time>2011-04-09T11:50:21Z</time>
      </trkpt>
      <trkpt lat="42.87828" lon="-0.04613">
        <ele>1445</ele>
        <time>2011-04-09T11:50:32Z</time>
      </trkpt>
      <trkpt lat="42.87828" lon="-0.04608">
        <ele>1443</ele>
        <time>2011-04-09T11:50:37Z</time>
      </trkpt>
      <trkpt lat="42.87829" lon="-0.04603">
        <ele>1442</ele>
        <time>2011-04-09T11:50:43Z</time>
      </trkpt>
      <trkpt lat="42.87834" lon="-0.0459">
        <ele>1439</ele>
        <time>2011-04-09T11:50:57Z</time>
      </trkpt>
      <trkpt lat="42.87817" lon="-0.04608">
        <ele>1436</ele>
        <time>2011-04-09T11:51:18Z</time>
      </trkpt>
      <trkpt lat="42.87819" lon="-0.04614">
        <ele>1435</ele>
        <time>2011-04-09T11:51:30Z</time>
      </trkpt>
      <trkpt lat="42.87823" lon="-0.04617">
        <ele>1432</ele>
        <time>2011-04-09T11:51:40Z</time>
      </trkpt>
      <trkpt lat="42.87823" lon="-0.04615">
        <ele>1432</ele>
        <time>2011-04-09T11:51:41Z</time>
      </trkpt>
      <trkpt lat="42.87822" lon="-0.04615">
        <ele>1435</ele>
        <time>2011-04-09T11:51:43Z</time>
      </trkpt>
      <trkpt lat="42.87822" lon="-0.04616">
        <ele>1433</ele>
        <time>2011-04-09T11:52:47Z</time>
      </trkpt>
      <trkpt lat="42.87822" lon="-0.04616">
        <ele>1434</ele>
        <time>2011-04-09T11:52:51Z</time>
      </trkpt>
    </trkseg>
  </trk>
</gpx>